<?xml version="1.0" encoding="utf-8"?>
<gpx xmlns:xsi="http://www.w3.org/2001/XMLSchema-instance" xmlns:xsd="http://www.w3.org/2001/XMLSchema" version="1.1" creator="Shapelink.com" xmlns="http://www.topografix.com/GPX/1/1" xmlns:gpxtpx="http://www.garmin.com/xmlschemas/TrackPointExtension/v1">
  <metadata>
    <name>Löpning 8.20 km, 2018-02-15</name>
    <desc></desc>
    <author><name>Bengt-Åke Forslund</name></author> 
    <time>2018-02-15T17:48:40Z</time>
  </metadata>
  <trk>
    <name>Löpning 8.20 km, 2018-02-15</name>
    <trkseg>
      <trkpt lat="62.635867029596" lon="17.967808973048">
        <ele>41.4</ele>
        <time>2018-02-15T17:48:40Z</time>
      </trkpt>
      <trkpt lat="62.635977419219" lon="17.968159336468">
        <ele>41.8</ele>
        <time>2018-02-15T17:49:08Z</time>
      </trkpt>
      <trkpt lat="62.635992506639" lon="17.968208957316">
        <ele>42</ele>
        <time>2018-02-15T17:49:09Z</time>
      </trkpt>
      <trkpt lat="62.636009438077" lon="17.968255393042">
        <ele>42</ele>
        <time>2018-02-15T17:49:10Z</time>
      </trkpt>
      <trkpt lat="62.636027123886" lon="17.96829495561">
        <ele>42.2</ele>
        <time>2018-02-15T17:49:11Z</time>
      </trkpt>
      <trkpt lat="62.636044474419" lon="17.968341391336">
        <ele>42.4</ele>
        <time>2018-02-15T17:49:12Z</time>
      </trkpt>
      <trkpt lat="62.636067608463" lon="17.968380031895">
        <ele>42.4</ele>
        <time>2018-02-15T17:49:13Z</time>
      </trkpt>
      <trkpt lat="62.636087808842" lon="17.968413224219">
        <ele>42.6</ele>
        <time>2018-02-15T17:49:14Z</time>
      </trkpt>
      <trkpt lat="62.636113876551" lon="17.968442812326">
        <ele>42.6</ele>
        <time>2018-02-15T17:49:15Z</time>
      </trkpt>
      <trkpt lat="62.636128628695" lon="17.968456893918">
        <ele>42.6</ele>
        <time>2018-02-15T17:49:16Z</time>
      </trkpt>
      <trkpt lat="62.636166347245" lon="17.968488409862">
        <ele>42.8</ele>
        <time>2018-02-15T17:49:17Z</time>
      </trkpt>
      <trkpt lat="62.63620029394" lon="17.968501317988">
        <ele>42.6</ele>
        <time>2018-02-15T17:49:18Z</time>
      </trkpt>
      <trkpt lat="62.636236084653" lon="17.968521769824">
        <ele>42.6</ele>
        <time>2018-02-15T17:49:19Z</time>
      </trkpt>
      <trkpt lat="62.636273467927" lon="17.968539958547">
        <ele>42.6</ele>
        <time>2018-02-15T17:49:20Z</time>
      </trkpt>
      <trkpt lat="62.636303978043" lon="17.96857072012">
        <ele>42.6</ele>
        <time>2018-02-15T17:49:21Z</time>
      </trkpt>
      <trkpt lat="62.636334991073" lon="17.96861346781">
        <ele>42.6</ele>
        <time>2018-02-15T17:49:22Z</time>
      </trkpt>
      <trkpt lat="62.63636374099" lon="17.968650264351">
        <ele>42.6</ele>
        <time>2018-02-15T17:49:23Z</time>
      </trkpt>
      <trkpt lat="62.636389641061" lon="17.968702567407">
        <ele>42.6</ele>
        <time>2018-02-15T17:49:24Z</time>
      </trkpt>
      <trkpt lat="62.636421743738" lon="17.96874506364">
        <ele>42.6</ele>
        <time>2018-02-15T17:49:25Z</time>
      </trkpt>
      <trkpt lat="62.636442111755" lon="17.96879367866">
        <ele>42.6</ele>
        <time>2018-02-15T17:49:26Z</time>
      </trkpt>
      <trkpt lat="62.636464742885" lon="17.968842712775">
        <ele>42.8</ele>
        <time>2018-02-15T17:49:27Z</time>
      </trkpt>
      <trkpt lat="62.636482680151" lon="17.968879676954">
        <ele>42.8</ele>
        <time>2018-02-15T17:49:28Z</time>
      </trkpt>
      <trkpt lat="62.63650288053" lon="17.968937092969">
        <ele>42.8</ele>
        <time>2018-02-15T17:49:29Z</time>
      </trkpt>
      <trkpt lat="62.63652634985" lon="17.968978583374">
        <ele>43</ele>
        <time>2018-02-15T17:49:30Z</time>
      </trkpt>
      <trkpt lat="62.636546717867" lon="17.969036502303">
        <ele>43</ele>
        <time>2018-02-15T17:49:31Z</time>
      </trkpt>
      <trkpt lat="62.63656909754" lon="17.969088302445">
        <ele>43</ele>
        <time>2018-02-15T17:49:32Z</time>
      </trkpt>
      <trkpt lat="62.636586280435" lon="17.969144712632">
        <ele>43</ele>
        <time>2018-02-15T17:49:33Z</time>
      </trkpt>
      <trkpt lat="62.636599691475" lon="17.969195758403">
        <ele>43</ele>
        <time>2018-02-15T17:49:34Z</time>
      </trkpt>
      <trkpt lat="62.636618047836" lon="17.969248145278">
        <ele>43.2</ele>
        <time>2018-02-15T17:49:35Z</time>
      </trkpt>
      <trkpt lat="62.636632883799" lon="17.969316793039">
        <ele>43</ele>
        <time>2018-02-15T17:49:36Z</time>
      </trkpt>
      <trkpt lat="62.636647719762" lon="17.969369263733">
        <ele>43</ele>
        <time>2018-02-15T17:49:37Z</time>
      </trkpt>
      <trkpt lat="62.63666213663" lon="17.969433888182">
        <ele>43</ele>
        <time>2018-02-15T17:49:38Z</time>
      </trkpt>
      <trkpt lat="62.636675463851" lon="17.969484766315">
        <ele>42.8</ele>
        <time>2018-02-15T17:49:39Z</time>
      </trkpt>
      <trkpt lat="62.636687701425" lon="17.969529860937">
        <ele>43</ele>
        <time>2018-02-15T17:49:40Z</time>
      </trkpt>
      <trkpt lat="62.636701112465" lon="17.969593647196">
        <ele>43</ele>
        <time>2018-02-15T17:49:41Z</time>
      </trkpt>
      <trkpt lat="62.636709326727" lon="17.969635724334">
        <ele>43.2</ele>
        <time>2018-02-15T17:49:42Z</time>
      </trkpt>
      <trkpt lat="62.636719720283" lon="17.969691966883">
        <ele>43.4</ele>
        <time>2018-02-15T17:49:43Z</time>
      </trkpt>
      <trkpt lat="62.636732796047" lon="17.969739324618">
        <ele>43.6</ele>
        <time>2018-02-15T17:49:44Z</time>
      </trkpt>
      <trkpt lat="62.636746458544" lon="17.969785676525">
        <ele>43.6</ele>
        <time>2018-02-15T17:49:45Z</time>
      </trkpt>
      <trkpt lat="62.636761965059" lon="17.969835213554">
        <ele>43.6</ele>
        <time>2018-02-15T17:49:46Z</time>
      </trkpt>
      <trkpt lat="62.636780824334" lon="17.969876284864">
        <ele>43.8</ele>
        <time>2018-02-15T17:49:47Z</time>
      </trkpt>
      <trkpt lat="62.636798174867" lon="17.969925821893">
        <ele>43.8</ele>
        <time>2018-02-15T17:49:48Z</time>
      </trkpt>
      <trkpt lat="62.6368155254" lon="17.969960020045">
        <ele>43.6</ele>
        <time>2018-02-15T17:49:49Z</time>
      </trkpt>
      <trkpt lat="62.636839329996" lon="17.970005785219">
        <ele>43.8</ele>
        <time>2018-02-15T17:49:50Z</time>
      </trkpt>
      <trkpt lat="62.636861793488" lon="17.970037301163">
        <ele>43.6</ele>
        <time>2018-02-15T17:49:51Z</time>
      </trkpt>
      <trkpt lat="62.6368825806" lon="17.970066134899">
        <ele>43.8</ele>
        <time>2018-02-15T17:49:52Z</time>
      </trkpt>
      <trkpt lat="62.636907893938" lon="17.970093292255">
        <ele>43.8</ele>
        <time>2018-02-15T17:49:53Z</time>
      </trkpt>
      <trkpt lat="62.636934464561" lon="17.97011801886">
        <ele>43.8</ele>
        <time>2018-02-15T17:49:54Z</time>
      </trkpt>
      <trkpt lat="62.636966986333" lon="17.970147942243">
        <ele>44</ele>
        <time>2018-02-15T17:49:55Z</time>
      </trkpt>
      <trkpt lat="62.636997747906" lon="17.970157162333">
        <ele>44</ele>
        <time>2018-02-15T17:49:56Z</time>
      </trkpt>
      <trkpt lat="62.637037478112" lon="17.970167388251">
        <ele>44.2</ele>
        <time>2018-02-15T17:49:57Z</time>
      </trkpt>
      <trkpt lat="62.637072262997" lon="17.970167723527">
        <ele>44.2</ele>
        <time>2018-02-15T17:49:58Z</time>
      </trkpt>
      <trkpt lat="62.637108975719" lon="17.970157916704">
        <ele>44</ele>
        <time>2018-02-15T17:49:59Z</time>
      </trkpt>
      <trkpt lat="62.637152980694" lon="17.970139979438">
        <ele>43.6</ele>
        <time>2018-02-15T17:50:00Z</time>
      </trkpt>
      <trkpt lat="62.637191537434" lon="17.970122628905">
        <ele>43.4</ele>
        <time>2018-02-15T17:50:01Z</time>
      </trkpt>
      <trkpt lat="62.637236799694" lon="17.97009957868">
        <ele>43</ele>
        <time>2018-02-15T17:50:02Z</time>
      </trkpt>
      <trkpt lat="62.637282313411" lon="17.970077534283">
        <ele>42.6</ele>
        <time>2018-02-15T17:50:03Z</time>
      </trkpt>
      <trkpt lat="62.637321624522" lon="17.970059094103">
        <ele>42.4</ele>
        <time>2018-02-15T17:50:04Z</time>
      </trkpt>
      <trkpt lat="62.637372670293" lon="17.970039480457">
        <ele>42.2</ele>
        <time>2018-02-15T17:50:05Z</time>
      </trkpt>
      <trkpt lat="62.637419357476" lon="17.970026739969">
        <ele>42</ele>
        <time>2018-02-15T17:50:06Z</time>
      </trkpt>
      <trkpt lat="62.637464368279" lon="17.970026907607">
        <ele>41.6</ele>
        <time>2018-02-15T17:50:07Z</time>
      </trkpt>
      <trkpt lat="62.637505188132" lon="17.970038809905">
        <ele>41.4</ele>
        <time>2018-02-15T17:50:08Z</time>
      </trkpt>
      <trkpt lat="62.637543577234" lon="17.970064626157">
        <ele>41.2</ele>
        <time>2018-02-15T17:50:09Z</time>
      </trkpt>
      <trkpt lat="62.637577775386" lon="17.970105697467">
        <ele>41.2</ele>
        <time>2018-02-15T17:50:10Z</time>
      </trkpt>
      <trkpt lat="62.637607950226" lon="17.97016831026">
        <ele>41</ele>
        <time>2018-02-15T17:50:11Z</time>
      </trkpt>
      <trkpt lat="62.6376369516" lon="17.970221451506">
        <ele>41</ele>
        <time>2018-02-15T17:50:12Z</time>
      </trkpt>
      <trkpt lat="62.637667042621" lon="17.970296050416">
        <ele>41</ele>
        <time>2018-02-15T17:50:13Z</time>
      </trkpt>
      <trkpt lat="62.637688416466" lon="17.970360171951">
        <ele>41</ele>
        <time>2018-02-15T17:50:14Z</time>
      </trkpt>
      <trkpt lat="62.637710125587" lon="17.970427562427">
        <ele>41</ele>
        <time>2018-02-15T17:50:15Z</time>
      </trkpt>
      <trkpt lat="62.637726721749" lon="17.970494869084">
        <ele>41</ele>
        <time>2018-02-15T17:50:16Z</time>
      </trkpt>
      <trkpt lat="62.637745161929" lon="17.9705589068">
        <ele>41</ele>
        <time>2018-02-15T17:50:17Z</time>
      </trkpt>
      <trkpt lat="62.637758656788" lon="17.970623782706">
        <ele>41</ele>
        <time>2018-02-15T17:50:18Z</time>
      </trkpt>
      <trkpt lat="62.63776854743" lon="17.970681617816">
        <ele>40.8</ele>
        <time>2018-02-15T17:50:19Z</time>
      </trkpt>
      <trkpt lat="62.637782126108" lon="17.970730149017">
        <ele>40.8</ele>
        <time>2018-02-15T17:50:20Z</time>
      </trkpt>
      <trkpt lat="62.637792938759" lon="17.970791672163">
        <ele>41</ele>
        <time>2018-02-15T17:50:21Z</time>
      </trkpt>
      <trkpt lat="62.637802997039" lon="17.970836850604">
        <ele>41</ele>
        <time>2018-02-15T17:50:22Z</time>
      </trkpt>
      <trkpt lat="62.637812468586" lon="17.9709025647">
        <ele>41.2</ele>
        <time>2018-02-15T17:50:23Z</time>
      </trkpt>
      <trkpt lat="62.637824789979" lon="17.970955286851">
        <ele>41.2</ele>
        <time>2018-02-15T17:50:24Z</time>
      </trkpt>
      <trkpt lat="62.637837614286" lon="17.971027706467">
        <ele>41.2</ele>
        <time>2018-02-15T17:50:25Z</time>
      </trkpt>
      <trkpt lat="62.637851863516" lon="17.971089313432">
        <ele>41.2</ele>
        <time>2018-02-15T17:50:26Z</time>
      </trkpt>
      <trkpt lat="62.637863011443" lon="17.971153770243">
        <ele>41.2</ele>
        <time>2018-02-15T17:50:27Z</time>
      </trkpt>
      <trkpt lat="62.637871058067" lon="17.971214706656">
        <ele>41.4</ele>
        <time>2018-02-15T17:50:28Z</time>
      </trkpt>
      <trkpt lat="62.637880194338" lon="17.971270697748">
        <ele>41.4</ele>
        <time>2018-02-15T17:50:29Z</time>
      </trkpt>
      <trkpt lat="62.637890252618" lon="17.971335657473">
        <ele>41.4</ele>
        <time>2018-02-15T17:50:30Z</time>
      </trkpt>
      <trkpt lat="62.637899388889" lon="17.97138117119">
        <ele>41.4</ele>
        <time>2018-02-15T17:50:31Z</time>
      </trkpt>
      <trkpt lat="62.637909782445" lon="17.971440850318">
        <ele>41.6</ele>
        <time>2018-02-15T17:50:32Z</time>
      </trkpt>
      <trkpt lat="62.637920343639" lon="17.971483849465">
        <ele>41.6</ele>
        <time>2018-02-15T17:50:33Z</time>
      </trkpt>
      <trkpt lat="62.637928390263" lon="17.971536320159">
        <ele>41.6</ele>
        <time>2018-02-15T17:50:34Z</time>
      </trkpt>
      <trkpt lat="62.637939622009" lon="17.971600609332">
        <ele>41.6</ele>
        <time>2018-02-15T17:50:35Z</time>
      </trkpt>
      <trkpt lat="62.637946327529" lon="17.971661545745">
        <ele>41.8</ele>
        <time>2018-02-15T17:50:36Z</time>
      </trkpt>
      <trkpt lat="62.637953284506" lon="17.971726589289">
        <ele>41.8</ele>
        <time>2018-02-15T17:50:37Z</time>
      </trkpt>
      <trkpt lat="62.637958313646" lon="17.971779814354">
        <ele>42</ele>
        <time>2018-02-15T17:50:38Z</time>
      </trkpt>
      <trkpt lat="62.637965438261" lon="17.97183379379">
        <ele>42</ele>
        <time>2018-02-15T17:50:39Z</time>
      </trkpt>
      <trkpt lat="62.637960660578" lon="17.971890874529">
        <ele>42</ele>
        <time>2018-02-15T17:50:40Z</time>
      </trkpt>
      <trkpt lat="62.63796049294" lon="17.971967652733">
        <ele>42.2</ele>
        <time>2018-02-15T17:50:41Z</time>
      </trkpt>
      <trkpt lat="62.637964348614" lon="17.972029846431">
        <ele>42.2</ele>
        <time>2018-02-15T17:50:42Z</time>
      </trkpt>
      <trkpt lat="62.63796552208" lon="17.972093381233">
        <ele>42.2</ele>
        <time>2018-02-15T17:50:43Z</time>
      </trkpt>
      <trkpt lat="62.637967533736" lon="17.972155910207">
        <ele>42.2</ele>
        <time>2018-02-15T17:50:44Z</time>
      </trkpt>
      <trkpt lat="62.637971808505" lon="17.972210224919">
        <ele>42.2</ele>
        <time>2018-02-15T17:50:45Z</time>
      </trkpt>
      <trkpt lat="62.637976670007" lon="17.972254816627">
        <ele>42.4</ele>
        <time>2018-02-15T17:50:46Z</time>
      </trkpt>
      <trkpt lat="62.637984632812" lon="17.972329080261">
        <ele>42.4</ele>
        <time>2018-02-15T17:50:47Z</time>
      </trkpt>
      <trkpt lat="62.637986895925" lon="17.972388507932">
        <ele>42.4</ele>
        <time>2018-02-15T17:50:48Z</time>
      </trkpt>
      <trkpt lat="62.637993769083" lon="17.972436368581">
        <ele>42.4</ele>
        <time>2018-02-15T17:50:49Z</time>
      </trkpt>
      <trkpt lat="62.637996116015" lon="17.972494455148">
        <ele>42.4</ele>
        <time>2018-02-15T17:50:50Z</time>
      </trkpt>
      <trkpt lat="62.638001396612" lon="17.972554050457">
        <ele>42.4</ele>
        <time>2018-02-15T17:50:51Z</time>
      </trkpt>
      <trkpt lat="62.63800910796" lon="17.972611801748">
        <ele>42.4</ele>
        <time>2018-02-15T17:50:52Z</time>
      </trkpt>
      <trkpt lat="62.638005839019" lon="17.972650945221">
        <ele>42.6</ele>
        <time>2018-02-15T17:50:53Z</time>
      </trkpt>
      <trkpt lat="62.638011287254" lon="17.972719592982">
        <ele>42.6</ele>
        <time>2018-02-15T17:50:54Z</time>
      </trkpt>
      <trkpt lat="62.63801162253" lon="17.972777176635">
        <ele>42.8</ele>
        <time>2018-02-15T17:50:55Z</time>
      </trkpt>
      <trkpt lat="62.638016148756" lon="17.972830904614">
        <ele>43.2</ele>
        <time>2018-02-15T17:50:56Z</time>
      </trkpt>
      <trkpt lat="62.638019250059" lon="17.972883542946">
        <ele>43.4</ele>
        <time>2018-02-15T17:50:57Z</time>
      </trkpt>
      <trkpt lat="62.638019501516" lon="17.972938276753">
        <ele>43.6</ele>
        <time>2018-02-15T17:50:58Z</time>
      </trkpt>
      <trkpt lat="62.638022099905" lon="17.972993094379">
        <ele>43.6</ele>
        <time>2018-02-15T17:50:59Z</time>
      </trkpt>
      <trkpt lat="62.638021932267" lon="17.973054282249">
        <ele>43.8</ele>
        <time>2018-02-15T17:51:00Z</time>
      </trkpt>
      <trkpt lat="62.638023776285" lon="17.973111614445">
        <ele>43.8</ele>
        <time>2018-02-15T17:51:01Z</time>
      </trkpt>
      <trkpt lat="62.638027129045" lon="17.973158217809">
        <ele>44</ele>
        <time>2018-02-15T17:51:02Z</time>
      </trkpt>
      <trkpt lat="62.638026793769" lon="17.973207419562">
        <ele>44</ele>
        <time>2018-02-15T17:51:03Z</time>
      </trkpt>
      <trkpt lat="62.638025452665" lon="17.973253268555">
        <ele>44.2</ele>
        <time>2018-02-15T17:51:04Z</time>
      </trkpt>
      <trkpt lat="62.638029056882" lon="17.973307834724">
        <ele>44.2</ele>
        <time>2018-02-15T17:51:05Z</time>
      </trkpt>
      <trkpt lat="62.638028134873" lon="17.973364915463">
        <ele>44.4</ele>
        <time>2018-02-15T17:51:06Z</time>
      </trkpt>
      <trkpt lat="62.638028805425" lon="17.973426690066">
        <ele>44.4</ele>
        <time>2018-02-15T17:51:07Z</time>
      </trkpt>
      <trkpt lat="62.638023524828" lon="17.973478574027">
        <ele>44.4</ele>
        <time>2018-02-15T17:51:08Z</time>
      </trkpt>
      <trkpt lat="62.638018998602" lon="17.973533559291">
        <ele>44.4</ele>
        <time>2018-02-15T17:51:09Z</time>
      </trkpt>
      <trkpt lat="62.638016484032" lon="17.973587454908">
        <ele>44.4</ele>
        <time>2018-02-15T17:51:10Z</time>
      </trkpt>
      <trkpt lat="62.638017825136" lon="17.973640512335">
        <ele>44.6</ele>
        <time>2018-02-15T17:51:11Z</time>
      </trkpt>
      <trkpt lat="62.638018914783" lon="17.973688121527">
        <ele>44.8</ele>
        <time>2018-02-15T17:51:12Z</time>
      </trkpt>
      <trkpt lat="62.638019920611" lon="17.973742520058">
        <ele>45</ele>
        <time>2018-02-15T17:51:13Z</time>
      </trkpt>
      <trkpt lat="62.638024949751" lon="17.973790715983">
        <ele>45.2</ele>
        <time>2018-02-15T17:51:14Z</time>
      </trkpt>
      <trkpt lat="62.638029392158" lon="17.973858357916">
        <ele>45.2</ele>
        <time>2018-02-15T17:51:15Z</time>
      </trkpt>
      <trkpt lat="62.63803593004" lon="17.973911582981">
        <ele>45.2</ele>
        <time>2018-02-15T17:51:16Z</time>
      </trkpt>
      <trkpt lat="62.638041126818" lon="17.973983415864">
        <ele>45.2</ele>
        <time>2018-02-15T17:51:17Z</time>
      </trkpt>
      <trkpt lat="62.638048586709" lon="17.974039239318">
        <ele>45</ele>
        <time>2018-02-15T17:51:18Z</time>
      </trkpt>
      <trkpt lat="62.638050766003" lon="17.974100008093">
        <ele>45</ele>
        <time>2018-02-15T17:51:19Z</time>
      </trkpt>
      <trkpt lat="62.638055292229" lon="17.974158429936">
        <ele>45</ele>
        <time>2018-02-15T17:51:20Z</time>
      </trkpt>
      <trkpt lat="62.638055124591" lon="17.97422431167">
        <ele>45</ele>
        <time>2018-02-15T17:51:21Z</time>
      </trkpt>
      <trkpt lat="62.638058142075" lon="17.974279799848">
        <ele>45</ele>
        <time>2018-02-15T17:51:22Z</time>
      </trkpt>
      <trkpt lat="62.638057639161" lon="17.974347106505">
        <ele>44.8</ele>
        <time>2018-02-15T17:51:23Z</time>
      </trkpt>
      <trkpt lat="62.638058980265" lon="17.974419107026">
        <ele>45</ele>
        <time>2018-02-15T17:51:24Z</time>
      </trkpt>
      <trkpt lat="62.63805688479" lon="17.974488592977">
        <ele>45</ele>
        <time>2018-02-15T17:51:25Z</time>
      </trkpt>
      <trkpt lat="62.638051604193" lon="17.974556318729">
        <ele>45</ele>
        <time>2018-02-15T17:51:26Z</time>
      </trkpt>
      <trkpt lat="62.63804934108" lon="17.974613818563">
        <ele>45</ele>
        <time>2018-02-15T17:51:27Z</time>
      </trkpt>
      <trkpt lat="62.638039618076" lon="17.974676682813">
        <ele>45.2</ele>
        <time>2018-02-15T17:51:28Z</time>
      </trkpt>
      <trkpt lat="62.638029056882" lon="17.974735859027">
        <ele>45</ele>
        <time>2018-02-15T17:51:29Z</time>
      </trkpt>
      <trkpt lat="62.638016148756" lon="17.974787491531">
        <ele>45</ele>
        <time>2018-02-15T17:51:30Z</time>
      </trkpt>
      <trkpt lat="62.638005587562" lon="17.974840129863">
        <ele>45</ele>
        <time>2018-02-15T17:51:31Z</time>
      </trkpt>
      <trkpt lat="62.637993266169" lon="17.974885727399">
        <ele>45</ele>
        <time>2018-02-15T17:51:32Z</time>
      </trkpt>
      <trkpt lat="62.637980525681" lon="17.974931157297">
        <ele>45</ele>
        <time>2018-02-15T17:51:33Z</time>
      </trkpt>
      <trkpt lat="62.637968958659" lon="17.974966277458">
        <ele>45</ele>
        <time>2018-02-15T17:51:34Z</time>
      </trkpt>
      <trkpt lat="62.637951105212" lon="17.975008941329">
        <ele>45.2</ele>
        <time>2018-02-15T17:51:35Z</time>
      </trkpt>
      <trkpt lat="62.637934425231" lon="17.975050934648">
        <ele>45.4</ele>
        <time>2018-02-15T17:51:36Z</time>
      </trkpt>
      <trkpt lat="62.637919505449" lon="17.975084378429">
        <ele>45.6</ele>
        <time>2018-02-15T17:51:37Z</time>
      </trkpt>
      <trkpt lat="62.637902993106" lon="17.975110781414">
        <ele>45.6</ele>
        <time>2018-02-15T17:51:38Z</time>
      </trkpt>
      <trkpt lat="62.63788170308" lon="17.975143973738">
        <ele>45.6</ele>
        <time>2018-02-15T17:51:39Z</time>
      </trkpt>
      <trkpt lat="62.637870974248" lon="17.975175238225">
        <ele>46</ele>
        <time>2018-02-15T17:51:40Z</time>
      </trkpt>
      <trkpt lat="62.63785152824" lon="17.975222428322">
        <ele>46.2</ele>
        <time>2018-02-15T17:51:41Z</time>
      </trkpt>
      <trkpt lat="62.637831579318" lon="17.975246484375">
        <ele>46.2</ele>
        <time>2018-02-15T17:51:42Z</time>
      </trkpt>
      <trkpt lat="62.637815318432" lon="17.97528294564">
        <ele>46.4</ele>
        <time>2018-02-15T17:51:43Z</time>
      </trkpt>
      <trkpt lat="62.63780291322" lon="17.975308845711">
        <ele>46.6</ele>
        <time>2018-02-15T17:51:44Z</time>
      </trkpt>
      <trkpt lat="62.637783802488" lon="17.975339355827">
        <ele>46.8</ele>
        <time>2018-02-15T17:51:45Z</time>
      </trkpt>
      <trkpt lat="62.637771816371" lon="17.975354862342">
        <ele>46.8</ele>
        <time>2018-02-15T17:51:46Z</time>
      </trkpt>
      <trkpt lat="62.637752370363" lon="17.975384618087">
        <ele>47</ele>
        <time>2018-02-15T17:51:47Z</time>
      </trkpt>
      <trkpt lat="62.637740132789" lon="17.975402471534">
        <ele>47.2</ele>
        <time>2018-02-15T17:51:48Z</time>
      </trkpt>
      <trkpt lat="62.637725715921" lon="17.9754120269">
        <ele>47.2</ele>
        <time>2018-02-15T17:51:49Z</time>
      </trkpt>
      <trkpt lat="62.637712137243" lon="17.975434825668">
        <ele>47.4</ele>
        <time>2018-02-15T17:51:50Z</time>
      </trkpt>
      <trkpt lat="62.637694283796" lon="17.975451086554">
        <ele>47.8</ele>
        <time>2018-02-15T17:51:51Z</time>
      </trkpt>
      <trkpt lat="62.637677017082" lon="17.975459300816">
        <ele>48</ele>
        <time>2018-02-15T17:51:52Z</time>
      </trkpt>
      <trkpt lat="62.637662348757" lon="17.975479752652">
        <ele>48.2</ele>
        <time>2018-02-15T17:51:53Z</time>
      </trkpt>
      <trkpt lat="62.637637622152" lon="17.975487966914">
        <ele>48.6</ele>
        <time>2018-02-15T17:51:54Z</time>
      </trkpt>
      <trkpt lat="62.637616667402" lon="17.975510262768">
        <ele>49</ele>
        <time>2018-02-15T17:51:55Z</time>
      </trkpt>
      <trkpt lat="62.637592862806" lon="17.975514956632">
        <ele>49</ele>
        <time>2018-02-15T17:51:56Z</time>
      </trkpt>
      <trkpt lat="62.637575260816" lon="17.975535827563">
        <ele>49.2</ele>
        <time>2018-02-15T17:51:57Z</time>
      </trkpt>
      <trkpt lat="62.637558329378" lon="17.975537839219">
        <ele>49.4</ele>
        <time>2018-02-15T17:51:58Z</time>
      </trkpt>
      <trkpt lat="62.637542319949" lon="17.975554603019">
        <ele>49.6</ele>
        <time>2018-02-15T17:51:59Z</time>
      </trkpt>
      <trkpt lat="62.637520359371" lon="17.975561140901">
        <ele>49.6</ele>
        <time>2018-02-15T17:52:00Z</time>
      </trkpt>
      <trkpt lat="62.637500661906" lon="17.975575893045">
        <ele>49.8</ele>
        <time>2018-02-15T17:52:01Z</time>
      </trkpt>
      <trkpt lat="62.637483479011" lon="17.975585029316">
        <ele>50</ele>
        <time>2018-02-15T17:52:02Z</time>
      </trkpt>
      <trkpt lat="62.637465625564" lon="17.975592908302">
        <ele>50.2</ele>
        <time>2018-02-15T17:52:03Z</time>
      </trkpt>
      <trkpt lat="62.637453807085" lon="17.975610007378">
        <ele>50.4</ele>
        <time>2018-02-15T17:52:04Z</time>
      </trkpt>
      <trkpt lat="62.637428577566" lon="17.975623753694">
        <ele>50.4</ele>
        <time>2018-02-15T17:52:05Z</time>
      </trkpt>
      <trkpt lat="62.637410053567" lon="17.975648731756">
        <ele>50.6</ele>
        <time>2018-02-15T17:52:06Z</time>
      </trkpt>
      <trkpt lat="62.637388512084" lon="17.975661304606">
        <ele>50.6</ele>
        <time>2018-02-15T17:52:07Z</time>
      </trkpt>
      <trkpt lat="62.637374430492" lon="17.975695251301">
        <ele>50.8</ele>
        <time>2018-02-15T17:52:08Z</time>
      </trkpt>
      <trkpt lat="62.63735699614" lon="17.975711763644">
        <ele>50.8</ele>
        <time>2018-02-15T17:52:09Z</time>
      </trkpt>
      <trkpt lat="62.637339142693" lon="17.975733305127">
        <ele>51</ele>
        <time>2018-02-15T17:52:10Z</time>
      </trkpt>
      <trkpt lat="62.637324474368" lon="17.975759540474">
        <ele>51.2</ele>
        <time>2018-02-15T17:52:11Z</time>
      </trkpt>
      <trkpt lat="62.637305782731" lon="17.975777561559">
        <ele>51.2</ele>
        <time>2018-02-15T17:52:12Z</time>
      </trkpt>
      <trkpt lat="62.637295389175" lon="17.975803210173">
        <ele>51.4</ele>
        <time>2018-02-15T17:52:13Z</time>
      </trkpt>
      <trkpt lat="62.637281475221" lon="17.975829110244">
        <ele>51.6</ele>
        <time>2018-02-15T17:52:14Z</time>
      </trkpt>
      <trkpt lat="62.637264962878" lon="17.975854088306">
        <ele>51.8</ele>
        <time>2018-02-15T17:52:15Z</time>
      </trkpt>
      <trkpt lat="62.637259179367" lon="17.975886358621">
        <ele>52</ele>
        <time>2018-02-15T17:52:16Z</time>
      </trkpt>
      <trkpt lat="62.637243337576" lon="17.975918712755">
        <ele>52.4</ele>
        <time>2018-02-15T17:52:17Z</time>
      </trkpt>
      <trkpt lat="62.637234368943" lon="17.975954671106">
        <ele>52.8</ele>
        <time>2018-02-15T17:52:18Z</time>
      </trkpt>
      <trkpt lat="62.637224981215" lon="17.975985181222">
        <ele>53</ele>
        <time>2018-02-15T17:52:19Z</time>
      </trkpt>
      <trkpt lat="62.637213498012" lon="17.976026587808">
        <ele>53.2</ele>
        <time>2018-02-15T17:52:20Z</time>
      </trkpt>
      <trkpt lat="62.63720612194" lon="17.976064054901">
        <ele>53.4</ele>
        <time>2018-02-15T17:52:21Z</time>
      </trkpt>
      <trkpt lat="62.637196315117" lon="17.976106383496">
        <ele>53.4</ele>
        <time>2018-02-15T17:52:22Z</time>
      </trkpt>
      <trkpt lat="62.637193381452" lon="17.976146784254">
        <ele>53.4</ele>
        <time>2018-02-15T17:52:23Z</time>
      </trkpt>
      <trkpt lat="62.637180305688" lon="17.976195566912">
        <ele>53.6</ele>
        <time>2018-02-15T17:52:24Z</time>
      </trkpt>
      <trkpt lat="62.637177120566" lon="17.976238733697">
        <ele>53.6</ele>
        <time>2018-02-15T17:52:25Z</time>
      </trkpt>
      <trkpt lat="62.637167816657" lon="17.97628206812">
        <ele>53.8</ele>
        <time>2018-02-15T17:52:26Z</time>
      </trkpt>
      <trkpt lat="62.637165553544" lon="17.976332108063">
        <ele>53.8</ele>
        <time>2018-02-15T17:52:27Z</time>
      </trkpt>
      <trkpt lat="62.637158261291" lon="17.976383405291">
        <ele>53.8</ele>
        <time>2018-02-15T17:52:28Z</time>
      </trkpt>
      <trkpt lat="62.637150633762" lon="17.976434870157">
        <ele>54</ele>
        <time>2018-02-15T17:52:29Z</time>
      </trkpt>
      <trkpt lat="62.637144850251" lon="17.976480300055">
        <ele>53.8</ele>
        <time>2018-02-15T17:52:30Z</time>
      </trkpt>
      <trkpt lat="62.637134708152" lon="17.976535285319">
        <ele>54</ele>
        <time>2018-02-15T17:52:31Z</time>
      </trkpt>
      <trkpt lat="62.63713236122" lon="17.976584738529">
        <ele>54</ele>
        <time>2018-02-15T17:52:32Z</time>
      </trkpt>
      <trkpt lat="62.637119201637" lon="17.976639053241">
        <ele>54</ele>
        <time>2018-02-15T17:52:33Z</time>
      </trkpt>
      <trkpt lat="62.637112077022" lon="17.976678364352">
        <ele>54.2</ele>
        <time>2018-02-15T17:52:34Z</time>
      </trkpt>
      <trkpt lat="62.637110149185" lon="17.976726225001">
        <ele>54.4</ele>
        <time>2018-02-15T17:52:35Z</time>
      </trkpt>
      <trkpt lat="62.637109059538" lon="17.976785401215">
        <ele>54.4</ele>
        <time>2018-02-15T17:52:36Z</time>
      </trkpt>
      <trkpt lat="62.637106880244" lon="17.97682605343">
        <ele>54.6</ele>
        <time>2018-02-15T17:52:37Z</time>
      </trkpt>
      <trkpt lat="62.637104281855" lon="17.976880451961">
        <ele>54.6</ele>
        <time>2018-02-15T17:52:38Z</time>
      </trkpt>
      <trkpt lat="62.637105455321" lon="17.97692663623">
        <ele>54.8</ele>
        <time>2018-02-15T17:52:39Z</time>
      </trkpt>
      <trkpt lat="62.63710470095" lon="17.976989081385">
        <ele>54.8</ele>
        <time>2018-02-15T17:52:40Z</time>
      </trkpt>
      <trkpt lat="62.637105706778" lon="17.977045407753">
        <ele>54.6</ele>
        <time>2018-02-15T17:52:41Z</time>
      </trkpt>
      <trkpt lat="62.637103192208" lon="17.977108355822">
        <ele>54.6</ele>
        <time>2018-02-15T17:52:42Z</time>
      </trkpt>
      <trkpt lat="62.637101264371" lon="17.977169543692">
        <ele>54.6</ele>
        <time>2018-02-15T17:52:43Z</time>
      </trkpt>
      <trkpt lat="62.637097241059" lon="17.97721748816">
        <ele>54.6</ele>
        <time>2018-02-15T17:52:44Z</time>
      </trkpt>
      <trkpt lat="62.637090619358" lon="17.977289069586">
        <ele>54.4</ele>
        <time>2018-02-15T17:52:45Z</time>
      </trkpt>
      <trkpt lat="62.637083913838" lon="17.977336259683">
        <ele>54.6</ele>
        <time>2018-02-15T17:52:46Z</time>
      </trkpt>
      <trkpt lat="62.637068239685" lon="17.977411612964">
        <ele>54.6</ele>
        <time>2018-02-15T17:52:47Z</time>
      </trkpt>
      <trkpt lat="62.637056672663" lon="17.977475985956">
        <ele>54.6</ele>
        <time>2018-02-15T17:52:48Z</time>
      </trkpt>
      <trkpt lat="62.637045273279" lon="17.977522170225">
        <ele>54.6</ele>
        <time>2018-02-15T17:52:49Z</time>
      </trkpt>
      <trkpt lat="62.637024486167" lon="17.977595176574">
        <ele>54.6</ele>
        <time>2018-02-15T17:52:50Z</time>
      </trkpt>
      <trkpt lat="62.637014427887" lon="17.977655190978">
        <ele>54.6</ele>
        <time>2018-02-15T17:52:51Z</time>
      </trkpt>
      <trkpt lat="62.637009314928" lon="17.977717971409">
        <ele>54.4</ele>
        <time>2018-02-15T17:52:52Z</time>
      </trkpt>
      <trkpt lat="62.636999340467" lon="17.977784691333">
        <ele>54.4</ele>
        <time>2018-02-15T17:52:53Z</time>
      </trkpt>
      <trkpt lat="62.636991126205" lon="17.977879742079">
        <ele>54.6</ele>
        <time>2018-02-15T17:52:55Z</time>
      </trkpt>
      <trkpt lat="62.636980397373" lon="17.97795760993">
        <ele>54.6</ele>
        <time>2018-02-15T17:52:56Z</time>
      </trkpt>
      <trkpt lat="62.63696807598" lon="17.978032125021">
        <ele>54.6</ele>
        <time>2018-02-15T17:52:57Z</time>
      </trkpt>
      <trkpt lat="62.636959945537" lon="17.978097000927">
        <ele>54.8</ele>
        <time>2018-02-15T17:52:58Z</time>
      </trkpt>
      <trkpt lat="62.636949384343" lon="17.978163134118">
        <ele>55</ele>
        <time>2018-02-15T17:52:59Z</time>
      </trkpt>
      <trkpt lat="62.63693203381" lon="17.978233877354">
        <ele>55.4</ele>
        <time>2018-02-15T17:53:00Z</time>
      </trkpt>
      <trkpt lat="62.636919209503" lon="17.978292718292">
        <ele>55.4</ele>
        <time>2018-02-15T17:53:01Z</time>
      </trkpt>
      <trkpt lat="62.636903451531" lon="17.978353067972">
        <ele>55.6</ele>
        <time>2018-02-15T17:53:02Z</time>
      </trkpt>
      <trkpt lat="62.636885765722" lon="17.978414255842">
        <ele>55.6</ele>
        <time>2018-02-15T17:53:03Z</time>
      </trkpt>
      <trkpt lat="62.636870426845" lon="17.978476700997">
        <ele>55.6</ele>
        <time>2018-02-15T17:53:04Z</time>
      </trkpt>
      <trkpt lat="62.636850897018" lon="17.97852087361">
        <ele>55.6</ele>
        <time>2018-02-15T17:53:05Z</time>
      </trkpt>
      <trkpt lat="62.636830780458" lon="17.978576277969">
        <ele>55.6</ele>
        <time>2018-02-15T17:53:06Z</time>
      </trkpt>
      <trkpt lat="62.636808149328" lon="17.9786222946">
        <ele>55.6</ele>
        <time>2018-02-15T17:53:07Z</time>
      </trkpt>
      <trkpt lat="62.636784931465" lon="17.978660935159">
        <ele>55.8</ele>
        <time>2018-02-15T17:53:08Z</time>
      </trkpt>
      <trkpt lat="62.63676104305" lon="17.978702090288">
        <ele>55.8</ele>
        <time>2018-02-15T17:53:09Z</time>
      </trkpt>
      <trkpt lat="62.636736903178" lon="17.978729834377">
        <ele>55.8</ele>
        <time>2018-02-15T17:53:10Z</time>
      </trkpt>
      <trkpt lat="62.6367065607" lon="17.978756405">
        <ele>55.6</ele>
        <time>2018-02-15T17:53:11Z</time>
      </trkpt>
      <trkpt lat="62.636679235706" lon="17.97877400699">
        <ele>55.8</ele>
        <time>2018-02-15T17:53:12Z</time>
      </trkpt>
      <trkpt lat="62.636652665083" lon="17.978783646175">
        <ele>55.8</ele>
        <time>2018-02-15T17:53:13Z</time>
      </trkpt>
      <trkpt lat="62.636630536867" lon="17.978791692799">
        <ele>55.8</ele>
        <time>2018-02-15T17:53:14Z</time>
      </trkpt>
      <trkpt lat="62.636603547149" lon="17.97879412355">
        <ele>56</ele>
        <time>2018-02-15T17:53:15Z</time>
      </trkpt>
      <trkpt lat="62.636577563259" lon="17.978791189885">
        <ele>56</ele>
        <time>2018-02-15T17:53:16Z</time>
      </trkpt>
      <trkpt lat="62.63655401012" lon="17.97879747631">
        <ele>56.2</ele>
        <time>2018-02-15T17:53:17Z</time>
      </trkpt>
      <trkpt lat="62.636528277687" lon="17.978796973396">
        <ele>56.4</ele>
        <time>2018-02-15T17:53:18Z</time>
      </trkpt>
      <trkpt lat="62.636506820023" lon="17.978797560129">
        <ele>56.4</ele>
        <time>2018-02-15T17:53:19Z</time>
      </trkpt>
      <trkpt lat="62.63648192578" lon="17.978794375007">
        <ele>56.6</ele>
        <time>2018-02-15T17:53:20Z</time>
      </trkpt>
      <trkpt lat="62.636462395953" lon="17.978795129378">
        <ele>56.8</ele>
        <time>2018-02-15T17:53:21Z</time>
      </trkpt>
      <trkpt lat="62.636444123411" lon="17.978794207369">
        <ele>56.8</ele>
        <time>2018-02-15T17:53:22Z</time>
      </trkpt>
      <trkpt lat="62.636424425946" lon="17.978799571785">
        <ele>57</ele>
        <time>2018-02-15T17:53:23Z</time>
      </trkpt>
      <trkpt lat="62.636406991594" lon="17.978807953685">
        <ele>57</ele>
        <time>2018-02-15T17:53:24Z</time>
      </trkpt>
      <trkpt lat="62.636386791215" lon="17.978814575386">
        <ele>57.2</ele>
        <time>2018-02-15T17:53:25Z</time>
      </trkpt>
      <trkpt lat="62.636370111234" lon="17.978828405521">
        <ele>57.2</ele>
        <time>2018-02-15T17:53:26Z</time>
      </trkpt>
      <trkpt lat="62.636351335778" lon="17.978840056362">
        <ele>57.4</ele>
        <time>2018-02-15T17:53:27Z</time>
      </trkpt>
      <trkpt lat="62.636333063236" lon="17.9788486059">
        <ele>57.8</ele>
        <time>2018-02-15T17:53:28Z</time>
      </trkpt>
      <trkpt lat="62.63631680235" lon="17.978860256741">
        <ele>58</ele>
        <time>2018-02-15T17:53:29Z</time>
      </trkpt>
      <trkpt lat="62.63629668579" lon="17.978878110188">
        <ele>58.2</ele>
        <time>2018-02-15T17:53:30Z</time>
      </trkpt>
      <trkpt lat="62.636276736868" lon="17.978897723834">
        <ele>58.6</ele>
        <time>2018-02-15T17:53:31Z</time>
      </trkpt>
      <trkpt lat="62.636255698299" lon="17.978918594765">
        <ele>58.8</ele>
        <time>2018-02-15T17:53:32Z</time>
      </trkpt>
      <trkpt lat="62.63623382154" lon="17.978937873135">
        <ele>59</ele>
        <time>2018-02-15T17:53:33Z</time>
      </trkpt>
      <trkpt lat="62.636213034428" lon="17.978959666075">
        <ele>59</ele>
        <time>2018-02-15T17:53:34Z</time>
      </trkpt>
      <trkpt lat="62.636203059967" lon="17.978978692988">
        <ele>59.4</ele>
        <time>2018-02-15T17:53:35Z</time>
      </trkpt>
      <trkpt lat="62.63618772109" lon="17.978993780408">
        <ele>59.6</ele>
        <time>2018-02-15T17:53:36Z</time>
      </trkpt>
      <trkpt lat="62.636174980602" lon="17.979011382398">
        <ele>59.8</ele>
        <time>2018-02-15T17:53:37Z</time>
      </trkpt>
      <trkpt lat="62.63616508996" lon="17.979028649112">
        <ele>60</ele>
        <time>2018-02-15T17:53:38Z</time>
      </trkpt>
      <trkpt lat="62.636154947861" lon="17.97904893331">
        <ele>60.4</ele>
        <time>2018-02-15T17:53:39Z</time>
      </trkpt>
      <trkpt lat="62.636142794106" lon="17.979071648259">
        <ele>60.6</ele>
        <time>2018-02-15T17:53:40Z</time>
      </trkpt>
      <trkpt lat="62.636129634523" lon="17.979098973253">
        <ele>60.8</ele>
        <time>2018-02-15T17:53:41Z</time>
      </trkpt>
      <trkpt lat="62.636119324786" lon="17.97912688498">
        <ele>61.2</ele>
        <time>2018-02-15T17:53:42Z</time>
      </trkpt>
      <trkpt lat="62.636106584298" lon="17.979151946861">
        <ele>61.8</ele>
        <time>2018-02-15T17:53:43Z</time>
      </trkpt>
      <trkpt lat="62.636096190742" lon="17.979181954063">
        <ele>62.2</ele>
        <time>2018-02-15T17:53:44Z</time>
      </trkpt>
      <trkpt lat="62.63608462372" lon="17.97922411502">
        <ele>62.8</ele>
        <time>2018-02-15T17:53:45Z</time>
      </trkpt>
      <trkpt lat="62.636072469965" lon="17.979261749751">
        <ele>63</ele>
        <time>2018-02-15T17:53:46Z</time>
      </trkpt>
      <trkpt lat="62.636060232391" lon="17.979290667306">
        <ele>63.2</ele>
        <time>2018-02-15T17:53:47Z</time>
      </trkpt>
      <trkpt lat="62.636048413912" lon="17.979327631485">
        <ele>63.4</ele>
        <time>2018-02-15T17:53:48Z</time>
      </trkpt>
      <trkpt lat="62.636038187994" lon="17.979369457166">
        <ele>63.4</ele>
        <time>2018-02-15T17:53:49Z</time>
      </trkpt>
      <trkpt lat="62.636032320664" lon="17.979415557616">
        <ele>63.6</ele>
        <time>2018-02-15T17:53:50Z</time>
      </trkpt>
      <trkpt lat="62.636030057551" lon="17.97947138107">
        <ele>63.6</ele>
        <time>2018-02-15T17:53:51Z</time>
      </trkpt>
      <trkpt lat="62.636027794438" lon="17.979539777374">
        <ele>63.6</ele>
        <time>2018-02-15T17:53:52Z</time>
      </trkpt>
      <trkpt lat="62.636023352031" lon="17.97962896079">
        <ele>63.6</ele>
        <time>2018-02-15T17:53:53Z</time>
      </trkpt>
      <trkpt lat="62.636017652339" lon="17.979741194431">
        <ele>63.4</ele>
        <time>2018-02-15T17:53:54Z</time>
      </trkpt>
      <trkpt lat="62.636014467217" lon="17.979882764722">
        <ele>63.2</ele>
        <time>2018-02-15T17:53:55Z</time>
      </trkpt>
      <trkpt lat="62.636016227416" lon="17.980018551502">
        <ele>62.8</ele>
        <time>2018-02-15T17:53:56Z</time>
      </trkpt>
      <trkpt lat="62.636021340375" lon="17.980154086825">
        <ele>62.4</ele>
        <time>2018-02-15T17:53:57Z</time>
      </trkpt>
      <trkpt lat="62.636027962076" lon="17.980287023759">
        <ele>62</ele>
        <time>2018-02-15T17:53:58Z</time>
      </trkpt>
      <trkpt lat="62.636046486075" lon="17.980411327336">
        <ele>61.6</ele>
        <time>2018-02-15T17:53:59Z</time>
      </trkpt>
      <trkpt lat="62.63606785992" lon="17.980544348089">
        <ele>60.6</ele>
        <time>2018-02-15T17:54:00Z</time>
      </trkpt>
      <trkpt lat="62.636086132462" lon="17.980660521223">
        <ele>59.8</ele>
        <time>2018-02-15T17:54:01Z</time>
      </trkpt>
      <trkpt lat="62.636104991737" lon="17.980768228638">
        <ele>58.8</ele>
        <time>2018-02-15T17:54:02Z</time>
      </trkpt>
      <trkpt lat="62.636125024478" lon="17.980875097863">
        <ele>57.8</ele>
        <time>2018-02-15T17:54:03Z</time>
      </trkpt>
      <trkpt lat="62.636145057219" lon="17.980981547993">
        <ele>57.4</ele>
        <time>2018-02-15T17:54:04Z</time>
      </trkpt>
      <trkpt lat="62.636159725544" lon="17.981082046974">
        <ele>56.8</ele>
        <time>2018-02-15T17:54:05Z</time>
      </trkpt>
      <trkpt lat="62.636177243715" lon="17.981188245647">
        <ele>56.4</ele>
        <time>2018-02-15T17:54:06Z</time>
      </trkpt>
      <trkpt lat="62.636190654755" lon="17.98129109156">
        <ele>56.2</ele>
        <time>2018-02-15T17:54:07Z</time>
      </trkpt>
      <trkpt lat="62.636202557053" lon="17.981390333256">
        <ele>56.2</ele>
        <time>2018-02-15T17:54:08Z</time>
      </trkpt>
      <trkpt lat="62.636211358048" lon="17.981477421197">
        <ele>56</ele>
        <time>2018-02-15T17:54:09Z</time>
      </trkpt>
      <trkpt lat="62.636214124075" lon="17.981568197174">
        <ele>55.8</ele>
        <time>2018-02-15T17:54:10Z</time>
      </trkpt>
      <trkpt lat="62.636222003061" lon="17.981656039486">
        <ele>55.8</ele>
        <time>2018-02-15T17:54:11Z</time>
      </trkpt>
      <trkpt lat="62.636231223151" lon="17.981740109943">
        <ele>55.8</ele>
        <time>2018-02-15T17:54:12Z</time>
      </trkpt>
      <trkpt lat="62.636239856508" lon="17.981817223423">
        <ele>56</ele>
        <time>2018-02-15T17:54:13Z</time>
      </trkpt>
      <trkpt lat="62.636249160417" lon="17.981888134297">
        <ele>56.2</ele>
        <time>2018-02-15T17:54:14Z</time>
      </trkpt>
      <trkpt lat="62.636255446842" lon="17.981984442328">
        <ele>56.4</ele>
        <time>2018-02-15T17:54:15Z</time>
      </trkpt>
      <trkpt lat="62.636271288633" lon="17.982062477817">
        <ele>56.4</ele>
        <time>2018-02-15T17:54:16Z</time>
      </trkpt>
      <trkpt lat="62.636285873139" lon="17.982143782247">
        <ele>56.6</ele>
        <time>2018-02-15T17:54:17Z</time>
      </trkpt>
      <trkpt lat="62.636296937247" lon="17.982227265971">
        <ele>56.6</ele>
        <time>2018-02-15T17:54:18Z</time>
      </trkpt>
      <trkpt lat="62.636310432106" lon="17.982311252609">
        <ele>56.6</ele>
        <time>2018-02-15T17:54:19Z</time>
      </trkpt>
      <trkpt lat="62.636315293608" lon="17.982374787411">
        <ele>56.4</ele>
        <time>2018-02-15T17:54:20Z</time>
      </trkpt>
      <trkpt lat="62.63631764054" lon="17.982455924203">
        <ele>56.4</ele>
        <time>2018-02-15T17:54:21Z</time>
      </trkpt>
      <trkpt lat="62.63631680235" lon="17.982526080706">
        <ele>56.2</ele>
        <time>2018-02-15T17:54:22Z</time>
      </trkpt>
      <trkpt lat="62.636318814006" lon="17.982593555001">
        <ele>56.2</ele>
        <time>2018-02-15T17:54:23Z</time>
      </trkpt>
      <trkpt lat="62.636310180649" lon="17.982669830291">
        <ele>56.2</ele>
        <time>2018-02-15T17:54:24Z</time>
      </trkpt>
      <trkpt lat="62.636303978043" lon="17.982742082269">
        <ele>56.4</ele>
        <time>2018-02-15T17:54:25Z</time>
      </trkpt>
      <trkpt lat="62.636300457645" lon="17.982814585704">
        <ele>56.4</ele>
        <time>2018-02-15T17:54:26Z</time>
      </trkpt>
      <trkpt lat="62.636299870912" lon="17.982873175185">
        <ele>56.6</ele>
        <time>2018-02-15T17:54:27Z</time>
      </trkpt>
      <trkpt lat="62.636296769609" lon="17.982935368883">
        <ele>56.6</ele>
        <time>2018-02-15T17:54:28Z</time>
      </trkpt>
      <trkpt lat="62.636293165392" lon="17.983006950309">
        <ele>56.6</ele>
        <time>2018-02-15T17:54:29Z</time>
      </trkpt>
      <trkpt lat="62.636292411021" lon="17.983065036876">
        <ele>56.6</ele>
        <time>2018-02-15T17:54:30Z</time>
      </trkpt>
      <trkpt lat="62.636291572831" lon="17.983128990773">
        <ele>56.6</ele>
        <time>2018-02-15T17:54:31Z</time>
      </trkpt>
      <trkpt lat="62.636292075745" lon="17.983186071512">
        <ele>56.8</ele>
        <time>2018-02-15T17:54:32Z</time>
      </trkpt>
      <trkpt lat="62.636292830116" lon="17.983251366513">
        <ele>56.8</ele>
        <time>2018-02-15T17:54:33Z</time>
      </trkpt>
      <trkpt lat="62.636292997754" lon="17.983326803613">
        <ele>57</ele>
        <time>2018-02-15T17:54:34Z</time>
      </trkpt>
      <trkpt lat="62.636301882568" lon="17.983384722542">
        <ele>57</ele>
        <time>2018-02-15T17:54:35Z</time>
      </trkpt>
      <trkpt lat="62.636303726586" lon="17.983447838249">
        <ele>57</ele>
        <time>2018-02-15T17:54:36Z</time>
      </trkpt>
      <trkpt lat="62.636300541464" lon="17.983502739694">
        <ele>57</ele>
        <time>2018-02-15T17:54:37Z</time>
      </trkpt>
      <trkpt lat="62.636298026894" lon="17.983551354714">
        <ele>57</ele>
        <time>2018-02-15T17:54:38Z</time>
      </trkpt>
      <trkpt lat="62.636287298062" lon="17.983604831236">
        <ele>57</ele>
        <time>2018-02-15T17:54:39Z</time>
      </trkpt>
      <trkpt lat="62.636285537863" lon="17.983637520646">
        <ele>57</ele>
        <time>2018-02-15T17:54:40Z</time>
      </trkpt>
      <trkpt lat="62.63627740742" lon="17.98368077125">
        <ele>57</ele>
        <time>2018-02-15T17:54:41Z</time>
      </trkpt>
      <trkpt lat="62.636267935873" lon="17.98372770989">
        <ele>57.2</ele>
        <time>2018-02-15T17:54:42Z</time>
      </trkpt>
      <trkpt lat="62.636260224525" lon="17.983771044313">
        <ele>57.4</ele>
        <time>2018-02-15T17:54:43Z</time>
      </trkpt>
      <trkpt lat="62.636256033575" lon="17.983811193614">
        <ele>57.6</ele>
        <time>2018-02-15T17:54:44Z</time>
      </trkpt>
      <trkpt lat="62.63624723258" lon="17.983862490842">
        <ele>58</ele>
        <time>2018-02-15T17:54:45Z</time>
      </trkpt>
      <trkpt lat="62.636238263947" lon="17.983910016215">
        <ele>58</ele>
        <time>2018-02-15T17:54:46Z</time>
      </trkpt>
      <trkpt lat="62.636226445468" lon="17.983964414746">
        <ele>58</ele>
        <time>2018-02-15T17:54:47Z</time>
      </trkpt>
      <trkpt lat="62.636218482663" lon="17.984011437205">
        <ele>58.2</ele>
        <time>2018-02-15T17:54:48Z</time>
      </trkpt>
      <trkpt lat="62.636213034428" lon="17.984053849619">
        <ele>58.2</ele>
        <time>2018-02-15T17:54:49Z</time>
      </trkpt>
      <trkpt lat="62.63620699946" lon="17.984112271462">
        <ele>58.2</ele>
        <time>2018-02-15T17:54:50Z</time>
      </trkpt>
      <trkpt lat="62.636202305596" lon="17.984164155423">
        <ele>58.2</ele>
        <time>2018-02-15T17:54:51Z</time>
      </trkpt>
      <trkpt lat="62.636200042483" lon="17.98421888923">
        <ele>58.2</ele>
        <time>2018-02-15T17:54:52Z</time>
      </trkpt>
      <trkpt lat="62.63620280851" lon="17.984269767363">
        <ele>58.2</ele>
        <time>2018-02-15T17:54:53Z</time>
      </trkpt>
      <trkpt lat="62.636194845705" lon="17.984317292736">
        <ele>58.4</ele>
        <time>2018-02-15T17:54:54Z</time>
      </trkpt>
      <trkpt lat="62.636193169325" lon="17.984387030144">
        <ele>58.4</ele>
        <time>2018-02-15T17:54:55Z</time>
      </trkpt>
      <trkpt lat="62.636191995859" lon="17.984444613797">
        <ele>58.4</ele>
        <time>2018-02-15T17:54:56Z</time>
      </trkpt>
      <trkpt lat="62.636187972547" lon="17.984503622373">
        <ele>58.6</ele>
        <time>2018-02-15T17:54:57Z</time>
      </trkpt>
      <trkpt lat="62.636183781597" lon="17.984552991764">
        <ele>58.6</ele>
        <time>2018-02-15T17:54:58Z</time>
      </trkpt>
      <trkpt lat="62.636181602303" lon="17.984600768594">
        <ele>58.6</ele>
        <time>2018-02-15T17:54:59Z</time>
      </trkpt>
      <trkpt lat="62.636177746629" lon="17.984662459378">
        <ele>58.8</ele>
        <time>2018-02-15T17:55:00Z</time>
      </trkpt>
      <trkpt lat="62.636176573163" lon="17.984718282832">
        <ele>58.8</ele>
        <time>2018-02-15T17:55:01Z</time>
      </trkpt>
      <trkpt lat="62.636170789652" lon="17.984772681363">
        <ele>59</ele>
        <time>2018-02-15T17:55:02Z</time>
      </trkpt>
      <trkpt lat="62.636165509055" lon="17.98481484232">
        <ele>59</ele>
        <time>2018-02-15T17:55:03Z</time>
      </trkpt>
      <trkpt lat="62.63616508996" lon="17.984855578354">
        <ele>59</ele>
        <time>2018-02-15T17:55:04Z</time>
      </trkpt>
      <trkpt lat="62.636156121327" lon="17.984907127039">
        <ele>59.2</ele>
        <time>2018-02-15T17:55:05Z</time>
      </trkpt>
      <trkpt lat="62.636152684748" lon="17.984956664068">
        <ele>59.4</ele>
        <time>2018-02-15T17:55:06Z</time>
      </trkpt>
      <trkpt lat="62.636149751083" lon="17.985011230237">
        <ele>59.4</ele>
        <time>2018-02-15T17:55:07Z</time>
      </trkpt>
      <trkpt lat="62.636151176006" lon="17.985062276008">
        <ele>59.4</ele>
        <time>2018-02-15T17:55:08Z</time>
      </trkpt>
      <trkpt lat="62.636145392495" lon="17.985099407825">
        <ele>59.6</ele>
        <time>2018-02-15T17:55:09Z</time>
      </trkpt>
      <trkpt lat="62.636143464658" lon="17.985167385034">
        <ele>59.8</ele>
        <time>2018-02-15T17:55:10Z</time>
      </trkpt>
      <trkpt lat="62.636143129382" lon="17.985223124669">
        <ele>59.8</ele>
        <time>2018-02-15T17:55:11Z</time>
      </trkpt>
      <trkpt lat="62.636138603156" lon="17.985283725806">
        <ele>60</ele>
        <time>2018-02-15T17:55:12Z</time>
      </trkpt>
      <trkpt lat="62.636134328387" lon="17.985337705242">
        <ele>60</ele>
        <time>2018-02-15T17:55:13Z</time>
      </trkpt>
      <trkpt lat="62.636131981455" lon="17.985385817348">
        <ele>60.2</ele>
        <time>2018-02-15T17:55:14Z</time>
      </trkpt>
      <trkpt lat="62.63612066589" lon="17.985444406829">
        <ele>60.4</ele>
        <time>2018-02-15T17:55:15Z</time>
      </trkpt>
      <trkpt lat="62.636111864895" lon="17.985491764564">
        <ele>60.6</ele>
        <time>2018-02-15T17:55:16Z</time>
      </trkpt>
      <trkpt lat="62.636100633149" lon="17.985544738172">
        <ele>60.6</ele>
        <time>2018-02-15T17:55:17Z</time>
      </trkpt>
      <trkpt lat="62.636097615665" lon="17.985601567454">
        <ele>60.6</ele>
        <time>2018-02-15T17:55:18Z</time>
      </trkpt>
      <trkpt lat="62.636094179086" lon="17.985663677333">
        <ele>60.6</ele>
        <time>2018-02-15T17:55:19Z</time>
      </trkpt>
      <trkpt lat="62.636075990363" lon="17.985711286525">
        <ele>60.8</ele>
        <time>2018-02-15T17:55:20Z</time>
      </trkpt>
      <trkpt lat="62.636056795812" lon="17.985764343952">
        <ele>60.8</ele>
        <time>2018-02-15T17:55:21Z</time>
      </trkpt>
      <trkpt lat="62.636039529098" lon="17.98581480299">
        <ele>60.8</ele>
        <time>2018-02-15T17:55:22Z</time>
      </trkpt>
      <trkpt lat="62.636024944592" lon="17.985866267856">
        <ele>60.8</ele>
        <time>2018-02-15T17:55:23Z</time>
      </trkpt>
      <trkpt lat="62.63599829015" lon="17.985898454352">
        <ele>60.8</ele>
        <time>2018-02-15T17:55:24Z</time>
      </trkpt>
      <trkpt lat="62.635975910477" lon="17.985941285861">
        <ele>61</ele>
        <time>2018-02-15T17:55:25Z</time>
      </trkpt>
      <trkpt lat="62.635949926587" lon="17.985968778493">
        <ele>61</ele>
        <time>2018-02-15T17:55:26Z</time>
      </trkpt>
      <trkpt lat="62.635925451439" lon="17.985998115143">
        <ele>61.2</ele>
        <time>2018-02-15T17:55:27Z</time>
      </trkpt>
      <trkpt lat="62.635901227748" lon="17.986017225875">
        <ele>61.2</ele>
        <time>2018-02-15T17:55:28Z</time>
      </trkpt>
      <trkpt lat="62.635875830591" lon="17.986027451793">
        <ele>61.4</ele>
        <time>2018-02-15T17:55:29Z</time>
      </trkpt>
      <trkpt lat="62.635864515026" lon="17.986048406543">
        <ele>61.4</ele>
        <time>2018-02-15T17:55:30Z</time>
      </trkpt>
      <trkpt lat="62.635832160892" lon="17.986066679085">
        <ele>61.6</ele>
        <time>2018-02-15T17:55:31Z</time>
      </trkpt>
      <trkpt lat="62.635809529762" lon="17.98608470017">
        <ele>61.6</ele>
        <time>2018-02-15T17:55:32Z</time>
      </trkpt>
      <trkpt lat="62.635786982451" lon="17.986105068187">
        <ele>61.8</ele>
        <time>2018-02-15T17:55:33Z</time>
      </trkpt>
      <trkpt lat="62.635769129004" lon="17.986130884439">
        <ele>61.8</ele>
        <time>2018-02-15T17:55:34Z</time>
      </trkpt>
      <trkpt lat="62.635745743503" lon="17.98616181365">
        <ele>62</ele>
        <time>2018-02-15T17:55:35Z</time>
      </trkpt>
      <trkpt lat="62.635728979703" lon="17.986193245775">
        <ele>62</ele>
        <time>2018-02-15T17:55:36Z</time>
      </trkpt>
      <trkpt lat="62.635715317206" lon="17.986227611565">
        <ele>62</ele>
        <time>2018-02-15T17:55:37Z</time>
      </trkpt>
      <trkpt lat="62.635702492899" lon="17.986260468613">
        <ele>62</ele>
        <time>2018-02-15T17:55:38Z</time>
      </trkpt>
      <trkpt lat="62.63568564528" lon="17.986286620141">
        <ele>62.2</ele>
        <time>2018-02-15T17:55:39Z</time>
      </trkpt>
      <trkpt lat="62.63566888148" lon="17.986320315379">
        <ele>62.4</ele>
        <time>2018-02-15T17:55:40Z</time>
      </trkpt>
      <trkpt lat="62.635651111852" lon="17.986358704481">
        <ele>62.4</ele>
        <time>2018-02-15T17:55:41Z</time>
      </trkpt>
      <trkpt lat="62.635633258405" lon="17.986398267049">
        <ele>62.6</ele>
        <time>2018-02-15T17:55:42Z</time>
      </trkpt>
      <trkpt lat="62.635617332795" lon="17.986441852929">
        <ele>62.8</ele>
        <time>2018-02-15T17:55:43Z</time>
      </trkpt>
      <trkpt lat="62.635605765773" lon="17.986491725234">
        <ele>63</ele>
        <time>2018-02-15T17:55:44Z</time>
      </trkpt>
      <trkpt lat="62.635583218462" lon="17.986517960581">
        <ele>63.2</ele>
        <time>2018-02-15T17:55:45Z</time>
      </trkpt>
      <trkpt lat="62.635565951748" lon="17.986574873682">
        <ele>63.4</ele>
        <time>2018-02-15T17:55:46Z</time>
      </trkpt>
      <trkpt lat="62.635549690862" lon="17.986617872829">
        <ele>63.4</ele>
        <time>2018-02-15T17:55:47Z</time>
      </trkpt>
      <trkpt lat="62.635535860727" lon="17.986662883632">
        <ele>63.6</ele>
        <time>2018-02-15T17:55:48Z</time>
      </trkpt>
      <trkpt lat="62.635530077216" lon="17.986710157548">
        <ele>63.6</ele>
        <time>2018-02-15T17:55:49Z</time>
      </trkpt>
      <trkpt lat="62.635506859353" lon="17.986736728171">
        <ele>63.8</ele>
        <time>2018-02-15T17:55:50Z</time>
      </trkpt>
      <trkpt lat="62.635495040874" lon="17.9867695014">
        <ele>63.8</ele>
        <time>2018-02-15T17:55:51Z</time>
      </trkpt>
      <trkpt lat="62.63548112692" lon="17.986805795027">
        <ele>63.8</ele>
        <time>2018-02-15T17:55:52Z</time>
      </trkpt>
      <trkpt lat="62.635466207138" lon="17.986852985124">
        <ele>64</ele>
        <time>2018-02-15T17:55:53Z</time>
      </trkpt>
      <trkpt lat="62.635456148858" lon="17.986903025067">
        <ele>64.2</ele>
        <time>2018-02-15T17:55:54Z</time>
      </trkpt>
      <trkpt lat="62.635433182452" lon="17.986943677282">
        <ele>64.2</ele>
        <time>2018-02-15T17:55:55Z</time>
      </trkpt>
      <trkpt lat="62.635417256842" lon="17.986988771904">
        <ele>64.2</ele>
        <time>2018-02-15T17:55:56Z</time>
      </trkpt>
      <trkpt lat="62.635396888825" lon="17.987031100499">
        <ele>64.4</ele>
        <time>2018-02-15T17:55:57Z</time>
      </trkpt>
      <trkpt lat="62.635380292663" lon="17.987067394126">
        <ele>64.4</ele>
        <time>2018-02-15T17:55:58Z</time>
      </trkpt>
      <trkpt lat="62.635369982926" lon="17.987103352477">
        <ele>64.4</ele>
        <time>2018-02-15T17:55:59Z</time>
      </trkpt>
      <trkpt lat="62.635343915217" lon="17.987136460982">
        <ele>64.4</ele>
        <time>2018-02-15T17:56:00Z</time>
      </trkpt>
      <trkpt lat="62.635324636847" lon="17.987182393794">
        <ele>64.6</ele>
        <time>2018-02-15T17:56:01Z</time>
      </trkpt>
      <trkpt lat="62.635304101192" lon="17.987221621086">
        <ele>64.6</ele>
        <time>2018-02-15T17:56:02Z</time>
      </trkpt>
      <trkpt lat="62.635285241917" lon="17.987258836722">
        <ele>64.8</ele>
        <time>2018-02-15T17:56:03Z</time>
      </trkpt>
      <trkpt lat="62.635267556108" lon="17.987293118693">
        <ele>64.8</ele>
        <time>2018-02-15T17:56:04Z</time>
      </trkpt>
      <trkpt lat="62.635243583874" lon="17.987343745369">
        <ele>65.2</ele>
        <time>2018-02-15T17:56:05Z</time>
      </trkpt>
      <trkpt lat="62.635225395151" lon="17.987380038996">
        <ele>65.2</ele>
        <time>2018-02-15T17:56:06Z</time>
      </trkpt>
      <trkpt lat="62.635206619695" lon="17.987416919356">
        <ele>65.4</ele>
        <time>2018-02-15T17:56:07Z</time>
      </trkpt>
      <trkpt lat="62.635186670773" lon="17.98745346444">
        <ele>65.4</ele>
        <time>2018-02-15T17:56:08Z</time>
      </trkpt>
      <trkpt lat="62.635165045471" lon="17.987485567117">
        <ele>65.6</ele>
        <time>2018-02-15T17:56:09Z</time>
      </trkpt>
      <trkpt lat="62.635148533128" lon="17.987526806065">
        <ele>65.4</ele>
        <time>2018-02-15T17:56:10Z</time>
      </trkpt>
      <trkpt lat="62.635127578378" lon="17.987558322009">
        <ele>65.8</ele>
        <time>2018-02-15T17:56:11Z</time>
      </trkpt>
      <trkpt lat="62.635109641112" lon="17.987591598152">
        <ele>66</ele>
        <time>2018-02-15T17:56:12Z</time>
      </trkpt>
      <trkpt lat="62.635091536208" lon="17.98762948434">
        <ele>66</ele>
        <time>2018-02-15T17:56:13Z</time>
      </trkpt>
      <trkpt lat="62.635072174019" lon="17.987665861786">
        <ele>66.2</ele>
        <time>2018-02-15T17:56:14Z</time>
      </trkpt>
      <trkpt lat="62.635057170418" lon="17.987694108789">
        <ele>66.4</ele>
        <time>2018-02-15T17:56:15Z</time>
      </trkpt>
      <trkpt lat="62.635038981695" lon="17.987732833167">
        <ele>66.4</ele>
        <time>2018-02-15T17:56:16Z</time>
      </trkpt>
      <trkpt lat="62.635019116592" lon="17.987762588912">
        <ele>66.8</ele>
        <time>2018-02-15T17:56:17Z</time>
      </trkpt>
      <trkpt lat="62.63500000586" lon="17.987794104856">
        <ele>66.8</ele>
        <time>2018-02-15T17:56:18Z</time>
      </trkpt>
      <trkpt lat="62.634979386386" lon="17.987823022411">
        <ele>66.8</ele>
        <time>2018-02-15T17:56:19Z</time>
      </trkpt>
      <trkpt lat="62.634958683093" lon="17.987862417341">
        <ele>67</ele>
        <time>2018-02-15T17:56:20Z</time>
      </trkpt>
      <trkpt lat="62.634938566533" lon="17.987892005448">
        <ele>67.2</ele>
        <time>2018-02-15T17:56:21Z</time>
      </trkpt>
      <trkpt lat="62.63491870143" lon="17.987918995166">
        <ele>67.2</ele>
        <time>2018-02-15T17:56:22Z</time>
      </trkpt>
      <trkpt lat="62.634903194915" lon="17.98793542369">
        <ele>67.4</ele>
        <time>2018-02-15T17:56:23Z</time>
      </trkpt>
      <trkpt lat="62.63488265926" lon="17.987947912721">
        <ele>67.4</ele>
        <time>2018-02-15T17:56:24Z</time>
      </trkpt>
      <trkpt lat="62.63486757184" lon="17.987982446149">
        <ele>67.6</ele>
        <time>2018-02-15T17:56:25Z</time>
      </trkpt>
      <trkpt lat="62.634845192167" lon="17.988009854962">
        <ele>67.6</ele>
        <time>2018-02-15T17:56:26Z</time>
      </trkpt>
      <trkpt lat="62.634822477218" lon="17.988031564083">
        <ele>67.8</ele>
        <time>2018-02-15T17:56:27Z</time>
      </trkpt>
      <trkpt lat="62.63479967845" lon="17.988045897132">
        <ele>67.8</ele>
        <time>2018-02-15T17:56:28Z</time>
      </trkpt>
      <trkpt lat="62.634777969329" lon="17.988061822742">
        <ele>68</ele>
        <time>2018-02-15T17:56:29Z</time>
      </trkpt>
      <trkpt lat="62.63476028352" lon="17.988078837999">
        <ele>68.2</ele>
        <time>2018-02-15T17:56:30Z</time>
      </trkpt>
      <trkpt lat="62.634725666273" lon="17.988093171048">
        <ele>68.6</ele>
        <time>2018-02-15T17:56:31Z</time>
      </trkpt>
      <trkpt lat="62.634699682383" lon="17.988105660079">
        <ele>68.6</ele>
        <time>2018-02-15T17:56:32Z</time>
      </trkpt>
      <trkpt lat="62.634677889443" lon="17.988126111915">
        <ele>69</ele>
        <time>2018-02-15T17:56:33Z</time>
      </trkpt>
      <trkpt lat="62.63466221529" lon="17.988155783841">
        <ele>69</ele>
        <time>2018-02-15T17:56:34Z</time>
      </trkpt>
      <trkpt lat="62.63463455502" lon="17.988141786068">
        <ele>69.2</ele>
        <time>2018-02-15T17:56:35Z</time>
      </trkpt>
      <trkpt lat="62.634610415148" lon="17.988146312294">
        <ele>69.4</ele>
        <time>2018-02-15T17:56:36Z</time>
      </trkpt>
      <trkpt lat="62.634585353267" lon="17.988161315895">
        <ele>69.6</ele>
        <time>2018-02-15T17:56:37Z</time>
      </trkpt>
      <trkpt lat="62.634562973594" lon="17.988179420799">
        <ele>69.6</ele>
        <time>2018-02-15T17:56:38Z</time>
      </trkpt>
      <trkpt lat="62.634542102663" lon="17.988195597866">
        <ele>69.4</ele>
        <time>2018-02-15T17:56:39Z</time>
      </trkpt>
      <trkpt lat="62.634512766013" lon="17.988198531531">
        <ele>69.4</ele>
        <time>2018-02-15T17:56:40Z</time>
      </trkpt>
      <trkpt lat="62.634487285037" lon="17.988200710825">
        <ele>69.6</ele>
        <time>2018-02-15T17:56:41Z</time>
      </trkpt>
      <trkpt lat="62.634454847084" lon="17.988197274246">
        <ele>69.6</ele>
        <time>2018-02-15T17:56:42Z</time>
      </trkpt>
      <trkpt lat="62.634425929529" lon="17.988197693341">
        <ele>69.6</ele>
        <time>2018-02-15T17:56:43Z</time>
      </trkpt>
      <trkpt lat="62.634401957295" lon="17.988198866807">
        <ele>69.6</ele>
        <time>2018-02-15T17:56:44Z</time>
      </trkpt>
      <trkpt lat="62.634381086364" lon="17.988200543187">
        <ele>69.6</ele>
        <time>2018-02-15T17:56:45Z</time>
      </trkpt>
      <trkpt lat="62.634352587904" lon="17.988213786589">
        <ele>69.8</ele>
        <time>2018-02-15T17:56:46Z</time>
      </trkpt>
      <trkpt lat="62.634326687833" lon="17.988218815729">
        <ele>69.8</ele>
        <time>2018-02-15T17:56:47Z</time>
      </trkpt>
      <trkpt lat="62.634300620124" lon="17.988224515421">
        <ele>69.8</ele>
        <time>2018-02-15T17:56:48Z</time>
      </trkpt>
      <trkpt lat="62.63427413332" lon="17.988227952">
        <ele>70</ele>
        <time>2018-02-15T17:56:49Z</time>
      </trkpt>
      <trkpt lat="62.634238426426" lon="17.98823884847">
        <ele>70.2</ele>
        <time>2018-02-15T17:56:50Z</time>
      </trkpt>
      <trkpt lat="62.634209257414" lon="17.988234573701">
        <ele>70.2</ele>
        <time>2018-02-15T17:56:51Z</time>
      </trkpt>
      <trkpt lat="62.634182100058" lon="17.988220995023">
        <ele>70.4</ele>
        <time>2018-02-15T17:56:52Z</time>
      </trkpt>
      <trkpt lat="62.634159971842" lon="17.988229963656">
        <ele>70.6</ele>
        <time>2018-02-15T17:56:53Z</time>
      </trkpt>
      <trkpt lat="62.63413247921" lon="17.988211439657">
        <ele>70.6</ele>
        <time>2018-02-15T17:56:54Z</time>
      </trkpt>
      <trkpt lat="62.634109680442" lon="17.988217139349">
        <ele>70.6</ele>
        <time>2018-02-15T17:56:55Z</time>
      </trkpt>
      <trkpt lat="62.634080008516" lon="17.988207416345">
        <ele>70.6</ele>
        <time>2018-02-15T17:56:56Z</time>
      </trkpt>
      <trkpt lat="62.634054024626" lon="17.988194927314">
        <ele>70.6</ele>
        <time>2018-02-15T17:56:57Z</time>
      </trkpt>
      <trkpt lat="62.634026951089" lon="17.988187467423">
        <ele>70.6</ele>
        <time>2018-02-15T17:56:58Z</time>
      </trkpt>
      <trkpt lat="62.633999039362" lon="17.988184869034">
        <ele>70.6</ele>
        <time>2018-02-15T17:56:59Z</time>
      </trkpt>
      <trkpt lat="62.63397909044" lon="17.988175648944">
        <ele>70.6</ele>
        <time>2018-02-15T17:57:00Z</time>
      </trkpt>
      <trkpt lat="62.633949334695" lon="17.988163662827">
        <ele>70.6</ele>
        <time>2018-02-15T17:57:01Z</time>
      </trkpt>
      <trkpt lat="62.633924524271" lon="17.988149748873">
        <ele>70.8</ele>
        <time>2018-02-15T17:57:02Z</time>
      </trkpt>
      <trkpt lat="62.633899210933" lon="17.988127704476">
        <ele>70.8</ele>
        <time>2018-02-15T17:57:03Z</time>
      </trkpt>
      <trkpt lat="62.633877417993" lon="17.988105324803">
        <ele>70.8</ele>
        <time>2018-02-15T17:57:04Z</time>
      </trkpt>
      <trkpt lat="62.633858810175" lon="17.988097278179">
        <ele>71</ele>
        <time>2018-02-15T17:57:05Z</time>
      </trkpt>
      <trkpt lat="62.633833748294" lon="17.98808797427">
        <ele>71.2</ele>
        <time>2018-02-15T17:57:06Z</time>
      </trkpt>
      <trkpt lat="62.633808183499" lon="17.988094595971">
        <ele>71.2</ele>
        <time>2018-02-15T17:57:07Z</time>
      </trkpt>
      <trkpt lat="62.63378379217" lon="17.988054614308">
        <ele>71.6</ele>
        <time>2018-02-15T17:57:08Z</time>
      </trkpt>
      <trkpt lat="62.633760741945" lon="17.98804187382">
        <ele>71.6</ele>
        <time>2018-02-15T17:57:09Z</time>
      </trkpt>
      <trkpt lat="62.633739451919" lon="17.988013878274">
        <ele>71.8</ele>
        <time>2018-02-15T17:57:10Z</time>
      </trkpt>
      <trkpt lat="62.633715814961" lon="17.987989822221">
        <ele>72</ele>
        <time>2018-02-15T17:57:11Z</time>
      </trkpt>
      <trkpt lat="62.633692010365" lon="17.987959395924">
        <ele>72</ele>
        <time>2018-02-15T17:57:12Z</time>
      </trkpt>
      <trkpt lat="62.633668792502" lon="17.987928299075">
        <ele>72</ele>
        <time>2018-02-15T17:57:13Z</time>
      </trkpt>
      <trkpt lat="62.633648256847" lon="17.987908182515">
        <ele>72</ele>
        <time>2018-02-15T17:57:14Z</time>
      </trkpt>
      <trkpt lat="62.633632331237" lon="17.987879432598">
        <ele>72</ele>
        <time>2018-02-15T17:57:15Z</time>
      </trkpt>
      <trkpt lat="62.633613974876" lon="17.987846743188">
        <ele>72</ele>
        <time>2018-02-15T17:57:16Z</time>
      </trkpt>
      <trkpt lat="62.633594445049" lon="17.987834170338">
        <ele>72.2</ele>
        <time>2018-02-15T17:57:17Z</time>
      </trkpt>
      <trkpt lat="62.633574579946" lon="17.987807599715">
        <ele>72.4</ele>
        <time>2018-02-15T17:57:18Z</time>
      </trkpt>
      <trkpt lat="62.63355748087" lon="17.987784717128">
        <ele>72.4</ele>
        <time>2018-02-15T17:57:19Z</time>
      </trkpt>
      <trkpt lat="62.633533676274" lon="17.987763343283">
        <ele>72.6</ele>
        <time>2018-02-15T17:57:20Z</time>
      </trkpt>
      <trkpt lat="62.633512134791" lon="17.987738365221">
        <ele>72.8</ele>
        <time>2018-02-15T17:57:21Z</time>
      </trkpt>
      <trkpt lat="62.633489838937" lon="17.987726211466">
        <ele>72.8</ele>
        <time>2018-02-15T17:57:22Z</time>
      </trkpt>
      <trkpt lat="62.633464274142" lon="17.987669885098">
        <ele>73</ele>
        <time>2018-02-15T17:57:23Z</time>
      </trkpt>
      <trkpt lat="62.633441140098" lon="17.987639123525">
        <ele>73</ele>
        <time>2018-02-15T17:57:24Z</time>
      </trkpt>
      <trkpt lat="62.633425214488" lon="17.987604171002">
        <ele>73.2</ele>
        <time>2018-02-15T17:57:25Z</time>
      </trkpt>
      <trkpt lat="62.633408031593" lon="17.987570308126">
        <ele>73.4</ele>
        <time>2018-02-15T17:57:26Z</time>
      </trkpt>
      <trkpt lat="62.633391603069" lon="17.987538624544">
        <ele>73.6</ele>
        <time>2018-02-15T17:57:27Z</time>
      </trkpt>
      <trkpt lat="62.633376180373" lon="17.987498139967">
        <ele>73.6</ele>
        <time>2018-02-15T17:57:28Z</time>
      </trkpt>
      <trkpt lat="62.633361009134" lon="17.987452039517">
        <ele>73.8</ele>
        <time>2018-02-15T17:57:29Z</time>
      </trkpt>
      <trkpt lat="62.633344832067" lon="17.987412979863">
        <ele>74</ele>
        <time>2018-02-15T17:57:30Z</time>
      </trkpt>
      <trkpt lat="62.633315160141" lon="17.98733779422">
        <ele>74.2</ele>
        <time>2018-02-15T17:57:31Z</time>
      </trkpt>
      <trkpt lat="62.633291942278" lon="17.987263111491">
        <ele>74.4</ele>
        <time>2018-02-15T17:57:32Z</time>
      </trkpt>
      <trkpt lat="62.633268640596" lon="17.987163199243">
        <ele>74.4</ele>
        <time>2018-02-15T17:57:33Z</time>
      </trkpt>
      <trkpt lat="62.633245758009" lon="17.987060688606">
        <ele>74</ele>
        <time>2018-02-15T17:57:34Z</time>
      </trkpt>
      <trkpt lat="62.633231508779" lon="17.986964967308">
        <ele>73.4</ele>
        <time>2018-02-15T17:57:35Z</time>
      </trkpt>
      <trkpt lat="62.633219271205" lon="17.98686756963">
        <ele>72.2</ele>
        <time>2018-02-15T17:57:36Z</time>
      </trkpt>
      <trkpt lat="62.633210386391" lon="17.986779392042">
        <ele>71.4</ele>
        <time>2018-02-15T17:57:37Z</time>
      </trkpt>
      <trkpt lat="62.633194879876" lon="17.986671265532">
        <ele>70.4</ele>
        <time>2018-02-15T17:57:38Z</time>
      </trkpt>
      <trkpt lat="62.633180127732" lon="17.986573700216">
        <ele>70</ele>
        <time>2018-02-15T17:57:39Z</time>
      </trkpt>
      <trkpt lat="62.633175098592" lon="17.986485187352">
        <ele>69.8</ele>
        <time>2018-02-15T17:57:40Z</time>
      </trkpt>
      <trkpt lat="62.633166632873" lon="17.986387622036">
        <ele>70</ele>
        <time>2018-02-15T17:57:41Z</time>
      </trkpt>
      <trkpt lat="62.633163950665" lon="17.986277232413">
        <ele>70.4</ele>
        <time>2018-02-15T17:57:42Z</time>
      </trkpt>
      <trkpt lat="62.633166549054" lon="17.986158293252">
        <ele>70.4</ele>
        <time>2018-02-15T17:57:43Z</time>
      </trkpt>
      <trkpt lat="62.633169734176" lon="17.986050502018">
        <ele>70.4</ele>
        <time>2018-02-15T17:57:44Z</time>
      </trkpt>
      <trkpt lat="62.633172835479" lon="17.985936005264">
        <ele>70.2</ele>
        <time>2018-02-15T17:57:45Z</time>
      </trkpt>
      <trkpt lat="62.633176439696" lon="17.985832572618">
        <ele>70</ele>
        <time>2018-02-15T17:57:46Z</time>
      </trkpt>
      <trkpt lat="62.633176188239" lon="17.985728134144">
        <ele>69.6</ele>
        <time>2018-02-15T17:57:47Z</time>
      </trkpt>
      <trkpt lat="62.63317694261" lon="17.985630317371">
        <ele>69.2</ele>
        <time>2018-02-15T17:57:48Z</time>
      </trkpt>
      <trkpt lat="62.633180379189" lon="17.985544319077">
        <ele>69</ele>
        <time>2018-02-15T17:57:49Z</time>
      </trkpt>
      <trkpt lat="62.633182390845" lon="17.985435857291">
        <ele>68.4</ele>
        <time>2018-02-15T17:57:50Z</time>
      </trkpt>
      <trkpt lat="62.63318783908" lon="17.985317588682">
        <ele>68.2</ele>
        <time>2018-02-15T17:57:51Z</time>
      </trkpt>
      <trkpt lat="62.633195634247" lon="17.985203427204">
        <ele>68.2</ele>
        <time>2018-02-15T17:57:52Z</time>
      </trkpt>
      <trkpt lat="62.633210721667" lon="17.985077111971">
        <ele>67.8</ele>
        <time>2018-02-15T17:57:53Z</time>
      </trkpt>
      <trkpt lat="62.633230251494" lon="17.984966051796">
        <ele>67.4</ele>
        <time>2018-02-15T17:57:54Z</time>
      </trkpt>
      <trkpt lat="62.633250200416" lon="17.984845687712">
        <ele>66.6</ele>
        <time>2018-02-15T17:57:55Z</time>
      </trkpt>
      <trkpt lat="62.633271155166" lon="17.984744518179">
        <ele>66</ele>
        <time>2018-02-15T17:57:56Z</time>
      </trkpt>
      <trkpt lat="62.633296636142" lon="17.984656005315">
        <ele>65.4</ele>
        <time>2018-02-15T17:57:57Z</time>
      </trkpt>
      <trkpt lat="62.633316501245" lon="17.984569085012">
        <ele>65</ele>
        <time>2018-02-15T17:57:58Z</time>
      </trkpt>
      <trkpt lat="62.633337288357" lon="17.98448711003">
        <ele>64.8</ele>
        <time>2018-02-15T17:57:59Z</time>
      </trkpt>
      <trkpt lat="62.63334960975" lon="17.984397172243">
        <ele>64.6</ele>
        <time>2018-02-15T17:58:00Z</time>
      </trkpt>
      <trkpt lat="62.633360422401" lon="17.984315448718">
        <ele>64.8</ele>
        <time>2018-02-15T17:58:01Z</time>
      </trkpt>
      <trkpt lat="62.633372157061" lon="17.984224002189">
        <ele>65.2</ele>
        <time>2018-02-15T17:58:02Z</time>
      </trkpt>
      <trkpt lat="62.633380790418" lon="17.984144709415">
        <ele>65.6</ele>
        <time>2018-02-15T17:58:03Z</time>
      </trkpt>
      <trkpt lat="62.633389759051" lon="17.984081593708">
        <ele>65.6</ele>
        <time>2018-02-15T17:58:04Z</time>
      </trkpt>
      <trkpt lat="62.633389926689" lon="17.984007749169">
        <ele>65.8</ele>
        <time>2018-02-15T17:58:05Z</time>
      </trkpt>
      <trkpt lat="62.633392189802" lon="17.983934994277">
        <ele>65.8</ele>
        <time>2018-02-15T17:58:06Z</time>
      </trkpt>
      <trkpt lat="62.633394452915" lon="17.983872046208">
        <ele>66</ele>
        <time>2018-02-15T17:58:07Z</time>
      </trkpt>
      <trkpt lat="62.633409875611" lon="17.983793843081">
        <ele>65.8</ele>
        <time>2018-02-15T17:58:08Z</time>
      </trkpt>
      <trkpt lat="62.633422699918" lon="17.983730140641">
        <ele>65.8</ele>
        <time>2018-02-15T17:58:09Z</time>
      </trkpt>
      <trkpt lat="62.633412809276" lon="17.983670880608">
        <ele>65.8</ele>
        <time>2018-02-15T17:58:10Z</time>
      </trkpt>
      <trkpt lat="62.633433177293" lon="17.983585552866">
        <ele>66</ele>
        <time>2018-02-15T17:58:11Z</time>
      </trkpt>
      <trkpt lat="62.633443319392" lon="17.983514725811">
        <ele>66</ele>
        <time>2018-02-15T17:58:12Z</time>
      </trkpt>
      <trkpt lat="62.633457903898" lon="17.9834418871">
        <ele>66</ele>
        <time>2018-02-15T17:58:13Z</time>
      </trkpt>
      <trkpt lat="62.633477098449" lon="17.983381034506">
        <ele>66.2</ele>
        <time>2018-02-15T17:58:14Z</time>
      </trkpt>
      <trkpt lat="62.633487408186" lon="17.983330156373">
        <ele>66.4</ele>
        <time>2018-02-15T17:58:15Z</time>
      </trkpt>
      <trkpt lat="62.633502411787" lon="17.983262262983">
        <ele>66.4</ele>
        <time>2018-02-15T17:58:16Z</time>
      </trkpt>
      <trkpt lat="62.63351389499" lon="17.983202500036">
        <ele>66.4</ele>
        <time>2018-02-15T17:58:17Z</time>
      </trkpt>
      <trkpt lat="62.633530239695" lon="17.983144664926">
        <ele>66.4</ele>
        <time>2018-02-15T17:58:18Z</time>
      </trkpt>
      <trkpt lat="62.633553038463" lon="17.983092445689">
        <ele>66.4</ele>
        <time>2018-02-15T17:58:19Z</time>
      </trkpt>
      <trkpt lat="62.633553876653" lon="17.983012063268">
        <ele>66.4</ele>
        <time>2018-02-15T17:58:20Z</time>
      </trkpt>
      <trkpt lat="62.633571897738" lon="17.98294986957">
        <ele>66.6</ele>
        <time>2018-02-15T17:58:21Z</time>
      </trkpt>
      <trkpt lat="62.633594947963" lon="17.98290460731">
        <ele>66.4</ele>
        <time>2018-02-15T17:58:22Z</time>
      </trkpt>
      <trkpt lat="62.633605844433" lon="17.982818189921">
        <ele>66.6</ele>
        <time>2018-02-15T17:58:23Z</time>
      </trkpt>
      <trkpt lat="62.633625038984" lon="17.982759013707">
        <ele>66.6</ele>
        <time>2018-02-15T17:58:24Z</time>
      </trkpt>
      <trkpt lat="62.633617998188" lon="17.982678128372">
        <ele>66.6</ele>
        <time>2018-02-15T17:58:25Z</time>
      </trkpt>
      <trkpt lat="62.633630068124" lon="17.982613923018">
        <ele>66.6</ele>
        <time>2018-02-15T17:58:26Z</time>
      </trkpt>
      <trkpt lat="62.633634845807" lon="17.982545275257">
        <ele>66.8</ele>
        <time>2018-02-15T17:58:27Z</time>
      </trkpt>
      <trkpt lat="62.633645658458" lon="17.982487021052">
        <ele>66.8</ele>
        <time>2018-02-15T17:58:28Z</time>
      </trkpt>
      <trkpt lat="62.633660494421" lon="17.982438992765">
        <ele>66.8</ele>
        <time>2018-02-15T17:58:29Z</time>
      </trkpt>
      <trkpt lat="62.63367650385" lon="17.982375960877">
        <ele>66.8</ele>
        <time>2018-02-15T17:58:30Z</time>
      </trkpt>
      <trkpt lat="62.633683041732" lon="17.982298176845">
        <ele>66.8</ele>
        <time>2018-02-15T17:58:31Z</time>
      </trkpt>
      <trkpt lat="62.63368823851" lon="17.982231624559">
        <ele>66.6</ele>
        <time>2018-02-15T17:58:32Z</time>
      </trkpt>
      <trkpt lat="62.633693435288" lon="17.982164820816">
        <ele>66.6</ele>
        <time>2018-02-15T17:58:33Z</time>
      </trkpt>
      <trkpt lat="62.633703409749" lon="17.982106315154">
        <ele>66.6</ele>
        <time>2018-02-15T17:58:34Z</time>
      </trkpt>
      <trkpt lat="62.633712965115" lon="17.982040852515">
        <ele>66.6</ele>
        <time>2018-02-15T17:58:35Z</time>
      </trkpt>
      <trkpt lat="62.63371925154" lon="17.981987878907">
        <ele>66.6</ele>
        <time>2018-02-15T17:58:36Z</time>
      </trkpt>
      <trkpt lat="62.633728387811" lon="17.981949573624">
        <ele>66.6</ele>
        <time>2018-02-15T17:58:37Z</time>
      </trkpt>
      <trkpt lat="62.633726627612" lon="17.981880758225">
        <ele>66.8</ele>
        <time>2018-02-15T17:58:38Z</time>
      </trkpt>
      <trkpt lat="62.633731656752" lon="17.981812026645">
        <ele>66.8</ele>
        <time>2018-02-15T17:58:39Z</time>
      </trkpt>
      <trkpt lat="62.633733081675" lon="17.981740696676">
        <ele>66.8</ele>
        <time>2018-02-15T17:58:40Z</time>
      </trkpt>
      <trkpt lat="62.633731992028" lon="17.981657464409">
        <ele>67</ele>
        <time>2018-02-15T17:58:41Z</time>
      </trkpt>
      <trkpt lat="62.633730650924" lon="17.981593594331">
        <ele>67</ele>
        <time>2018-02-15T17:58:42Z</time>
      </trkpt>
      <trkpt lat="62.633740290109" lon="17.981535675402">
        <ele>67</ele>
        <time>2018-02-15T17:58:43Z</time>
      </trkpt>
      <trkpt lat="62.633754790796" lon="17.981477085921">
        <ele>67</ele>
        <time>2018-02-15T17:58:44Z</time>
      </trkpt>
      <trkpt lat="62.633768537112" lon="17.981386896677">
        <ele>67</ele>
        <time>2018-02-15T17:58:45Z</time>
      </trkpt>
      <trkpt lat="62.633783373075" lon="17.981329396843">
        <ele>67</ele>
        <time>2018-02-15T17:58:46Z</time>
      </trkpt>
      <trkpt lat="62.633786139102" lon="17.98125504939">
        <ele>67.2</ele>
        <time>2018-02-15T17:58:47Z</time>
      </trkpt>
      <trkpt lat="62.633796197382" lon="17.981192101321">
        <ele>67.2</ele>
        <time>2018-02-15T17:58:48Z</time>
      </trkpt>
      <trkpt lat="62.633809608422" lon="17.981144827405">
        <ele>67.2</ele>
        <time>2018-02-15T17:58:49Z</time>
      </trkpt>
      <trkpt lat="62.633828300059" lon="17.981095541833">
        <ele>67.4</ele>
        <time>2018-02-15T17:58:50Z</time>
      </trkpt>
      <trkpt lat="62.633849673904" lon="17.981051536858">
        <ele>67.4</ele>
        <time>2018-02-15T17:58:51Z</time>
      </trkpt>
      <trkpt lat="62.633867862627" lon="17.981010549367">
        <ele>67.4</ele>
        <time>2018-02-15T17:58:52Z</time>
      </trkpt>
      <trkpt lat="62.633876915079" lon="17.980955228827">
        <ele>67.4</ele>
        <time>2018-02-15T17:58:53Z</time>
      </trkpt>
      <trkpt lat="62.63389443325" lon="17.980931005136">
        <ele>67.4</ele>
        <time>2018-02-15T17:58:54Z</time>
      </trkpt>
      <trkpt lat="62.633916980561" lon="17.980860178081">
        <ele>67.4</ele>
        <time>2018-02-15T17:58:55Z</time>
      </trkpt>
      <trkpt lat="62.633933744361" lon="17.980810976328">
        <ele>67.6</ele>
        <time>2018-02-15T17:58:56Z</time>
      </trkpt>
      <trkpt lat="62.633943215908" lon="17.980759930557">
        <ele>67.8</ele>
        <time>2018-02-15T17:58:57Z</time>
      </trkpt>
      <trkpt lat="62.63394975379" lon="17.980706621673">
        <ele>67.8</ele>
        <time>2018-02-15T17:58:58Z</time>
      </trkpt>
      <trkpt lat="62.633970959997" lon="17.980675692462">
        <ele>68</ele>
        <time>2018-02-15T17:58:59Z</time>
      </trkpt>
      <trkpt lat="62.633993758765" lon="17.980606206511">
        <ele>68</ele>
        <time>2018-02-15T17:59:00Z</time>
      </trkpt>
      <trkpt lat="62.634007253624" lon="17.980550299238">
        <ele>68</ele>
        <time>2018-02-15T17:59:01Z</time>
      </trkpt>
      <trkpt lat="62.63402099994" lon="17.980496152164">
        <ele>68.2</ele>
        <time>2018-02-15T17:59:02Z</time>
      </trkpt>
      <trkpt lat="62.634036506455" lon="17.980452398646">
        <ele>68</ele>
        <time>2018-02-15T17:59:03Z</time>
      </trkpt>
      <trkpt lat="62.634051845332" lon="17.980415602105">
        <ele>68</ele>
        <time>2018-02-15T17:59:04Z</time>
      </trkpt>
      <trkpt lat="62.634069195865" lon="17.980361203574">
        <ele>67.8</ele>
        <time>2018-02-15T17:59:05Z</time>
      </trkpt>
      <trkpt lat="62.6340914079" lon="17.980309906346">
        <ele>68</ele>
        <time>2018-02-15T17:59:06Z</time>
      </trkpt>
      <trkpt lat="62.634111943555" lon="17.980264392629">
        <ele>68</ele>
        <time>2018-02-15T17:59:07Z</time>
      </trkpt>
      <trkpt lat="62.634126276604" lon="17.980216364342">
        <ele>68</ele>
        <time>2018-02-15T17:59:08Z</time>
      </trkpt>
      <trkpt lat="62.634150835571" lon="17.980185602769">
        <ele>68</ele>
        <time>2018-02-15T17:59:09Z</time>
      </trkpt>
      <trkpt lat="62.634180172221" lon="17.980130868962">
        <ele>68.2</ele>
        <time>2018-02-15T17:59:10Z</time>
      </trkpt>
      <trkpt lat="62.6341919907" lon="17.980089546195">
        <ele>68.2</ele>
        <time>2018-02-15T17:59:11Z</time>
      </trkpt>
      <trkpt lat="62.634215208563" lon="17.980030621438">
        <ele>68.2</ele>
        <time>2018-02-15T17:59:12Z</time>
      </trkpt>
      <trkpt lat="62.634228619603" lon="17.979981671142">
        <ele>68.2</ele>
        <time>2018-02-15T17:59:13Z</time>
      </trkpt>
      <trkpt lat="62.634240689539" lon="17.979927104973">
        <ele>68.2</ele>
        <time>2018-02-15T17:59:14Z</time>
      </trkpt>
      <trkpt lat="62.634263488307" lon="17.979872622623">
        <ele>68.4</ele>
        <time>2018-02-15T17:59:15Z</time>
      </trkpt>
      <trkpt lat="62.634280503564" lon="17.979836915729">
        <ele>68.4</ele>
        <time>2018-02-15T17:59:16Z</time>
      </trkpt>
      <trkpt lat="62.634292322043" lon="17.979748654322">
        <ele>68.4</ele>
        <time>2018-02-15T17:59:17Z</time>
      </trkpt>
      <trkpt lat="62.634309002024" lon="17.97968428133">
        <ele>68.4</ele>
        <time>2018-02-15T17:59:18Z</time>
      </trkpt>
      <trkpt lat="62.634319563218" lon="17.979629631342">
        <ele>68.4</ele>
        <time>2018-02-15T17:59:19Z</time>
      </trkpt>
      <trkpt lat="62.634336662294" lon="17.979558636649">
        <ele>68.4</ele>
        <time>2018-02-15T17:59:20Z</time>
      </trkpt>
      <trkpt lat="62.634344708918" lon="17.979493090191">
        <ele>68.4</ele>
        <time>2018-02-15T17:59:21Z</time>
      </trkpt>
      <trkpt lat="62.634353342275" lon="17.979423268964">
        <ele>68.6</ele>
        <time>2018-02-15T17:59:22Z</time>
      </trkpt>
      <trkpt lat="62.634356778854" lon="17.979391333925">
        <ele>68.6</ele>
        <time>2018-02-15T17:59:23Z</time>
      </trkpt>
      <trkpt lat="62.634374297025" lon="17.979316483558">
        <ele>68.4</ele>
        <time>2018-02-15T17:59:24Z</time>
      </trkpt>
      <trkpt lat="62.634385109676" lon="17.979264515778">
        <ele>68.4</ele>
        <time>2018-02-15T17:59:25Z</time>
      </trkpt>
      <trkpt lat="62.634395335594" lon="17.979207267401">
        <ele>68.4</ele>
        <time>2018-02-15T17:59:26Z</time>
      </trkpt>
      <trkpt lat="62.634405561512" lon="17.979152785051">
        <ele>68.4</ele>
        <time>2018-02-15T17:59:27Z</time>
      </trkpt>
      <trkpt lat="62.634411931756" lon="17.979100398176">
        <ele>68.4</ele>
        <time>2018-02-15T17:59:28Z</time>
      </trkpt>
      <trkpt lat="62.634423834054" lon="17.979030996044">
        <ele>68.4</ele>
        <time>2018-02-15T17:59:29Z</time>
      </trkpt>
      <trkpt lat="62.63443758037" lon="17.9789659525">
        <ele>68.6</ele>
        <time>2018-02-15T17:59:30Z</time>
      </trkpt>
      <trkpt lat="62.63444763865" lon="17.978908368847">
        <ele>68.6</ele>
        <time>2018-02-15T17:59:31Z</time>
      </trkpt>
      <trkpt lat="62.634457277835" lon="17.978850366099">
        <ele>68.4</ele>
        <time>2018-02-15T17:59:32Z</time>
      </trkpt>
      <trkpt lat="62.634467419934" lon="17.978798649776">
        <ele>68.6</ele>
        <time>2018-02-15T17:59:33Z</time>
      </trkpt>
      <trkpt lat="62.634474628368" lon="17.978751292041">
        <ele>68.6</ele>
        <time>2018-02-15T17:59:34Z</time>
      </trkpt>
      <trkpt lat="62.634484099915" lon="17.978715668966">
        <ele>68.6</ele>
        <time>2018-02-15T17:59:35Z</time>
      </trkpt>
      <trkpt lat="62.634504719389" lon="17.978678118054">
        <ele>68.6</ele>
        <time>2018-02-15T17:59:36Z</time>
      </trkpt>
      <trkpt lat="62.634520142085" lon="17.978658839684">
        <ele>68.6</ele>
        <time>2018-02-15T17:59:37Z</time>
      </trkpt>
      <trkpt lat="62.634546964165" lon="17.97868599704">
        <ele>68.6</ele>
        <time>2018-02-15T17:59:38Z</time>
      </trkpt>
      <trkpt lat="62.634562638318" lon="17.978707035609">
        <ele>68.8</ele>
        <time>2018-02-15T17:59:39Z</time>
      </trkpt>
      <trkpt lat="62.634578899204" lon="17.978742323408">
        <ele>68.8</ele>
        <time>2018-02-15T17:59:40Z</time>
      </trkpt>
      <trkpt lat="62.634599602497" lon="17.978768474936">
        <ele>69</ele>
        <time>2018-02-15T17:59:41Z</time>
      </trkpt>
      <trkpt lat="62.634626340758" lon="17.978790351695">
        <ele>69.2</ele>
        <time>2018-02-15T17:59:42Z</time>
      </trkpt>
      <trkpt lat="62.63465886253" lon="17.978806109667">
        <ele>69.2</ele>
        <time>2018-02-15T17:59:43Z</time>
      </trkpt>
      <trkpt lat="62.634691971035" lon="17.978813150463">
        <ele>69</ele>
        <time>2018-02-15T17:59:44Z</time>
      </trkpt>
      <trkpt lat="62.634738993494" lon="17.978839888724">
        <ele>69</ele>
        <time>2018-02-15T17:59:45Z</time>
      </trkpt>
      <trkpt lat="62.63477704732" lon="17.97885614961">
        <ele>69</ele>
        <time>2018-02-15T17:59:46Z</time>
      </trkpt>
      <trkpt lat="62.634819878829" lon="17.978873081048">
        <ele>68.6</ele>
        <time>2018-02-15T17:59:47Z</time>
      </trkpt>
      <trkpt lat="62.634861620691" lon="17.978883139328">
        <ele>68.4</ele>
        <time>2018-02-15T17:59:48Z</time>
      </trkpt>
      <trkpt lat="62.634901434716" lon="17.978884564251">
        <ele>68.4</ele>
        <time>2018-02-15T17:59:49Z</time>
      </trkpt>
      <trkpt lat="62.634939237085" lon="17.978910548141">
        <ele>68.2</ele>
        <time>2018-02-15T17:59:50Z</time>
      </trkpt>
      <trkpt lat="62.634972010314" lon="17.97892236662">
        <ele>68</ele>
        <time>2018-02-15T17:59:51Z</time>
      </trkpt>
      <trkpt lat="62.635003526258" lon="17.978929575054">
        <ele>68</ele>
        <time>2018-02-15T17:59:52Z</time>
      </trkpt>
      <trkpt lat="62.635034874564" lon="17.978944327198">
        <ele>67.8</ele>
        <time>2018-02-15T17:59:53Z</time>
      </trkpt>
      <trkpt lat="62.635070581458" lon="17.978954469297">
        <ele>67.8</ele>
        <time>2018-02-15T17:59:54Z</time>
      </trkpt>
      <trkpt lat="62.635107042723" lon="17.97896679069">
        <ele>67.6</ele>
        <time>2018-02-15T17:59:55Z</time>
      </trkpt>
      <trkpt lat="62.635147778757" lon="17.978975088771">
        <ele>67.6</ele>
        <time>2018-02-15T17:59:56Z</time>
      </trkpt>
      <trkpt lat="62.635186000221" lon="17.97898187811">
        <ele>67.8</ele>
        <time>2018-02-15T17:59:57Z</time>
      </trkpt>
      <trkpt lat="62.635224305504" lon="17.978990176191">
        <ele>67.8</ele>
        <time>2018-02-15T17:59:58Z</time>
      </trkpt>
      <trkpt lat="62.635263113701" lon="17.978995959702">
        <ele>67.6</ele>
        <time>2018-02-15T17:59:59Z</time>
      </trkpt>
      <trkpt lat="62.635303933554" lon="17.978996881711">
        <ele>67.6</ele>
        <time>2018-02-15T18:00:00Z</time>
      </trkpt>
      <trkpt lat="62.635344334312" lon="17.978998809548">
        <ele>67.2</ele>
        <time>2018-02-15T18:00:01Z</time>
      </trkpt>
      <trkpt lat="62.635387752554" lon="17.979002665222">
        <ele>67</ele>
        <time>2018-02-15T18:00:02Z</time>
      </trkpt>
      <trkpt lat="62.635432344262" lon="17.979003000498">
        <ele>66.6</ele>
        <time>2018-02-15T18:00:03Z</time>
      </trkpt>
      <trkpt lat="62.635476433056" lon="17.979000150652">
        <ele>66.2</ele>
        <time>2018-02-15T18:00:04Z</time>
      </trkpt>
      <trkpt lat="62.635525131895" lon="17.978987996897">
        <ele>65.8</ele>
        <time>2018-02-15T18:00:05Z</time>
      </trkpt>
      <trkpt lat="62.63557081325" lon="17.97898355449">
        <ele>65.2</ele>
        <time>2018-02-15T18:00:06Z</time>
      </trkpt>
      <trkpt lat="62.635612974207" lon="17.978981291377">
        <ele>65</ele>
        <time>2018-02-15T18:00:07Z</time>
      </trkpt>
      <trkpt lat="62.635658907019" lon="17.978974837314">
        <ele>64.6</ele>
        <time>2018-02-15T18:00:08Z</time>
      </trkpt>
      <trkpt lat="62.63569989451" lon="17.978967880337">
        <ele>64.4</ele>
        <time>2018-02-15T18:00:09Z</time>
      </trkpt>
      <trkpt lat="62.635739205621" lon="17.978975675504">
        <ele>64.2</ele>
        <time>2018-02-15T18:00:10Z</time>
      </trkpt>
      <trkpt lat="62.63577952256" lon="17.978978273893">
        <ele>64</ele>
        <time>2018-02-15T18:00:11Z</time>
      </trkpt>
      <trkpt lat="62.635814223626" lon="17.978981542834">
        <ele>63.8</ele>
        <time>2018-02-15T18:00:12Z</time>
      </trkpt>
      <trkpt lat="62.635846158665" lon="17.978988332173">
        <ele>64</ele>
        <time>2018-02-15T18:00:13Z</time>
      </trkpt>
      <trkpt lat="62.635878345161" lon="17.978995121512">
        <ele>64</ele>
        <time>2018-02-15T18:00:14Z</time>
      </trkpt>
      <trkpt lat="62.6359018983" lon="17.978996043521">
        <ele>64.2</ele>
        <time>2018-02-15T18:00:15Z</time>
      </trkpt>
      <trkpt lat="62.635924613249" lon="17.978998809548">
        <ele>64.2</ele>
        <time>2018-02-15T18:00:16Z</time>
      </trkpt>
      <trkpt lat="62.635944226895" lon="17.979007359086">
        <ele>64.4</ele>
        <time>2018-02-15T18:00:17Z</time>
      </trkpt>
      <trkpt lat="62.63595889522" lon="17.979012388226">
        <ele>64.6</ele>
        <time>2018-02-15T18:00:18Z</time>
      </trkpt>
      <trkpt lat="62.635971048975" lon="17.979014399882">
        <ele>64.6</ele>
        <time>2018-02-15T18:00:19Z</time>
      </trkpt>
      <trkpt lat="62.6359857173" lon="17.979021859773">
        <ele>64.8</ele>
        <time>2018-02-15T18:00:20Z</time>
      </trkpt>
      <trkpt lat="62.635999715073" lon="17.979040048496">
        <ele>64.6</ele>
        <time>2018-02-15T18:00:21Z</time>
      </trkpt>
      <trkpt lat="62.636014467217" lon="17.979066283843">
        <ele>64.6</ele>
        <time>2018-02-15T18:00:22Z</time>
      </trkpt>
      <trkpt lat="62.63601756852" lon="17.979103583298">
        <ele>64.8</ele>
        <time>2018-02-15T18:00:23Z</time>
      </trkpt>
      <trkpt lat="62.63602008309" lon="17.979125292419">
        <ele>65</ele>
        <time>2018-02-15T18:00:24Z</time>
      </trkpt>
      <trkpt lat="62.636017065606" lon="17.97915789801">
        <ele>65</ele>
        <time>2018-02-15T18:00:25Z</time>
      </trkpt>
      <trkpt lat="62.636012958475" lon="17.979181283511">
        <ele>65.2</ele>
        <time>2018-02-15T18:00:26Z</time>
      </trkpt>
      <trkpt lat="62.636009438077" lon="17.979196790026">
        <ele>65.2</ele>
        <time>2018-02-15T18:00:27Z</time>
      </trkpt>
      <trkpt lat="62.636007845516" lon="17.979208608505">
        <ele>65.2</ele>
        <time>2018-02-15T18:00:28Z</time>
      </trkpt>
      <trkpt lat="62.636009940991" lon="17.979201735347">
        <ele>65.2</ele>
        <time>2018-02-15T18:00:30Z</time>
      </trkpt>
      <trkpt lat="62.63598320273" lon="17.979528042714">
        <ele>64.6</ele>
        <time>2018-02-15T18:00:36Z</time>
      </trkpt>
      <trkpt lat="62.635987980413" lon="17.97960884423">
        <ele>64.4</ele>
        <time>2018-02-15T18:00:37Z</time>
      </trkpt>
      <trkpt lat="62.635979430875" lon="17.979771956004">
        <ele>64.4</ele>
        <time>2018-02-15T18:00:38Z</time>
      </trkpt>
      <trkpt lat="62.635981107255" lon="17.979929871">
        <ele>63.6</ele>
        <time>2018-02-15T18:00:39Z</time>
      </trkpt>
      <trkpt lat="62.635994769752" lon="17.980076218974">
        <ele>62.6</ele>
        <time>2018-02-15T18:00:40Z</time>
      </trkpt>
      <trkpt lat="62.63600331929" lon="17.980216448161">
        <ele>61.8</ele>
        <time>2018-02-15T18:00:41Z</time>
      </trkpt>
      <trkpt lat="62.636022932936" lon="17.980347121982">
        <ele>60.8</ele>
        <time>2018-02-15T18:00:42Z</time>
      </trkpt>
      <trkpt lat="62.636041624573" lon="17.980474191586">
        <ele>59</ele>
        <time>2018-02-15T18:00:43Z</time>
      </trkpt>
      <trkpt lat="62.636059813296" lon="17.980593633661">
        <ele>58.8</ele>
        <time>2018-02-15T18:00:44Z</time>
      </trkpt>
      <trkpt lat="62.636079175485" lon="17.980705699664">
        <ele>58.2</ele>
        <time>2018-02-15T18:00:45Z</time>
      </trkpt>
      <trkpt lat="62.636099627321" lon="17.980814077631">
        <ele>58</ele>
        <time>2018-02-15T18:00:46Z</time>
      </trkpt>
      <trkpt lat="62.636116558759" lon="17.980914492793">
        <ele>57.8</ele>
        <time>2018-02-15T18:00:47Z</time>
      </trkpt>
      <trkpt lat="62.636137848785" lon="17.981033934868">
        <ele>57.6</ele>
        <time>2018-02-15T18:00:48Z</time>
      </trkpt>
      <trkpt lat="62.636155534594" lon="17.981137786609">
        <ele>57.4</ele>
        <time>2018-02-15T18:00:49Z</time>
      </trkpt>
      <trkpt lat="62.636160815191" lon="17.981246248395">
        <ele>57.2</ele>
        <time>2018-02-15T18:00:50Z</time>
      </trkpt>
      <trkpt lat="62.636167520711" lon="17.981338700752">
        <ele>57</ele>
        <time>2018-02-15T18:00:51Z</time>
      </trkpt>
      <trkpt lat="62.63617347186" lon="17.98142352558">
        <ele>57</ele>
        <time>2018-02-15T18:00:52Z</time>
      </trkpt>
      <trkpt lat="62.636181267027" lon="17.981497202481">
        <ele>56.8</ele>
        <time>2018-02-15T18:00:53Z</time>
      </trkpt>
      <trkpt lat="62.636182272855" lon="17.981589068105">
        <ele>56.8</ele>
        <time>2018-02-15T18:00:54Z</time>
      </trkpt>
      <trkpt lat="62.636195683895" lon="17.981676910417">
        <ele>56.6</ele>
        <time>2018-02-15T18:00:55Z</time>
      </trkpt>
      <trkpt lat="62.636209178754" lon="17.981752263698">
        <ele>56.8</ele>
        <time>2018-02-15T18:00:56Z</time>
      </trkpt>
      <trkpt lat="62.636226780744" lon="17.98188117732">
        <ele>57</ele>
        <time>2018-02-15T18:00:57Z</time>
      </trkpt>
      <trkpt lat="62.636233318626" lon="17.981929289426">
        <ele>57.2</ele>
        <time>2018-02-15T18:00:58Z</time>
      </trkpt>
      <trkpt lat="62.636242790173" lon="17.982020652136">
        <ele>57.4</ele>
        <time>2018-02-15T18:00:59Z</time>
      </trkpt>
      <trkpt lat="62.63625812905" lon="17.98212089966">
        <ele>57.4</ele>
        <time>2018-02-15T18:01:00Z</time>
      </trkpt>
      <trkpt lat="62.636259470154" lon="17.982209580162">
        <ele>57.8</ele>
        <time>2018-02-15T18:01:01Z</time>
      </trkpt>
      <trkpt lat="62.636258799602" lon="17.982293482981">
        <ele>57.8</ele>
        <time>2018-02-15T18:01:02Z</time>
      </trkpt>
      <trkpt lat="62.636267432959" lon="17.982360035267">
        <ele>57.6</ele>
        <time>2018-02-15T18:01:03Z</time>
      </trkpt>
      <trkpt lat="62.636268103511" lon="17.982433628349">
        <ele>57.6</ele>
        <time>2018-02-15T18:01:04Z</time>
      </trkpt>
      <trkpt lat="62.636272294461" lon="17.982518117901">
        <ele>57.6</ele>
        <time>2018-02-15T18:01:05Z</time>
      </trkpt>
      <trkpt lat="62.636273970841" lon="17.982583915816">
        <ele>57.8</ele>
        <time>2018-02-15T18:01:06Z</time>
      </trkpt>
      <trkpt lat="62.636269696072" lon="17.982672261042">
        <ele>57.6</ele>
        <time>2018-02-15T18:01:07Z</time>
      </trkpt>
      <trkpt lat="62.636272713556" lon="17.982748452513">
        <ele>57.8</ele>
        <time>2018-02-15T18:01:08Z</time>
      </trkpt>
      <trkpt lat="62.636268857882" lon="17.982812322591">
        <ele>57.8</ele>
        <time>2018-02-15T18:01:09Z</time>
      </trkpt>
      <trkpt lat="62.636264415475" lon="17.982882646732">
        <ele>57.6</ele>
        <time>2018-02-15T18:01:10Z</time>
      </trkpt>
      <trkpt lat="62.636260308344" lon="17.982947522638">
        <ele>57.6</ele>
        <time>2018-02-15T18:01:11Z</time>
      </trkpt>
      <trkpt lat="62.636260475982" lon="17.983032934199">
        <ele>57.6</ele>
        <time>2018-02-15T18:01:12Z</time>
      </trkpt>
      <trkpt lat="62.636267684416" lon="17.983095966087">
        <ele>57.8</ele>
        <time>2018-02-15T18:01:13Z</time>
      </trkpt>
      <trkpt lat="62.636268271149" lon="17.983147933867">
        <ele>57.8</ele>
        <time>2018-02-15T18:01:14Z</time>
      </trkpt>
      <trkpt lat="62.6362707019" lon="17.983230411763">
        <ele>57.8</ele>
        <time>2018-02-15T18:01:15Z</time>
      </trkpt>
      <trkpt lat="62.636268774063" lon="17.983295120031">
        <ele>57.8</ele>
        <time>2018-02-15T18:01:16Z</time>
      </trkpt>
      <trkpt lat="62.636265840398" lon="17.983364941258">
        <ele>58</ele>
        <time>2018-02-15T18:01:17Z</time>
      </trkpt>
      <trkpt lat="62.636263912561" lon="17.983433337562">
        <ele>58</ele>
        <time>2018-02-15T18:01:18Z</time>
      </trkpt>
      <trkpt lat="62.636263242009" lon="17.983484718609">
        <ele>58</ele>
        <time>2018-02-15T18:01:19Z</time>
      </trkpt>
      <trkpt lat="62.636252513177" lon="17.983544230099">
        <ele>58</ele>
        <time>2018-02-15T18:01:20Z</time>
      </trkpt>
      <trkpt lat="62.636237844852" lon="17.983606926711">
        <ele>58</ele>
        <time>2018-02-15T18:01:21Z</time>
      </trkpt>
      <trkpt lat="62.636232731893" lon="17.983647914202">
        <ele>58.2</ele>
        <time>2018-02-15T18:01:22Z</time>
      </trkpt>
      <trkpt lat="62.636225020545" lon="17.983708180063">
        <ele>58.2</ele>
        <time>2018-02-15T18:01:23Z</time>
      </trkpt>
      <trkpt lat="62.636219991405" lon="17.983758303825">
        <ele>58.4</ele>
        <time>2018-02-15T18:01:24Z</time>
      </trkpt>
      <trkpt lat="62.636212112419" lon="17.983825861939">
        <ele>58.6</ele>
        <time>2018-02-15T18:01:25Z</time>
      </trkpt>
      <trkpt lat="62.636203814338" lon="17.983883361773">
        <ele>58.8</ele>
        <time>2018-02-15T18:01:26Z</time>
      </trkpt>
      <trkpt lat="62.636195348619" lon="17.98393222825">
        <ele>59</ele>
        <time>2018-02-15T18:01:27Z</time>
      </trkpt>
      <trkpt lat="62.636183865416" lon="17.98399593069">
        <ele>59</ele>
        <time>2018-02-15T18:01:28Z</time>
      </trkpt>
      <trkpt lat="62.636181686122" lon="17.984036247629">
        <ele>59.2</ele>
        <time>2018-02-15T18:01:29Z</time>
      </trkpt>
      <trkpt lat="62.636172549851" lon="17.984110343625">
        <ele>59.2</ele>
        <time>2018-02-15T18:01:30Z</time>
      </trkpt>
      <trkpt lat="62.63616425177" lon="17.984165831803">
        <ele>59.2</ele>
        <time>2018-02-15T18:01:31Z</time>
      </trkpt>
      <trkpt lat="62.636163329761" lon="17.984212602805">
        <ele>59.2</ele>
        <time>2018-02-15T18:01:32Z</time>
      </trkpt>
      <trkpt lat="62.636158216802" lon="17.984285357697">
        <ele>59.4</ele>
        <time>2018-02-15T18:01:33Z</time>
      </trkpt>
      <trkpt lat="62.636158132983" lon="17.984315951632">
        <ele>59.4</ele>
        <time>2018-02-15T18:01:34Z</time>
      </trkpt>
      <trkpt lat="62.636157043336" lon="17.984404799772">
        <ele>59.4</ele>
        <time>2018-02-15T18:01:35Z</time>
      </trkpt>
      <trkpt lat="62.636143464658" lon="17.984475543008">
        <ele>59.4</ele>
        <time>2018-02-15T18:01:36Z</time>
      </trkpt>
      <trkpt lat="62.636143632296" lon="17.984519967078">
        <ele>59.4</ele>
        <time>2018-02-15T18:01:37Z</time>
      </trkpt>
      <trkpt lat="62.636138351699" lon="17.984588111925">
        <ele>59.6</ele>
        <time>2018-02-15T18:01:38Z</time>
      </trkpt>
      <trkpt lat="62.636139441346" lon="17.984622812991">
        <ele>59.6</ele>
        <time>2018-02-15T18:01:39Z</time>
      </trkpt>
      <trkpt lat="62.636137764966" lon="17.984681151015">
        <ele>59.8</ele>
        <time>2018-02-15T18:01:40Z</time>
      </trkpt>
      <trkpt lat="62.636134747482" lon="17.984732783519">
        <ele>60</ele>
        <time>2018-02-15T18:01:41Z</time>
      </trkpt>
      <trkpt lat="62.636131478541" lon="17.984775615028">
        <ele>60</ele>
        <time>2018-02-15T18:01:42Z</time>
      </trkpt>
      <trkpt lat="62.636126952315" lon="17.984835713251">
        <ele>60</ele>
        <time>2018-02-15T18:01:43Z</time>
      </trkpt>
      <trkpt lat="62.636122426089" lon="17.984875527276">
        <ele>60.2</ele>
        <time>2018-02-15T18:01:44Z</time>
      </trkpt>
      <trkpt lat="62.636122677546" lon="17.984943420666">
        <ele>60.4</ele>
        <time>2018-02-15T18:01:45Z</time>
      </trkpt>
      <trkpt lat="62.636121839356" lon="17.984990443125">
        <ele>60.4</ele>
        <time>2018-02-15T18:01:46Z</time>
      </trkpt>
      <trkpt lat="62.636121587899" lon="17.985036627394">
        <ele>60.6</ele>
        <time>2018-02-15T18:01:47Z</time>
      </trkpt>
      <trkpt lat="62.63612066589" lon="17.985098821092">
        <ele>60.8</ele>
        <time>2018-02-15T18:01:48Z</time>
      </trkpt>
      <trkpt lat="62.636116055845" lon="17.985139305669">
        <ele>60.8</ele>
        <time>2018-02-15T18:01:49Z</time>
      </trkpt>
      <trkpt lat="62.636102644805" lon="17.985203846299">
        <ele>61</ele>
        <time>2018-02-15T18:01:50Z</time>
      </trkpt>
      <trkpt lat="62.636101555158" lon="17.985268135472">
        <ele>60.8</ele>
        <time>2018-02-15T18:01:51Z</time>
      </trkpt>
      <trkpt lat="62.636103231538" lon="17.985307446583">
        <ele>61</ele>
        <time>2018-02-15T18:01:52Z</time>
      </trkpt>
      <trkpt lat="62.636099878778" lon="17.98537726781">
        <ele>61</ele>
        <time>2018-02-15T18:01:53Z</time>
      </trkpt>
      <trkpt lat="62.636092418887" lon="17.985426134287">
        <ele>61</ele>
        <time>2018-02-15T18:01:54Z</time>
      </trkpt>
      <trkpt lat="62.636084539901" lon="17.985490172003">
        <ele>61.2</ele>
        <time>2018-02-15T18:01:55Z</time>
      </trkpt>
      <trkpt lat="62.636074313983" lon="17.985551862787">
        <ele>61.2</ele>
        <time>2018-02-15T18:01:56Z</time>
      </trkpt>
      <trkpt lat="62.636064842436" lon="17.985598801427">
        <ele>61.4</ele>
        <time>2018-02-15T18:01:57Z</time>
      </trkpt>
      <trkpt lat="62.636059561839" lon="17.985709777783">
        <ele>61.4</ele>
        <time>2018-02-15T18:01:59Z</time>
      </trkpt>
      <trkpt lat="62.63604103784" lon="17.985739952623">
        <ele>61.4</ele>
        <time>2018-02-15T18:02:00Z</time>
      </trkpt>
      <trkpt lat="62.636024357859" lon="17.985797368638">
        <ele>61.6</ele>
        <time>2018-02-15T18:02:01Z</time>
      </trkpt>
      <trkpt lat="62.63600583386" lon="17.985842295622">
        <ele>61.6</ele>
        <time>2018-02-15T18:02:02Z</time>
      </trkpt>
      <trkpt lat="62.635986052576" lon="17.985881522914">
        <ele>61.6</ele>
        <time>2018-02-15T18:02:03Z</time>
      </trkpt>
      <trkpt lat="62.63596224798" lon="17.985907506804">
        <ele>61.8</ele>
        <time>2018-02-15T18:02:04Z</time>
      </trkpt>
      <trkpt lat="62.635940035945" lon="17.985946147363">
        <ele>61.8</ele>
        <time>2018-02-15T18:02:05Z</time>
      </trkpt>
      <trkpt lat="62.635913884417" lon="17.985966683018">
        <ele>61.8</ele>
        <time>2018-02-15T18:02:06Z</time>
      </trkpt>
      <trkpt lat="62.635888068165" lon="17.985992918365">
        <ele>62</ele>
        <time>2018-02-15T18:02:07Z</time>
      </trkpt>
      <trkpt lat="62.635866191406" lon="17.986010604174">
        <ele>62.2</ele>
        <time>2018-02-15T18:02:08Z</time>
      </trkpt>
      <trkpt lat="62.635843392638" lon="17.986027200336">
        <ele>62.4</ele>
        <time>2018-02-15T18:02:09Z</time>
      </trkpt>
      <trkpt lat="62.63582227025" lon="17.986049747647">
        <ele>62.8</ele>
        <time>2018-02-15T18:02:10Z</time>
      </trkpt>
      <trkpt lat="62.635796453998" lon="17.986059722108">
        <ele>63</ele>
        <time>2018-02-15T18:02:11Z</time>
      </trkpt>
      <trkpt lat="62.635770386289" lon="17.986087466197">
        <ele>63</ele>
        <time>2018-02-15T18:02:12Z</time>
      </trkpt>
      <trkpt lat="62.635747084607" lon="17.986119987969">
        <ele>63.2</ele>
        <time>2018-02-15T18:02:13Z</time>
      </trkpt>
      <trkpt lat="62.635728225332" lon="17.98614840261">
        <ele>63.4</ele>
        <time>2018-02-15T18:02:14Z</time>
      </trkpt>
      <trkpt lat="62.635710958618" lon="17.986182181667">
        <ele>63.4</ele>
        <time>2018-02-15T18:02:15Z</time>
      </trkpt>
      <trkpt lat="62.635697631397" lon="17.98620875229">
        <ele>63.4</ele>
        <time>2018-02-15T18:02:16Z</time>
      </trkpt>
      <trkpt lat="62.635680197045" lon="17.98623138342">
        <ele>63.4</ele>
        <time>2018-02-15T18:02:17Z</time>
      </trkpt>
      <trkpt lat="62.635663768521" lon="17.986261809717">
        <ele>63.4</ele>
        <time>2018-02-15T18:02:18Z</time>
      </trkpt>
      <trkpt lat="62.63564541216" lon="17.986290475815">
        <ele>63.4</ele>
        <time>2018-02-15T18:02:19Z</time>
      </trkpt>
      <trkpt lat="62.635624289772" lon="17.986327859089">
        <ele>63.6</ele>
        <time>2018-02-15T18:02:20Z</time>
      </trkpt>
      <trkpt lat="62.635607777429" lon="17.986369181856">
        <ele>63.6</ele>
        <time>2018-02-15T18:02:21Z</time>
      </trkpt>
      <trkpt lat="62.63558841524" lon="17.9864090797">
        <ele>63.8</ele>
        <time>2018-02-15T18:02:22Z</time>
      </trkpt>
      <trkpt lat="62.63557248963" lon="17.986455599245">
        <ele>63.8</ele>
        <time>2018-02-15T18:02:23Z</time>
      </trkpt>
      <trkpt lat="62.635552708346" lon="17.986499352763">
        <ele>64</ele>
        <time>2018-02-15T18:02:24Z</time>
      </trkpt>
      <trkpt lat="62.635536028365" lon="17.986554757122">
        <ele>64.2</ele>
        <time>2018-02-15T18:02:25Z</time>
      </trkpt>
      <trkpt lat="62.635515660348" lon="17.986606976359">
        <ele>64.2</ele>
        <time>2018-02-15T18:02:26Z</time>
      </trkpt>
      <trkpt lat="62.635499315643" lon="17.986658525044">
        <ele>64.4</ele>
        <time>2018-02-15T18:02:27Z</time>
      </trkpt>
      <trkpt lat="62.635487078069" lon="17.986695656861">
        <ele>64.6</ele>
        <time>2018-02-15T18:02:28Z</time>
      </trkpt>
      <trkpt lat="62.635474086124" lon="17.986730777022">
        <ele>64.6</ele>
        <time>2018-02-15T18:02:29Z</time>
      </trkpt>
      <trkpt lat="62.635459753075" lon="17.986780649327">
        <ele>64.8</ele>
        <time>2018-02-15T18:02:30Z</time>
      </trkpt>
      <trkpt lat="62.635440307067" lon="17.986818619334">
        <ele>65</ele>
        <time>2018-02-15T18:02:31Z</time>
      </trkpt>
      <trkpt lat="62.635421028697" lon="17.986876286806">
        <ele>65.2</ele>
        <time>2018-02-15T18:02:32Z</time>
      </trkpt>
      <trkpt lat="62.635402253241" lon="17.986923393084">
        <ele>65.4</ele>
        <time>2018-02-15T18:02:33Z</time>
      </trkpt>
      <trkpt lat="62.635383645423" lon="17.986959351435">
        <ele>65.4</ele>
        <time>2018-02-15T18:02:34Z</time>
      </trkpt>
      <trkpt lat="62.635364786148" lon="17.986998578727">
        <ele>65.4</ele>
        <time>2018-02-15T18:02:35Z</time>
      </trkpt>
      <trkpt lat="62.635337293516" lon="17.987038392752">
        <ele>65.4</ele>
        <time>2018-02-15T18:02:36Z</time>
      </trkpt>
      <trkpt lat="62.635313656558" lon="17.987071668895">
        <ele>65.4</ele>
        <time>2018-02-15T18:02:37Z</time>
      </trkpt>
      <trkpt lat="62.635294629645" lon="17.987106705237">
        <ele>65.6</ele>
        <time>2018-02-15T18:02:38Z</time>
      </trkpt>
      <trkpt lat="62.635275854189" lon="17.987142915045">
        <ele>65.6</ele>
        <time>2018-02-15T18:02:39Z</time>
      </trkpt>
      <trkpt lat="62.635260850588" lon="17.987185076002">
        <ele>65.8</ele>
        <time>2018-02-15T18:02:40Z</time>
      </trkpt>
      <trkpt lat="62.635243835331" lon="17.98722799133">
        <ele>65.8</ele>
        <time>2018-02-15T18:02:41Z</time>
      </trkpt>
      <trkpt lat="62.635229502282" lon="17.987269481735">
        <ele>66</ele>
        <time>2018-02-15T18:02:42Z</time>
      </trkpt>
      <trkpt lat="62.635207122609" lon="17.987303679887">
        <ele>66.2</ele>
        <time>2018-02-15T18:02:43Z</time>
      </trkpt>
      <trkpt lat="62.635193292474" lon="17.987334609098">
        <ele>66.2</ele>
        <time>2018-02-15T18:02:44Z</time>
      </trkpt>
      <trkpt lat="62.635171248077" lon="17.987372076191">
        <ele>66.4</ele>
        <time>2018-02-15T18:02:45Z</time>
      </trkpt>
      <trkpt lat="62.635156831209" lon="17.987405519972">
        <ele>66.4</ele>
        <time>2018-02-15T18:02:46Z</time>
      </trkpt>
      <trkpt lat="62.635136966106" lon="17.987435778631">
        <ele>66.4</ele>
        <time>2018-02-15T18:02:47Z</time>
      </trkpt>
      <trkpt lat="62.63512070522" lon="17.987479951244">
        <ele>66.4</ele>
        <time>2018-02-15T18:02:48Z</time>
      </trkpt>
      <trkpt lat="62.635102851773" lon="17.987514149396">
        <ele>66.6</ele>
        <time>2018-02-15T18:02:49Z</time>
      </trkpt>
      <trkpt lat="62.635083405765" lon="17.987556897086">
        <ele>66.6</ele>
        <time>2018-02-15T18:02:50Z</time>
      </trkpt>
      <trkpt lat="62.63507041382" lon="17.987593777446">
        <ele>66.8</ele>
        <time>2018-02-15T18:02:51Z</time>
      </trkpt>
      <trkpt lat="62.635053482382" lon="17.987628562331">
        <ele>67</ele>
        <time>2018-02-15T18:02:52Z</time>
      </trkpt>
      <trkpt lat="62.635034287831" lon="17.987667035252">
        <ele>67.2</ele>
        <time>2018-02-15T18:02:53Z</time>
      </trkpt>
      <trkpt lat="62.635018194583" lon="17.987701065766">
        <ele>67.4</ele>
        <time>2018-02-15T18:02:54Z</time>
      </trkpt>
      <trkpt lat="62.634999000032" lon="17.987739538687">
        <ele>67.4</ele>
        <time>2018-02-15T18:02:55Z</time>
      </trkpt>
      <trkpt lat="62.634977961463" lon="17.987773401563">
        <ele>67.6</ele>
        <time>2018-02-15T18:02:56Z</time>
      </trkpt>
      <trkpt lat="62.63495390541" lon="17.987808270267">
        <ele>67.8</ele>
        <time>2018-02-15T18:02:57Z</time>
      </trkpt>
      <trkpt lat="62.634930100814" lon="17.987839367116">
        <ele>68</ele>
        <time>2018-02-15T18:02:58Z</time>
      </trkpt>
      <trkpt lat="62.634916857412" lon="17.987876247476">
        <ele>68</ele>
        <time>2018-02-15T18:02:59Z</time>
      </trkpt>
      <trkpt lat="62.634892549902" lon="17.987917067329">
        <ele>68.2</ele>
        <time>2018-02-15T18:03:00Z</time>
      </trkpt>
      <trkpt lat="62.634871343695" lon="17.987949840558">
        <ele>68.4</ele>
        <time>2018-02-15T18:03:01Z</time>
      </trkpt>
      <trkpt lat="62.634852987334" lon="17.987970292394">
        <ele>68.6</ele>
        <time>2018-02-15T18:03:02Z</time>
      </trkpt>
      <trkpt lat="62.634830859118" lon="17.98799074423">
        <ele>68.6</ele>
        <time>2018-02-15T18:03:03Z</time>
      </trkpt>
      <trkpt lat="62.634812754214" lon="17.988018572138">
        <ele>68.8</ele>
        <time>2018-02-15T18:03:04Z</time>
      </trkpt>
      <trkpt lat="62.634786351229" lon="17.988038856336">
        <ele>68.8</ele>
        <time>2018-02-15T18:03:05Z</time>
      </trkpt>
      <trkpt lat="62.634761373167" lon="17.988062241837">
        <ele>69</ele>
        <time>2018-02-15T18:03:06Z</time>
      </trkpt>
      <trkpt lat="62.634738155304" lon="17.988074982325">
        <ele>69</ele>
        <time>2018-02-15T18:03:07Z</time>
      </trkpt>
      <trkpt lat="62.634712171414" lon="17.988080598198">
        <ele>69.2</ele>
        <time>2018-02-15T18:03:08Z</time>
      </trkpt>
      <trkpt lat="62.634692893044" lon="17.988095434161">
        <ele>69.2</ele>
        <time>2018-02-15T18:03:09Z</time>
      </trkpt>
      <trkpt lat="62.634666992973" lon="17.988101972043">
        <ele>69.4</ele>
        <time>2018-02-15T18:03:10Z</time>
      </trkpt>
      <trkpt lat="62.634645870585" lon="17.988119909309">
        <ele>69.4</ele>
        <time>2018-02-15T18:03:11Z</time>
      </trkpt>
      <trkpt lat="62.634617623582" lon="17.98812485463">
        <ele>69.6</ele>
        <time>2018-02-15T18:03:12Z</time>
      </trkpt>
      <trkpt lat="62.634590550045" lon="17.988138684765">
        <ele>69.6</ele>
        <time>2018-02-15T18:03:13Z</time>
      </trkpt>
      <trkpt lat="62.63456833801" lon="17.988148659226">
        <ele>69.8</ele>
        <time>2018-02-15T18:03:14Z</time>
      </trkpt>
      <trkpt lat="62.634538833722" lon="17.988160980619">
        <ele>70</ele>
        <time>2018-02-15T18:03:15Z</time>
      </trkpt>
      <trkpt lat="62.634511424909" lon="17.988172882917">
        <ele>70.2</ele>
        <time>2018-02-15T18:03:16Z</time>
      </trkpt>
      <trkpt lat="62.634481752983" lon="17.98819190983">
        <ele>70.2</ele>
        <time>2018-02-15T18:03:17Z</time>
      </trkpt>
      <trkpt lat="62.634451578143" lon="17.988194340581">
        <ele>70.4</ele>
        <time>2018-02-15T18:03:18Z</time>
      </trkpt>
      <trkpt lat="62.634424253149" lon="17.988207416345">
        <ele>70.6</ele>
        <time>2018-02-15T18:03:19Z</time>
      </trkpt>
      <trkpt lat="62.634393743033" lon="17.988218899548">
        <ele>70.8</ele>
        <time>2018-02-15T18:03:20Z</time>
      </trkpt>
      <trkpt lat="62.634368094419" lon="17.988217306987">
        <ele>70.8</ele>
        <time>2018-02-15T18:03:21Z</time>
      </trkpt>
      <trkpt lat="62.634343786909" lon="17.988207248707">
        <ele>71</ele>
        <time>2018-02-15T18:03:22Z</time>
      </trkpt>
      <trkpt lat="62.63431688101" lon="17.988203309214">
        <ele>71.2</ele>
        <time>2018-02-15T18:03:23Z</time>
      </trkpt>
      <trkpt lat="62.63428586798" lon="17.988197693341">
        <ele>71.2</ele>
        <time>2018-02-15T18:03:24Z</time>
      </trkpt>
      <trkpt lat="62.634253765303" lon="17.988185371948">
        <ele>71</ele>
        <time>2018-02-15T18:03:25Z</time>
      </trkpt>
      <trkpt lat="62.634226188852" lon="17.988201213739">
        <ele>71.4</ele>
        <time>2018-02-15T18:03:26Z</time>
      </trkpt>
      <trkpt lat="62.6341919907" lon="17.98820699725">
        <ele>71.4</ele>
        <time>2018-02-15T18:03:27Z</time>
      </trkpt>
      <trkpt lat="62.634166761181" lon="17.988207164888">
        <ele>71.4</ele>
        <time>2018-02-15T18:03:28Z</time>
      </trkpt>
      <trkpt lat="62.634146560802" lon="17.988206326698">
        <ele>71.2</ele>
        <time>2018-02-15T18:03:29Z</time>
      </trkpt>
      <trkpt lat="62.634124851681" lon="17.988199788816">
        <ele>71.2</ele>
        <time>2018-02-15T18:03:30Z</time>
      </trkpt>
      <trkpt lat="62.634096856135" lon="17.988193921486">
        <ele>71.4</ele>
        <time>2018-02-15T18:03:31Z</time>
      </trkpt>
      <trkpt lat="62.634073386815" lon="17.988191574554">
        <ele>71.4</ele>
        <time>2018-02-15T18:03:32Z</time>
      </trkpt>
      <trkpt lat="62.634044888355" lon="17.988165674483">
        <ele>71.2</ele>
        <time>2018-02-15T18:03:33Z</time>
      </trkpt>
      <trkpt lat="62.634019910293" lon="17.988144216819">
        <ele>71.4</ele>
        <time>2018-02-15T18:03:34Z</time>
      </trkpt>
      <trkpt lat="62.633995518964" lon="17.988146899027">
        <ele>71.4</ele>
        <time>2018-02-15T18:03:35Z</time>
      </trkpt>
      <trkpt lat="62.63397070854" lon="17.98814245662">
        <ele>71.6</ele>
        <time>2018-02-15T18:03:36Z</time>
      </trkpt>
      <trkpt lat="62.633941288071" lon="17.988136505471">
        <ele>71.6</ele>
        <time>2018-02-15T18:03:37Z</time>
      </trkpt>
      <trkpt lat="62.633915890914" lon="17.988126195734">
        <ele>71.8</ele>
        <time>2018-02-15T18:03:38Z</time>
      </trkpt>
      <trkpt lat="62.633892924508" lon="17.988099289835">
        <ele>71.8</ele>
        <time>2018-02-15T18:03:39Z</time>
      </trkpt>
      <trkpt lat="62.633871299206" lon="17.988078502723">
        <ele>72</ele>
        <time>2018-02-15T18:03:40Z</time>
      </trkpt>
      <trkpt lat="62.633846237325" lon="17.988056374507">
        <ele>72.2</ele>
        <time>2018-02-15T18:03:41Z</time>
      </trkpt>
      <trkpt lat="62.633818828512" lon="17.988023014545">
        <ele>72.2</ele>
        <time>2018-02-15T18:03:42Z</time>
      </trkpt>
      <trkpt lat="62.6337896595" lon="17.988003903813">
        <ele>72.4</ele>
        <time>2018-02-15T18:03:43Z</time>
      </trkpt>
      <trkpt lat="62.633764346162" lon="17.987984541624">
        <ele>72.6</ele>
        <time>2018-02-15T18:03:44Z</time>
      </trkpt>
      <trkpt lat="62.633731489114" lon="17.987948415635">
        <ele>72.8</ele>
        <time>2018-02-15T18:03:45Z</time>
      </trkpt>
      <trkpt lat="62.633703242111" lon="17.987921593555">
        <ele>72.8</ele>
        <time>2018-02-15T18:03:46Z</time>
      </trkpt>
      <trkpt lat="62.633673905461" lon="17.987887479222">
        <ele>72.8</ele>
        <time>2018-02-15T18:03:47Z</time>
      </trkpt>
      <trkpt lat="62.633645826096" lon="17.987858142572">
        <ele>72.8</ele>
        <time>2018-02-15T18:03:48Z</time>
      </trkpt>
      <trkpt lat="62.633623530242" lon="17.987836684908">
        <ele>72.8</ele>
        <time>2018-02-15T18:03:49Z</time>
      </trkpt>
      <trkpt lat="62.633601821121" lon="17.987815813977">
        <ele>72.8</ele>
        <time>2018-02-15T18:03:50Z</time>
      </trkpt>
      <trkpt lat="62.633586063149" lon="17.987790835915">
        <ele>73</ele>
        <time>2018-02-15T18:03:51Z</time>
      </trkpt>
      <trkpt lat="62.633564270209" lon="17.987774910305">
        <ele>73</ele>
        <time>2018-02-15T18:03:52Z</time>
      </trkpt>
      <trkpt lat="62.633540549432" lon="17.987743561999">
        <ele>73</ele>
        <time>2018-02-15T18:03:53Z</time>
      </trkpt>
      <trkpt lat="62.633517918302" lon="17.987717075195">
        <ele>73.2</ele>
        <time>2018-02-15T18:03:54Z</time>
      </trkpt>
      <trkpt lat="62.633490006575" lon="17.987687403269">
        <ele>73.6</ele>
        <time>2018-02-15T18:03:55Z</time>
      </trkpt>
      <trkpt lat="62.633464357961" lon="17.987647337787">
        <ele>73.8</ele>
        <time>2018-02-15T18:03:56Z</time>
      </trkpt>
      <trkpt lat="62.633439212261" lon="17.987610122151">
        <ele>74</ele>
        <time>2018-02-15T18:03:57Z</time>
      </trkpt>
      <trkpt lat="62.63341834133" lon="17.987578522388">
        <ele>74.2</ele>
        <time>2018-02-15T18:03:58Z</time>
      </trkpt>
      <trkpt lat="62.633401828987" lon="17.987539714191">
        <ele>74.4</ele>
        <time>2018-02-15T18:03:59Z</time>
      </trkpt>
      <trkpt lat="62.633384478454" lon="17.987492607913">
        <ele>74.6</ele>
        <time>2018-02-15T18:04:00Z</time>
      </trkpt>
      <trkpt lat="62.633369307215" lon="17.987449357309">
        <ele>74.8</ele>
        <time>2018-02-15T18:04:01Z</time>
      </trkpt>
      <trkpt lat="62.63334877156" lon="17.987401161384">
        <ele>75</ele>
        <time>2018-02-15T18:04:02Z</time>
      </trkpt>
      <trkpt lat="62.633328990276" lon="17.98734869069">
        <ele>75.2</ele>
        <time>2018-02-15T18:04:03Z</time>
      </trkpt>
      <trkpt lat="62.633308789897" lon="17.987291442313">
        <ele>75.4</ele>
        <time>2018-02-15T18:04:04Z</time>
      </trkpt>
      <trkpt lat="62.633284733844" lon="17.987210892254">
        <ele>75.4</ele>
        <time>2018-02-15T18:04:05Z</time>
      </trkpt>
      <trkpt lat="62.63326495256" lon="17.987109555083">
        <ele>75.4</ele>
        <time>2018-02-15T18:04:06Z</time>
      </trkpt>
      <trkpt lat="62.633239555403" lon="17.986985670601">
        <ele>75.2</ele>
        <time>2018-02-15T18:04:07Z</time>
      </trkpt>
      <trkpt lat="62.633218768291" lon="17.986869162191">
        <ele>74.4</ele>
        <time>2018-02-15T18:04:08Z</time>
      </trkpt>
      <trkpt lat="62.633204854337" lon="17.986764556079">
        <ele>73.4</ele>
        <time>2018-02-15T18:04:09Z</time>
      </trkpt>
      <trkpt lat="62.633191024202" lon="17.986656597207">
        <ele>73</ele>
        <time>2018-02-15T18:04:10Z</time>
      </trkpt>
      <trkpt lat="62.633171662013" lon="17.98658174684">
        <ele>72.2</ele>
        <time>2018-02-15T18:04:11Z</time>
      </trkpt>
      <trkpt lat="62.633160849362" lon="17.986493401614">
        <ele>71.6</ele>
        <time>2018-02-15T18:04:12Z</time>
      </trkpt>
      <trkpt lat="62.633156742231" lon="17.986395417203">
        <ele>71.2</ele>
        <time>2018-02-15T18:04:13Z</time>
      </trkpt>
      <trkpt lat="62.633155652584" lon="17.986293074204">
        <ele>71.2</ele>
        <time>2018-02-15T18:04:14Z</time>
      </trkpt>
      <trkpt lat="62.633150707263" lon="17.986172626301">
        <ele>71.2</ele>
        <time>2018-02-15T18:04:15Z</time>
      </trkpt>
      <trkpt lat="62.633152383643" lon="17.986062823411">
        <ele>71</ele>
        <time>2018-02-15T18:04:16Z</time>
      </trkpt>
      <trkpt lat="62.633153389471" lon="17.985943968069">
        <ele>70.8</ele>
        <time>2018-02-15T18:04:17Z</time>
      </trkpt>
      <trkpt lat="62.633152802738" lon="17.985833578446">
        <ele>70.6</ele>
        <time>2018-02-15T18:04:18Z</time>
      </trkpt>
      <trkpt lat="62.633148611788" lon="17.985738695338">
        <ele>70</ele>
        <time>2018-02-15T18:04:19Z</time>
      </trkpt>
      <trkpt lat="62.633139978431" lon="17.985631742294">
        <ele>69.6</ele>
        <time>2018-02-15T18:04:20Z</time>
      </trkpt>
      <trkpt lat="62.633138050594" lon="17.985523699603">
        <ele>69.6</ele>
        <time>2018-02-15T18:04:21Z</time>
      </trkpt>
      <trkpt lat="62.633137128585" lon="17.98541750093">
        <ele>69.8</ele>
        <time>2018-02-15T18:04:22Z</time>
      </trkpt>
      <trkpt lat="62.633146432494" lon="17.985298142674">
        <ele>69.8</ele>
        <time>2018-02-15T18:04:23Z</time>
      </trkpt>
      <trkpt lat="62.63316436976" lon="17.985173839097">
        <ele>69.8</ele>
        <time>2018-02-15T18:04:24Z</time>
      </trkpt>
      <trkpt lat="62.633182558483" lon="17.985032184987">
        <ele>69</ele>
        <time>2018-02-15T18:04:25Z</time>
      </trkpt>
      <trkpt lat="62.633205273432" lon="17.984911988541">
        <ele>68</ele>
        <time>2018-02-15T18:04:26Z</time>
      </trkpt>
      <trkpt lat="62.633228658933" lon="17.984798749072">
        <ele>67</ele>
        <time>2018-02-15T18:04:27Z</time>
      </trkpt>
      <trkpt lat="62.633250032778" lon="17.98469833391">
        <ele>66.4</ele>
        <time>2018-02-15T18:04:28Z</time>
      </trkpt>
      <trkpt lat="62.633270149338" lon="17.984604121354">
        <ele>65.6</ele>
        <time>2018-02-15T18:04:29Z</time>
      </trkpt>
      <trkpt lat="62.633302922567" lon="17.984516111404">
        <ele>65.2</ele>
        <time>2018-02-15T18:04:30Z</time>
      </trkpt>
      <trkpt lat="62.633331085751" lon="17.984456348457">
        <ele>65</ele>
        <time>2018-02-15T18:04:31Z</time>
      </trkpt>
      <trkpt lat="62.633346592266" lon="17.984377726235">
        <ele>65</ele>
        <time>2018-02-15T18:04:32Z</time>
      </trkpt>
      <trkpt lat="62.633356902003" lon="17.984278065444">
        <ele>65.2</ele>
        <time>2018-02-15T18:04:33Z</time>
      </trkpt>
      <trkpt lat="62.63335966803" lon="17.984189049666">
        <ele>65.6</ele>
        <time>2018-02-15T18:04:34Z</time>
      </trkpt>
      <trkpt lat="62.633368552844" lon="17.984110343625">
        <ele>65.6</ele>
        <time>2018-02-15T18:04:35Z</time>
      </trkpt>
      <trkpt lat="62.633364194256" lon="17.98402442915">
        <ele>66</ele>
        <time>2018-02-15T18:04:36Z</time>
      </trkpt>
      <trkpt lat="62.63336972631" lon="17.983936754476">
        <ele>66.2</ele>
        <time>2018-02-15T18:04:37Z</time>
      </trkpt>
      <trkpt lat="62.633384143178" lon="17.983875315149">
        <ele>66.6</ele>
        <time>2018-02-15T18:04:38Z</time>
      </trkpt>
      <trkpt lat="62.633395374924" lon="17.983801638248">
        <ele>67</ele>
        <time>2018-02-15T18:04:39Z</time>
      </trkpt>
      <trkpt lat="62.633405600842" lon="17.983720333818">
        <ele>67</ele>
        <time>2018-02-15T18:04:40Z</time>
      </trkpt>
      <trkpt lat="62.633419514796" lon="17.983647746564">
        <ele>67</ele>
        <time>2018-02-15T18:04:41Z</time>
      </trkpt>
      <trkpt lat="62.633433931664" lon="17.983570297808">
        <ele>67.2</ele>
        <time>2018-02-15T18:04:42Z</time>
      </trkpt>
      <trkpt lat="62.633449270541" lon="17.983512127422">
        <ele>67.2</ele>
        <time>2018-02-15T18:04:43Z</time>
      </trkpt>
      <trkpt lat="62.633463352133" lon="17.983449933724">
        <ele>67.4</ele>
        <time>2018-02-15T18:04:44Z</time>
      </trkpt>
      <trkpt lat="62.633482714322" lon="17.983370892407">
        <ele>67.4</ele>
        <time>2018-02-15T18:04:45Z</time>
      </trkpt>
      <trkpt lat="62.633492437326" lon="17.983296461135">
        <ele>67.4</ele>
        <time>2018-02-15T18:04:46Z</time>
      </trkpt>
      <trkpt lat="62.633505177814" lon="17.983208367366">
        <ele>67.6</ele>
        <time>2018-02-15T18:04:47Z</time>
      </trkpt>
      <trkpt lat="62.633516912474" lon="17.983139132872">
        <ele>67.6</ele>
        <time>2018-02-15T18:04:48Z</time>
      </trkpt>
      <trkpt lat="62.633529150048" lon="17.983082387409">
        <ele>67.6</ele>
        <time>2018-02-15T18:04:49Z</time>
      </trkpt>
      <trkpt lat="62.633546919676" lon="17.98302195391">
        <ele>67.6</ele>
        <time>2018-02-15T18:04:50Z</time>
      </trkpt>
      <trkpt lat="62.633561168906" lon="17.982956239814">
        <ele>67.4</ele>
        <time>2018-02-15T18:04:51Z</time>
      </trkpt>
      <trkpt lat="62.633572652109" lon="17.982895135763">
        <ele>67.4</ele>
        <time>2018-02-15T18:04:52Z</time>
      </trkpt>
      <trkpt lat="62.633588242443" lon="17.982830343676">
        <ele>67.4</ele>
        <time>2018-02-15T18:04:53Z</time>
      </trkpt>
      <trkpt lat="62.63359855218" lon="17.982769491082">
        <ele>67.6</ele>
        <time>2018-02-15T18:04:54Z</time>
      </trkpt>
      <trkpt lat="62.633607939908" lon="17.982714170542">
        <ele>67.4</ele>
        <time>2018-02-15T18:04:55Z</time>
      </trkpt>
      <trkpt lat="62.633620848034" lon="17.98264057746">
        <ele>67.6</ele>
        <time>2018-02-15T18:04:56Z</time>
      </trkpt>
      <trkpt lat="62.633634007617" lon="17.982571762061">
        <ele>67.6</ele>
        <time>2018-02-15T18:04:57Z</time>
      </trkpt>
      <trkpt lat="62.633638952938" lon="17.982496576418">
        <ele>67.6</ele>
        <time>2018-02-15T18:04:58Z</time>
      </trkpt>
      <trkpt lat="62.633652363978" lon="17.982430024132">
        <ele>67.8</ele>
        <time>2018-02-15T18:04:59Z</time>
      </trkpt>
      <trkpt lat="62.633659153317" lon="17.982351150453">
        <ele>67.6</ele>
        <time>2018-02-15T18:05:00Z</time>
      </trkpt>
      <trkpt lat="62.633671558529" lon="17.982284598167">
        <ele>67.8</ele>
        <time>2018-02-15T18:05:01Z</time>
      </trkpt>
      <trkpt lat="62.633683544646" lon="17.982224248487">
        <ele>67.6</ele>
        <time>2018-02-15T18:05:02Z</time>
      </trkpt>
      <trkpt lat="62.633703745025" lon="17.982168005938">
        <ele>67.6</ele>
        <time>2018-02-15T18:05:03Z</time>
      </trkpt>
      <trkpt lat="62.633711959287" lon="17.982107069525">
        <ele>67.6</ele>
        <time>2018-02-15T18:05:04Z</time>
      </trkpt>
      <trkpt lat="62.633719586816" lon="17.982030291321">
        <ele>67.6</ele>
        <time>2018-02-15T18:05:05Z</time>
      </trkpt>
      <trkpt lat="62.633722771938" lon="17.981969103451">
        <ele>67.6</ele>
        <time>2018-02-15T18:05:06Z</time>
      </trkpt>
      <trkpt lat="62.633732159666" lon="17.981896432378">
        <ele>67.6</ele>
        <time>2018-02-15T18:05:07Z</time>
      </trkpt>
      <trkpt lat="62.633744564878" lon="17.981853768507">
        <ele>67.6</ele>
        <time>2018-02-15T18:05:08Z</time>
      </trkpt>
      <trkpt lat="62.63374523543" lon="17.981792915913">
        <ele>67.8</ele>
        <time>2018-02-15T18:05:09Z</time>
      </trkpt>
      <trkpt lat="62.633754036425" lon="17.981733572061">
        <ele>67.8</ele>
        <time>2018-02-15T18:05:10Z</time>
      </trkpt>
      <trkpt lat="62.63375529371" lon="17.981670204897">
        <ele>67.8</ele>
        <time>2018-02-15T18:05:11Z</time>
      </trkpt>
      <trkpt lat="62.633758730289" lon="17.981593426693">
        <ele>67.8</ele>
        <time>2018-02-15T18:05:12Z</time>
      </trkpt>
      <trkpt lat="62.633766776913" lon="17.9815308139">
        <ele>67.6</ele>
        <time>2018-02-15T18:05:13Z</time>
      </trkpt>
      <trkpt lat="62.633773985347" lon="17.981456298809">
        <ele>67.6</ele>
        <time>2018-02-15T18:05:14Z</time>
      </trkpt>
      <trkpt lat="62.633794604821" lon="17.981378179501">
        <ele>67.6</ele>
        <time>2018-02-15T18:05:15Z</time>
      </trkpt>
      <trkpt lat="62.633804076368" lon="17.981297126528">
        <ele>67.6</ele>
        <time>2018-02-15T18:05:16Z</time>
      </trkpt>
      <trkpt lat="62.633819079969" lon="17.981231160975">
        <ele>67.4</ele>
        <time>2018-02-15T18:05:17Z</time>
      </trkpt>
      <trkpt lat="62.633829724982" lon="17.98117458315">
        <ele>67.4</ele>
        <time>2018-02-15T18:05:18Z</time>
      </trkpt>
      <trkpt lat="62.633841543461" lon="17.981094787462">
        <ele>67.4</ele>
        <time>2018-02-15T18:05:19Z</time>
      </trkpt>
      <trkpt lat="62.633855625053" lon="17.981022116389">
        <ele>67.6</ele>
        <time>2018-02-15T18:05:20Z</time>
      </trkpt>
      <trkpt lat="62.633861660021" lon="17.980974171921">
        <ele>67.6</ele>
        <time>2018-02-15T18:05:21Z</time>
      </trkpt>
      <trkpt lat="62.633876412165" lon="17.980922120322">
        <ele>67.8</ele>
        <time>2018-02-15T18:05:22Z</time>
      </trkpt>
      <trkpt lat="62.633897953648" lon="17.98087786389">
        <ele>68</ele>
        <time>2018-02-15T18:05:23Z</time>
      </trkpt>
      <trkpt lat="62.633913543982" lon="17.980831679621">
        <ele>68.2</ele>
        <time>2018-02-15T18:05:24Z</time>
      </trkpt>
      <trkpt lat="62.63393466637" lon="17.980774179787">
        <ele>68.4</ele>
        <time>2018-02-15T18:05:25Z</time>
      </trkpt>
      <trkpt lat="62.633951513989" lon="17.980723050197">
        <ele>68.8</ele>
        <time>2018-02-15T18:05:26Z</time>
      </trkpt>
      <trkpt lat="62.63396819397" lon="17.980681978887">
        <ele>68.8</ele>
        <time>2018-02-15T18:05:27Z</time>
      </trkpt>
      <trkpt lat="62.633985712141" lon="17.980629675831">
        <ele>69</ele>
        <time>2018-02-15T18:05:28Z</time>
      </trkpt>
      <trkpt lat="62.634000296647" lon="17.980578294784">
        <ele>69</ele>
        <time>2018-02-15T18:05:29Z</time>
      </trkpt>
      <trkpt lat="62.634023765967" lon="17.980525321176">
        <ele>69.2</ele>
        <time>2018-02-15T18:05:30Z</time>
      </trkpt>
      <trkpt lat="62.634045223631" lon="17.980477628165">
        <ele>69.2</ele>
        <time>2018-02-15T18:05:31Z</time>
      </trkpt>
      <trkpt lat="62.634059640499" lon="17.980432198267">
        <ele>69.2</ele>
        <time>2018-02-15T18:05:32Z</time>
      </trkpt>
      <trkpt lat="62.634079589421" lon="17.980378135012">
        <ele>69.4</ele>
        <time>2018-02-15T18:05:33Z</time>
      </trkpt>
      <trkpt lat="62.634095850307" lon="17.980337818073">
        <ele>69.4</ele>
        <time>2018-02-15T18:05:34Z</time>
      </trkpt>
      <trkpt lat="62.634117307971" lon="17.980293142546">
        <ele>69.6</ele>
        <time>2018-02-15T18:05:35Z</time>
      </trkpt>
      <trkpt lat="62.634138178902" lon="17.980238827834">
        <ele>69.6</ele>
        <time>2018-02-15T18:05:36Z</time>
      </trkpt>
      <trkpt lat="62.634158798376" lon="17.98019473904">
        <ele>69.6</ele>
        <time>2018-02-15T18:05:37Z</time>
      </trkpt>
      <trkpt lat="62.634182938248" lon="17.980144950554">
        <ele>69.6</ele>
        <time>2018-02-15T18:05:38Z</time>
      </trkpt>
      <trkpt lat="62.634200959333" lon="17.980093653326">
        <ele>69.6</ele>
        <time>2018-02-15T18:05:39Z</time>
      </trkpt>
      <trkpt lat="62.634220070065" lon="17.980051492369">
        <ele>69.6</ele>
        <time>2018-02-15T18:05:40Z</time>
      </trkpt>
      <trkpt lat="62.634237588236" lon="17.979992483793">
        <ele>69.6</ele>
        <time>2018-02-15T18:05:41Z</time>
      </trkpt>
      <trkpt lat="62.634246975964" lon="17.979936325063">
        <ele>69.6</ele>
        <time>2018-02-15T18:05:42Z</time>
      </trkpt>
      <trkpt lat="62.634269439456" lon="17.979883099998">
        <ele>69.6</ele>
        <time>2018-02-15T18:05:43Z</time>
      </trkpt>
      <trkpt lat="62.634287376722" lon="17.979830713123">
        <ele>69.6</ele>
        <time>2018-02-15T18:05:44Z</time>
      </trkpt>
      <trkpt lat="62.634303889065" lon="17.979778410067">
        <ele>69.6</ele>
        <time>2018-02-15T18:05:45Z</time>
      </trkpt>
      <trkpt lat="62.634318808847" lon="17.979723508622">
        <ele>69.6</ele>
        <time>2018-02-15T18:05:46Z</time>
      </trkpt>
      <trkpt lat="62.634330124412" lon="17.979655447594">
        <ele>69.6</ele>
        <time>2018-02-15T18:05:47Z</time>
      </trkpt>
      <trkpt lat="62.634343870728" lon="17.979593924448">
        <ele>69.4</ele>
        <time>2018-02-15T18:05:48Z</time>
      </trkpt>
      <trkpt lat="62.634351330619" lon="17.979536340795">
        <ele>69.4</ele>
        <time>2018-02-15T18:05:49Z</time>
      </trkpt>
      <trkpt lat="62.634362730003" lon="17.979477918952">
        <ele>69.4</ele>
        <time>2018-02-15T18:05:50Z</time>
      </trkpt>
      <trkpt lat="62.634372872102" lon="17.979415809073">
        <ele>69.2</ele>
        <time>2018-02-15T18:05:51Z</time>
      </trkpt>
      <trkpt lat="62.634383433296" lon="17.979357722506">
        <ele>69.2</ele>
        <time>2018-02-15T18:05:52Z</time>
      </trkpt>
      <trkpt lat="62.634395587051" lon="17.979308604572">
        <ele>69.2</ele>
        <time>2018-02-15T18:05:53Z</time>
      </trkpt>
      <trkpt lat="62.634401119105" lon="17.979236268775">
        <ele>69.2</ele>
        <time>2018-02-15T18:05:54Z</time>
      </trkpt>
      <trkpt lat="62.634410674471" lon="17.97915705982">
        <ele>69.2</ele>
        <time>2018-02-15T18:05:55Z</time>
      </trkpt>
      <trkpt lat="62.634424672244" lon="17.979087406231">
        <ele>69.2</ele>
        <time>2018-02-15T18:05:56Z</time>
      </trkpt>
      <trkpt lat="62.634433808515" lon="17.979020267212">
        <ele>69.2</ele>
        <time>2018-02-15T18:05:57Z</time>
      </trkpt>
      <trkpt lat="62.634444621166" lon="17.97895840879">
        <ele>69</ele>
        <time>2018-02-15T18:05:58Z</time>
      </trkpt>
      <trkpt lat="62.634468509581" lon="17.978834440489">
        <ele>69</ele>
        <time>2018-02-15T18:06:00Z</time>
      </trkpt>
      <trkpt lat="62.634478232585" lon="17.978773420257">
        <ele>69</ele>
        <time>2018-02-15T18:06:01Z</time>
      </trkpt>
      <trkpt lat="62.634492984729" lon="17.978722793581">
        <ele>69</ele>
        <time>2018-02-15T18:06:02Z</time>
      </trkpt>
      <trkpt lat="62.634516537868" lon="17.978681470814">
        <ele>69.2</ele>
        <time>2018-02-15T18:06:03Z</time>
      </trkpt>
      <trkpt lat="62.63453648679" lon="17.97867174781">
        <ele>69.2</ele>
        <time>2018-02-15T18:06:04Z</time>
      </trkpt>
      <trkpt lat="62.634562554499" lon="17.978695384768">
        <ele>69.4</ele>
        <time>2018-02-15T18:06:05Z</time>
      </trkpt>
      <trkpt lat="62.634582000507" lon="17.978718434993">
        <ele>69.4</ele>
        <time>2018-02-15T18:06:06Z</time>
      </trkpt>
      <trkpt lat="62.634600859782" lon="17.978745927625">
        <ele>69.4</ele>
        <time>2018-02-15T18:06:07Z</time>
      </trkpt>
      <trkpt lat="62.634619802876" lon="17.978764703081">
        <ele>69.4</ele>
        <time>2018-02-15T18:06:08Z</time>
      </trkpt>
      <trkpt lat="62.634643188377" lon="17.978787669487">
        <ele>69.4</ele>
        <time>2018-02-15T18:06:09Z</time>
      </trkpt>
      <trkpt lat="62.634670261914" lon="17.978806612581">
        <ele>69.4</ele>
        <time>2018-02-15T18:06:10Z</time>
      </trkpt>
      <trkpt lat="62.634705465894" lon="17.978826729141">
        <ele>69.2</ele>
        <time>2018-02-15T18:06:11Z</time>
      </trkpt>
      <trkpt lat="62.634736478924" lon="17.97884273857">
        <ele>69.2</ele>
        <time>2018-02-15T18:06:12Z</time>
      </trkpt>
      <trkpt lat="62.634772353456" lon="17.978860843474">
        <ele>69</ele>
        <time>2018-02-15T18:06:13Z</time>
      </trkpt>
      <trkpt lat="62.63480722216" lon="17.978878277826">
        <ele>69</ele>
        <time>2018-02-15T18:06:14Z</time>
      </trkpt>
      <trkpt lat="62.634842677597" lon="17.978890766857">
        <ele>68.6</ele>
        <time>2018-02-15T18:06:15Z</time>
      </trkpt>
      <trkpt lat="62.63487679193" lon="17.978900992775">
        <ele>68.6</ele>
        <time>2018-02-15T18:06:16Z</time>
      </trkpt>
      <trkpt lat="62.634912666462" lon="17.978909877589">
        <ele>68.6</ele>
        <time>2018-02-15T18:06:17Z</time>
      </trkpt>
      <trkpt lat="62.63494719989" lon="17.978924965009">
        <ele>68.4</ele>
        <time>2018-02-15T18:06:18Z</time>
      </trkpt>
      <trkpt lat="62.634977458549" lon="17.978936364393">
        <ele>68.4</ele>
        <time>2018-02-15T18:06:19Z</time>
      </trkpt>
      <trkpt lat="62.635005789371" lon="17.978945584483">
        <ele>68.2</ele>
        <time>2018-02-15T18:06:20Z</time>
      </trkpt>
      <trkpt lat="62.635035712754" lon="17.978957319143">
        <ele>68.4</ele>
        <time>2018-02-15T18:06:21Z</time>
      </trkpt>
      <trkpt lat="62.635065552318" lon="17.978969808174">
        <ele>68.4</ele>
        <time>2018-02-15T18:06:22Z</time>
      </trkpt>
      <trkpt lat="62.635100504841" lon="17.978983303033">
        <ele>68.2</ele>
        <time>2018-02-15T18:06:23Z</time>
      </trkpt>
      <trkpt lat="62.635132858975" lon="17.978993277494">
        <ele>68</ele>
        <time>2018-02-15T18:06:24Z</time>
      </trkpt>
      <trkpt lat="62.635168649688" lon="17.97900534743">
        <ele>67.6</ele>
        <time>2018-02-15T18:06:25Z</time>
      </trkpt>
      <trkpt lat="62.635203602211" lon="17.979013477873">
        <ele>67.2</ele>
        <time>2018-02-15T18:06:26Z</time>
      </trkpt>
      <trkpt lat="62.635233274137" lon="17.979019009927">
        <ele>67</ele>
        <time>2018-02-15T18:06:27Z</time>
      </trkpt>
      <trkpt lat="62.635282894985" lon="17.979024709619">
        <ele>66.6</ele>
        <time>2018-02-15T18:06:28Z</time>
      </trkpt>
      <trkpt lat="62.63530426883" lon="17.97902546399">
        <ele>66.6</ele>
        <time>2018-02-15T18:06:29Z</time>
      </trkpt>
      <trkpt lat="62.6353570748" lon="17.979023368515">
        <ele>66.4</ele>
        <time>2018-02-15T18:06:30Z</time>
      </trkpt>
      <trkpt lat="62.635402085603" lon="17.979015740986">
        <ele>66.2</ele>
        <time>2018-02-15T18:06:31Z</time>
      </trkpt>
      <trkpt lat="62.635443911284" lon="17.979012723502">
        <ele>66</ele>
        <time>2018-02-15T18:06:32Z</time>
      </trkpt>
      <trkpt lat="62.635487916259" lon="17.979003754869">
        <ele>65.6</ele>
        <time>2018-02-15T18:06:33Z</time>
      </trkpt>
      <trkpt lat="62.635528484655" lon="17.978996881711">
        <ele>65.4</ele>
        <time>2018-02-15T18:06:34Z</time>
      </trkpt>
      <trkpt lat="62.63557919515" lon="17.978990092372">
        <ele>65</ele>
        <time>2018-02-15T18:06:35Z</time>
      </trkpt>
      <trkpt lat="62.635626217609" lon="17.978987577802">
        <ele>64.6</ele>
        <time>2018-02-15T18:06:36Z</time>
      </trkpt>
      <trkpt lat="62.635674497353" lon="17.978982129567">
        <ele>64.4</ele>
        <time>2018-02-15T18:06:37Z</time>
      </trkpt>
      <trkpt lat="62.635719256699" lon="17.978979195902">
        <ele>64.2</ele>
        <time>2018-02-15T18:06:38Z</time>
      </trkpt>
      <trkpt lat="62.635757142887" lon="17.978982464843">
        <ele>64</ele>
        <time>2018-02-15T18:06:39Z</time>
      </trkpt>
      <trkpt lat="62.635794861437" lon="17.978985733784">
        <ele>64</ele>
        <time>2018-02-15T18:06:40Z</time>
      </trkpt>
      <trkpt lat="62.635831741797" lon="17.978995540607">
        <ele>63.8</ele>
        <time>2018-02-15T18:06:41Z</time>
      </trkpt>
      <trkpt lat="62.635863425379" lon="17.97900450924">
        <ele>63.8</ele>
        <time>2018-02-15T18:06:42Z</time>
      </trkpt>
      <trkpt lat="62.635884380129" lon="17.979007107629">
        <ele>63.6</ele>
        <time>2018-02-15T18:06:43Z</time>
      </trkpt>
      <trkpt lat="62.635904999603" lon="17.979017668823">
        <ele>63.6</ele>
        <time>2018-02-15T18:06:44Z</time>
      </trkpt>
      <trkpt lat="62.635926373448" lon="17.979032337148">
        <ele>63.6</ele>
        <time>2018-02-15T18:06:45Z</time>
      </trkpt>
      <trkpt lat="62.635936599366" lon="17.979036276641">
        <ele>63.6</ele>
        <time>2018-02-15T18:06:46Z</time>
      </trkpt>
      <trkpt lat="62.635958727582" lon="17.979040216134">
        <ele>64</ele>
        <time>2018-02-15T18:06:47Z</time>
      </trkpt>
      <trkpt lat="62.635974653192" lon="17.979043485075">
        <ele>64.2</ele>
        <time>2018-02-15T18:06:48Z</time>
      </trkpt>
      <trkpt lat="62.635990411164" lon="17.979046502559">
        <ele>64.6</ele>
        <time>2018-02-15T18:06:49Z</time>
      </trkpt>
      <trkpt lat="62.636003906023" lon="17.979067289671">
        <ele>64.8</ele>
        <time>2018-02-15T18:06:50Z</time>
      </trkpt>
      <trkpt lat="62.636013209932" lon="17.979106097868">
        <ele>65.2</ele>
        <time>2018-02-15T18:06:51Z</time>
      </trkpt>
      <trkpt lat="62.636013209932" lon="17.979138954916">
        <ele>65.4</ele>
        <time>2018-02-15T18:06:52Z</time>
      </trkpt>
      <trkpt lat="62.636006252955" lon="17.979168710661">
        <ele>65.4</ele>
        <time>2018-02-15T18:06:53Z</time>
      </trkpt>
      <trkpt lat="62.636002732557" lon="17.979196957664">
        <ele>65.4</ele>
        <time>2018-02-15T18:06:55Z</time>
      </trkpt>
      <trkpt lat="62.636001810548" lon="17.979213050912">
        <ele>65.4</ele>
        <time>2018-02-15T18:06:56Z</time>
      </trkpt>
      <trkpt lat="62.635999212159" lon="17.979239537716">
        <ele>65.4</ele>
        <time>2018-02-15T18:06:57Z</time>
      </trkpt>
      <trkpt lat="62.635998541607" lon="17.979267868538">
        <ele>65.4</ele>
        <time>2018-02-15T18:06:58Z</time>
      </trkpt>
      <trkpt lat="62.635992171363" lon="17.97933643248">
        <ele>65.2</ele>
        <time>2018-02-15T18:06:59Z</time>
      </trkpt>
      <trkpt lat="62.635990327345" lon="17.979418658919">
        <ele>65.2</ele>
        <time>2018-02-15T18:07:00Z</time>
      </trkpt>
      <trkpt lat="62.635997284322" lon="17.979493593105">
        <ele>65</ele>
        <time>2018-02-15T18:07:01Z</time>
      </trkpt>
      <trkpt lat="62.635997787236" lon="17.979619489243">
        <ele>65</ele>
        <time>2018-02-15T18:07:02Z</time>
      </trkpt>
      <trkpt lat="62.635994015381" lon="17.979787462519">
        <ele>64.8</ele>
        <time>2018-02-15T18:07:03Z</time>
      </trkpt>
      <trkpt lat="62.635994434476" lon="17.979884524921">
        <ele>64.6</ele>
        <time>2018-02-15T18:07:04Z</time>
      </trkpt>
      <trkpt lat="62.636004492756" lon="17.980081248114">
        <ele>64.4</ele>
        <time>2018-02-15T18:07:05Z</time>
      </trkpt>
      <trkpt lat="62.636017233244" lon="17.980228769554">
        <ele>63.6</ele>
        <time>2018-02-15T18:07:06Z</time>
      </trkpt>
      <trkpt lat="62.636035924881" lon="17.980371429492">
        <ele>63</ele>
        <time>2018-02-15T18:07:07Z</time>
      </trkpt>
      <trkpt lat="62.636055538527" lon="17.980505288435">
        <ele>62.2</ele>
        <time>2018-02-15T18:07:08Z</time>
      </trkpt>
      <trkpt lat="62.636077750562" lon="17.980617941171">
        <ele>61.2</ele>
        <time>2018-02-15T18:07:09Z</time>
      </trkpt>
      <trkpt lat="62.636102477167" lon="17.980738389074">
        <ele>59.8</ele>
        <time>2018-02-15T18:07:10Z</time>
      </trkpt>
      <trkpt lat="62.636127203772" lon="17.980859591348">
        <ele>59.2</ele>
        <time>2018-02-15T18:07:11Z</time>
      </trkpt>
      <trkpt lat="62.636148158522" lon="17.980979871613">
        <ele>58.2</ele>
        <time>2018-02-15T18:07:12Z</time>
      </trkpt>
      <trkpt lat="62.6361617372" lon="17.981084393906">
        <ele>57.6</ele>
        <time>2018-02-15T18:07:13Z</time>
      </trkpt>
      <trkpt lat="62.636174226231" lon="17.981192604235">
        <ele>57.2</ele>
        <time>2018-02-15T18:07:14Z</time>
      </trkpt>
      <trkpt lat="62.636180345018" lon="17.981305759885">
        <ele>57</ele>
        <time>2018-02-15T18:07:15Z</time>
      </trkpt>
      <trkpt lat="62.636188224004" lon="17.981403325201">
        <ele>56.8</ele>
        <time>2018-02-15T18:07:16Z</time>
      </trkpt>
      <trkpt lat="62.636221751604" lon="17.981486557468">
        <ele>57</ele>
        <time>2018-02-15T18:07:17Z</time>
      </trkpt>
      <trkpt lat="62.636231977522" lon="17.981585799164">
        <ele>57.2</ele>
        <time>2018-02-15T18:07:18Z</time>
      </trkpt>
      <trkpt lat="62.636248154589" lon="17.981668863793">
        <ele>57.6</ele>
        <time>2018-02-15T18:07:19Z</time>
      </trkpt>
      <trkpt lat="62.636271875366" lon="17.981745725816">
        <ele>57.6</ele>
        <time>2018-02-15T18:07:20Z</time>
      </trkpt>
      <trkpt lat="62.636291321374" lon="17.981837088526">
        <ele>58</ele>
        <time>2018-02-15T18:07:21Z</time>
      </trkpt>
      <trkpt lat="62.636314203961" lon="17.981903892269">
        <ele>58</ele>
        <time>2018-02-15T18:07:22Z</time>
      </trkpt>
      <trkpt lat="62.636324513698" lon="17.981998021006">
        <ele>57.8</ele>
        <time>2018-02-15T18:07:23Z</time>
      </trkpt>
      <trkpt lat="62.636326525354" lon="17.982086030956">
        <ele>57.8</ele>
        <time>2018-02-15T18:07:24Z</time>
      </trkpt>
      <trkpt lat="62.636338092376" lon="17.982159372581">
        <ele>57.8</ele>
        <time>2018-02-15T18:07:25Z</time>
      </trkpt>
      <trkpt lat="62.63633188977" lon="17.982245454694">
        <ele>57.8</ele>
        <time>2018-02-15T18:07:26Z</time>
      </trkpt>
      <trkpt lat="62.636319736015" lon="17.982339499612">
        <ele>57.6</ele>
        <time>2018-02-15T18:07:27Z</time>
      </trkpt>
      <trkpt lat="62.636317053807" lon="17.982405800441">
        <ele>57.6</ele>
        <time>2018-02-15T18:07:28Z</time>
      </trkpt>
      <trkpt lat="62.636313365771" lon="17.98250814344">
        <ele>57.6</ele>
        <time>2018-02-15T18:07:29Z</time>
      </trkpt>
      <trkpt lat="62.636311521753" lon="17.982593555001">
        <ele>57.6</ele>
        <time>2018-02-15T18:07:30Z</time>
      </trkpt>
      <trkpt lat="62.636311605572" lon="17.982665387884">
        <ele>57.6</ele>
        <time>2018-02-15T18:07:31Z</time>
      </trkpt>
      <trkpt lat="62.636305486785" lon="17.982764210485">
        <ele>57.6</ele>
        <time>2018-02-15T18:07:32Z</time>
      </trkpt>
      <trkpt lat="62.636306408794" lon="17.98283755211">
        <ele>57.6</ele>
        <time>2018-02-15T18:07:33Z</time>
      </trkpt>
      <trkpt lat="62.636300290007" lon="17.982897398876">
        <ele>57.6</ele>
        <time>2018-02-15T18:07:34Z</time>
      </trkpt>
      <trkpt lat="62.636294590315" lon="17.982976188736">
        <ele>57.6</ele>
        <time>2018-02-15T18:07:35Z</time>
      </trkpt>
      <trkpt lat="62.636297188704" lon="17.98304458504">
        <ele>57.8</ele>
        <time>2018-02-15T18:07:36Z</time>
      </trkpt>
      <trkpt lat="62.636288220071" lon="17.983126392384">
        <ele>57.8</ele>
        <time>2018-02-15T18:07:37Z</time>
      </trkpt>
      <trkpt lat="62.636288220071" lon="17.983193615222">
        <ele>58</ele>
        <time>2018-02-15T18:07:38Z</time>
      </trkpt>
      <trkpt lat="62.636286040777" lon="17.983252623798">
        <ele>58.2</ele>
        <time>2018-02-15T18:07:39Z</time>
      </trkpt>
      <trkpt lat="62.636284364397" lon="17.983324959595">
        <ele>58.2</ele>
        <time>2018-02-15T18:07:40Z</time>
      </trkpt>
      <trkpt lat="62.636270031348" lon="17.983379777221">
        <ele>58.2</ele>
        <time>2018-02-15T18:07:41Z</time>
      </trkpt>
      <trkpt lat="62.636263074371" lon="17.983438282883">
        <ele>58.2</ele>
        <time>2018-02-15T18:07:42Z</time>
      </trkpt>
      <trkpt lat="62.636256201213" lon="17.983490669758">
        <ele>58.4</ele>
        <time>2018-02-15T18:07:43Z</time>
      </trkpt>
      <trkpt lat="62.63623801249" lon="17.983560658623">
        <ele>58.6</ele>
        <time>2018-02-15T18:07:44Z</time>
      </trkpt>
      <trkpt lat="62.636220159043" lon="17.983623522873">
        <ele>58.6</ele>
        <time>2018-02-15T18:07:45Z</time>
      </trkpt>
      <trkpt lat="62.636210855134" lon="17.98367825668">
        <ele>58.8</ele>
        <time>2018-02-15T18:07:46Z</time>
      </trkpt>
      <trkpt lat="62.636198869017" lon="17.983726620243">
        <ele>58.8</ele>
        <time>2018-02-15T18:07:47Z</time>
      </trkpt>
      <trkpt lat="62.636193169325" lon="17.9837771631">
        <ele>59</ele>
        <time>2018-02-15T18:07:48Z</time>
      </trkpt>
      <trkpt lat="62.636182943407" lon="17.983832735097">
        <ele>59</ele>
        <time>2018-02-15T18:07:49Z</time>
      </trkpt>
      <trkpt lat="62.636176321706" lon="17.983893420053">
        <ele>59</ele>
        <time>2018-02-15T18:07:50Z</time>
      </trkpt>
      <trkpt lat="62.636170538195" lon="17.983952177172">
        <ele>59.2</ele>
        <time>2018-02-15T18:07:51Z</time>
      </trkpt>
      <trkpt lat="62.636166514883" lon="17.984008000626">
        <ele>59.2</ele>
        <time>2018-02-15T18:07:52Z</time>
      </trkpt>
      <trkpt lat="62.636167688349" lon="17.98405208942">
        <ele>59.4</ele>
        <time>2018-02-15T18:07:53Z</time>
      </trkpt>
      <trkpt lat="62.636164838503" lon="17.984116294774">
        <ele>59.4</ele>
        <time>2018-02-15T18:07:54Z</time>
      </trkpt>
      <trkpt lat="62.63616676634" lon="17.984158707188">
        <ele>59.4</ele>
        <time>2018-02-15T18:07:55Z</time>
      </trkpt>
      <trkpt lat="62.636164670865" lon="17.984209166226">
        <ele>59.6</ele>
        <time>2018-02-15T18:07:56Z</time>
      </trkpt>
      <trkpt lat="62.636162743028" lon="17.984264822042">
        <ele>59.8</ele>
        <time>2018-02-15T18:07:57Z</time>
      </trkpt>
      <trkpt lat="62.63616425177" lon="17.984301367126">
        <ele>59.8</ele>
        <time>2018-02-15T18:07:58Z</time>
      </trkpt>
      <trkpt lat="62.636162240114" lon="17.984379402615">
        <ele>60</ele>
        <time>2018-02-15T18:07:59Z</time>
      </trkpt>
      <trkpt lat="62.636156540422" lon="17.984438830286">
        <ele>60</ele>
        <time>2018-02-15T18:08:00Z</time>
      </trkpt>
      <trkpt lat="62.636150756911" lon="17.984488870229">
        <ele>60</ele>
        <time>2018-02-15T18:08:01Z</time>
      </trkpt>
      <trkpt lat="62.636152349472" lon="17.984542514389">
        <ele>60.2</ele>
        <time>2018-02-15T18:08:02Z</time>
      </trkpt>
      <trkpt lat="62.63614916435" lon="17.984582496052">
        <ele>60</ele>
        <time>2018-02-15T18:08:03Z</time>
      </trkpt>
      <trkpt lat="62.63614245883" lon="17.984636391669">
        <ele>60</ele>
        <time>2018-02-15T18:08:04Z</time>
      </trkpt>
      <trkpt lat="62.636139692803" lon="17.984701602851">
        <ele>60.2</ele>
        <time>2018-02-15T18:08:05Z</time>
      </trkpt>
      <trkpt lat="62.636134244568" lon="17.984749379681">
        <ele>60.2</ele>
        <time>2018-02-15T18:08:06Z</time>
      </trkpt>
      <trkpt lat="62.636134663663" lon="17.984809561723">
        <ele>60.4</ele>
        <time>2018-02-15T18:08:07Z</time>
      </trkpt>
      <trkpt lat="62.636143464658" lon="17.984843508418">
        <ele>60.6</ele>
        <time>2018-02-15T18:08:08Z</time>
      </trkpt>
      <trkpt lat="62.63614329702" lon="17.984903522822">
        <ele>60.6</ele>
        <time>2018-02-15T18:08:09Z</time>
      </trkpt>
      <trkpt lat="62.636140698631" lon="17.984939145897">
        <ele>60.6</ele>
        <time>2018-02-15T18:08:10Z</time>
      </trkpt>
      <trkpt lat="62.636137010595" lon="17.984998238292">
        <ele>60.8</ele>
        <time>2018-02-15T18:08:11Z</time>
      </trkpt>
      <trkpt lat="62.636137345871" lon="17.985051798633">
        <ele>60.8</ele>
        <time>2018-02-15T18:08:12Z</time>
      </trkpt>
      <trkpt lat="62.636141117726" lon="17.985089265726">
        <ele>60.8</ele>
        <time>2018-02-15T18:08:13Z</time>
      </trkpt>
      <trkpt lat="62.636136340043" lon="17.985146933198">
        <ele>60.8</ele>
        <time>2018-02-15T18:08:14Z</time>
      </trkpt>
      <trkpt lat="62.636131227084" lon="17.985199906806">
        <ele>60.8</ele>
        <time>2018-02-15T18:08:15Z</time>
      </trkpt>
      <trkpt lat="62.636136088586" lon="17.985240056107">
        <ele>60.8</ele>
        <time>2018-02-15T18:08:16Z</time>
      </trkpt>
      <trkpt lat="62.636139189889" lon="17.98530769804">
        <ele>61</ele>
        <time>2018-02-15T18:08:17Z</time>
      </trkpt>
      <trkpt lat="62.636131059446" lon="17.985351870653">
        <ele>61</ele>
        <time>2018-02-15T18:08:18Z</time>
      </trkpt>
      <trkpt lat="62.636125359754" lon="17.985409621944">
        <ele>61.2</ele>
        <time>2018-02-15T18:08:19Z</time>
      </trkpt>
      <trkpt lat="62.636117061673" lon="17.985470725995">
        <ele>61.2</ele>
        <time>2018-02-15T18:08:20Z</time>
      </trkpt>
      <trkpt lat="62.636098956769" lon="17.985526046535">
        <ele>61.4</ele>
        <time>2018-02-15T18:08:21Z</time>
      </trkpt>
      <trkpt lat="62.636083031159" lon="17.98557508065">
        <ele>61.6</ele>
        <time>2018-02-15T18:08:22Z</time>
      </trkpt>
      <trkpt lat="62.636066770273" lon="17.98562285748">
        <ele>61.6</ele>
        <time>2018-02-15T18:08:23Z</time>
      </trkpt>
      <trkpt lat="62.636043049496" lon="17.985667952102">
        <ele>61.8</ele>
        <time>2018-02-15T18:08:24Z</time>
      </trkpt>
      <trkpt lat="62.636022262384" lon="17.985713130543">
        <ele>61.8</ele>
        <time>2018-02-15T18:08:25Z</time>
      </trkpt>
      <trkpt lat="62.636007342602" lon="17.985744981763">
        <ele>62</ele>
        <time>2018-02-15T18:08:26Z</time>
      </trkpt>
      <trkpt lat="62.635988399508" lon="17.985788735281">
        <ele>62</ele>
        <time>2018-02-15T18:08:27Z</time>
      </trkpt>
      <trkpt lat="62.635972725355" lon="17.985806672547">
        <ele>62</ele>
        <time>2018-02-15T18:08:28Z</time>
      </trkpt>
      <trkpt lat="62.635947663474" lon="17.985838020853">
        <ele>62</ele>
        <time>2018-02-15T18:08:29Z</time>
      </trkpt>
      <trkpt lat="62.635920003204" lon="17.985866351675">
        <ele>62</ele>
        <time>2018-02-15T18:08:30Z</time>
      </trkpt>
      <trkpt lat="62.635893432581" lon="17.985891329737">
        <ele>62</ele>
        <time>2018-02-15T18:08:31Z</time>
      </trkpt>
      <trkpt lat="62.635872813107" lon="17.985923683871">
        <ele>62.2</ele>
        <time>2018-02-15T18:08:32Z</time>
      </trkpt>
      <trkpt lat="62.635843727914" lon="17.985960899507">
        <ele>62.4</ele>
        <time>2018-02-15T18:08:33Z</time>
      </trkpt>
      <trkpt lat="62.635821515879" lon="17.985980429334">
        <ele>62.4</ele>
        <time>2018-02-15T18:08:34Z</time>
      </trkpt>
      <trkpt lat="62.635801399319" lon="17.986001803179">
        <ele>62.4</ele>
        <time>2018-02-15T18:08:35Z</time>
      </trkpt>
      <trkpt lat="62.635776672714" lon="17.986030636915">
        <ele>62.6</ele>
        <time>2018-02-15T18:08:36Z</time>
      </trkpt>
      <trkpt lat="62.63576024419" lon="17.98607631827">
        <ele>62.6</ele>
        <time>2018-02-15T18:08:37Z</time>
      </trkpt>
      <trkpt lat="62.635737864517" lon="17.986112108983">
        <ele>62.8</ele>
        <time>2018-02-15T18:08:38Z</time>
      </trkpt>
      <trkpt lat="62.635717412681" lon="17.986133147552">
        <ele>62.8</ele>
        <time>2018-02-15T18:08:39Z</time>
      </trkpt>
      <trkpt lat="62.635701738528" lon="17.986174051224">
        <ele>63</ele>
        <time>2018-02-15T18:08:40Z</time>
      </trkpt>
      <trkpt lat="62.635682879253" lon="17.986204980435">
        <ele>63.2</ele>
        <time>2018-02-15T18:08:41Z</time>
      </trkpt>
      <trkpt lat="62.635664439073" lon="17.986238340397">
        <ele>63.4</ele>
        <time>2018-02-15T18:08:42Z</time>
      </trkpt>
      <trkpt lat="62.635653039689" lon="17.986273460558">
        <ele>63.6</ele>
        <time>2018-02-15T18:08:43Z</time>
      </trkpt>
      <trkpt lat="62.635631330568" lon="17.986306149968">
        <ele>63.8</ele>
        <time>2018-02-15T18:08:44Z</time>
      </trkpt>
      <trkpt lat="62.635612052198" lon="17.986347137459">
        <ele>64</ele>
        <time>2018-02-15T18:08:45Z</time>
      </trkpt>
      <trkpt lat="62.635598808796" lon="17.986375468281">
        <ele>64</ele>
        <time>2018-02-15T18:08:46Z</time>
      </trkpt>
      <trkpt lat="62.63557751877" lon="17.986442188205">
        <ele>64.2</ele>
        <time>2018-02-15T18:08:47Z</time>
      </trkpt>
      <trkpt lat="62.63555991678" lon="17.98648200223">
        <ele>64.2</ele>
        <time>2018-02-15T18:08:48Z</time>
      </trkpt>
      <trkpt lat="62.63554650574" lon="17.986529527603">
        <ele>64.4</ele>
        <time>2018-02-15T18:08:49Z</time>
      </trkpt>
      <trkpt lat="62.635529071388" lon="17.986571101827">
        <ele>64.4</ele>
        <time>2018-02-15T18:08:50Z</time>
      </trkpt>
      <trkpt lat="62.635507362267" lon="17.986612340775">
        <ele>64.6</ele>
        <time>2018-02-15T18:08:51Z</time>
      </trkpt>
      <trkpt lat="62.63549369977" lon="17.986652657714">
        <ele>64.6</ele>
        <time>2018-02-15T18:08:52Z</time>
      </trkpt>
      <trkpt lat="62.635479115264" lon="17.986696997965">
        <ele>64.6</ele>
        <time>2018-02-15T18:08:53Z</time>
      </trkpt>
      <trkpt lat="62.635461345636" lon="17.986735806162">
        <ele>64.8</ele>
        <time>2018-02-15T18:08:54Z</time>
      </trkpt>
      <trkpt lat="62.635452879917" lon="17.986775117273">
        <ele>64.8</ele>
        <time>2018-02-15T18:08:55Z</time>
      </trkpt>
      <trkpt lat="62.635435277927" lon="17.986818786972">
        <ele>65</ele>
        <time>2018-02-15T18:08:56Z</time>
      </trkpt>
      <trkpt lat="62.635418514127" lon="17.986873101684">
        <ele>65</ele>
        <time>2018-02-15T18:08:57Z</time>
      </trkpt>
      <trkpt lat="62.635404600173" lon="17.986910484958">
        <ele>65</ele>
        <time>2018-02-15T18:08:58Z</time>
      </trkpt>
      <trkpt lat="62.635384232156" lon="17.986966224593">
        <ele>65.2</ele>
        <time>2018-02-15T18:08:59Z</time>
      </trkpt>
      <trkpt lat="62.635370234383" lon="17.987009978111">
        <ele>65.2</ele>
        <time>2018-02-15T18:09:00Z</time>
      </trkpt>
      <trkpt lat="62.63535204566" lon="17.987047026109">
        <ele>65.2</ele>
        <time>2018-02-15T18:09:01Z</time>
      </trkpt>
      <trkpt lat="62.635336539145" lon="17.987085918125">
        <ele>65.4</ele>
        <time>2018-02-15T18:09:02Z</time>
      </trkpt>
      <trkpt lat="62.635320026802" lon="17.987123049942">
        <ele>65.4</ele>
        <time>2018-02-15T18:09:03Z</time>
      </trkpt>
      <trkpt lat="62.635300664613" lon="17.987155739352">
        <ele>65.4</ele>
        <time>2018-02-15T18:09:04Z</time>
      </trkpt>
      <trkpt lat="62.635280045139" lon="17.987225895855">
        <ele>65.6</ele>
        <time>2018-02-15T18:09:05Z</time>
      </trkpt>
      <trkpt lat="62.635260347674" lon="17.987259171998">
        <ele>65.8</ele>
        <time>2018-02-15T18:09:06Z</time>
      </trkpt>
      <trkpt lat="62.635239141467" lon="17.987294627435">
        <ele>66</ele>
        <time>2018-02-15T18:09:07Z</time>
      </trkpt>
      <trkpt lat="62.635220785106" lon="17.987332513623">
        <ele>66.2</ele>
        <time>2018-02-15T18:09:08Z</time>
      </trkpt>
      <trkpt lat="62.635193963026" lon="17.987361431178">
        <ele>66.4</ele>
        <time>2018-02-15T18:09:09Z</time>
      </trkpt>
      <trkpt lat="62.63517937852" lon="17.987397054253">
        <ele>66.4</ele>
        <time>2018-02-15T18:09:10Z</time>
      </trkpt>
      <trkpt lat="62.63515674739" lon="17.987434269889">
        <ele>66.4</ele>
        <time>2018-02-15T18:09:11Z</time>
      </trkpt>
      <trkpt lat="62.635144845092" lon="17.98747944833">
        <ele>66.4</ele>
        <time>2018-02-15T18:09:12Z</time>
      </trkpt>
      <trkpt lat="62.635122297781" lon="17.987509036437">
        <ele>66.4</ele>
        <time>2018-02-15T18:09:13Z</time>
      </trkpt>
      <trkpt lat="62.63510142685" lon="17.987538289268">
        <ele>66.6</ele>
        <time>2018-02-15T18:09:14Z</time>
      </trkpt>
      <trkpt lat="62.635087512896" lon="17.987574918171">
        <ele>66.6</ele>
        <time>2018-02-15T18:09:15Z</time>
      </trkpt>
      <trkpt lat="62.63506957563" lon="17.987599560957">
        <ele>67</ele>
        <time>2018-02-15T18:09:16Z</time>
      </trkpt>
      <trkpt lat="62.635050967812" lon="17.98763367529">
        <ele>67</ele>
        <time>2018-02-15T18:09:17Z</time>
      </trkpt>
      <trkpt lat="62.635032779089" lon="17.98766217375">
        <ele>67</ele>
        <time>2018-02-15T18:09:18Z</time>
      </trkpt>
      <trkpt lat="62.635011824339" lon="17.987695617531">
        <ele>67.2</ele>
        <time>2018-02-15T18:09:19Z</time>
      </trkpt>
      <trkpt lat="62.634996485462" lon="17.987736353565">
        <ele>67.2</ele>
        <time>2018-02-15T18:09:20Z</time>
      </trkpt>
      <trkpt lat="62.634977123273" lon="17.987752782089">
        <ele>67.4</ele>
        <time>2018-02-15T18:09:21Z</time>
      </trkpt>
      <trkpt lat="62.634961030025" lon="17.987794356313">
        <ele>67.6</ele>
        <time>2018-02-15T18:09:22Z</time>
      </trkpt>
      <trkpt lat="62.634938147438" lon="17.987826123714">
        <ele>67.6</ele>
        <time>2018-02-15T18:09:23Z</time>
      </trkpt>
      <trkpt lat="62.634924904036" lon="17.987856130916">
        <ele>67.8</ele>
        <time>2018-02-15T18:09:24Z</time>
      </trkpt>
      <trkpt lat="62.63490193763" lon="17.98788597048">
        <ele>68</ele>
        <time>2018-02-15T18:09:25Z</time>
      </trkpt>
      <trkpt lat="62.634883329812" lon="17.98791698351">
        <ele>68.2</ele>
        <time>2018-02-15T18:09:26Z</time>
      </trkpt>
      <trkpt lat="62.634865476365" lon="17.987944979056">
        <ele>68.2</ele>
        <time>2018-02-15T18:09:27Z</time>
      </trkpt>
      <trkpt lat="62.634846114176" lon="17.987946655436">
        <ele>68.4</ele>
        <time>2018-02-15T18:09:28Z</time>
      </trkpt>
      <trkpt lat="62.634829182738" lon="17.987969538023">
        <ele>68.6</ele>
        <time>2018-02-15T18:09:29Z</time>
      </trkpt>
      <trkpt lat="62.63480722216" lon="17.987983787253">
        <ele>68.6</ele>
        <time>2018-02-15T18:09:30Z</time>
      </trkpt>
      <trkpt lat="62.634783585202" lon="17.988009854962">
        <ele>68.8</ele>
        <time>2018-02-15T18:09:31Z</time>
      </trkpt>
      <trkpt lat="62.634769252153" lon="17.988033659558">
        <ele>69</ele>
        <time>2018-02-15T18:09:32Z</time>
      </trkpt>
      <trkpt lat="62.634744525548" lon="17.988033827196">
        <ele>69</ele>
        <time>2018-02-15T18:09:33Z</time>
      </trkpt>
      <trkpt lat="62.634731952698" lon="17.98805444667">
        <ele>69</ele>
        <time>2018-02-15T18:09:34Z</time>
      </trkpt>
      <trkpt lat="62.634703873333" lon="17.988052602652">
        <ele>69.2</ele>
        <time>2018-02-15T18:09:35Z</time>
      </trkpt>
      <trkpt lat="62.634682080393" lon="17.988076491067">
        <ele>69.2</ele>
        <time>2018-02-15T18:09:36Z</time>
      </trkpt>
      <trkpt lat="62.634654084847" lon="17.988079508551">
        <ele>69.4</ele>
        <time>2018-02-15T18:09:37Z</time>
      </trkpt>
      <trkpt lat="62.634626508396" lon="17.988086968442">
        <ele>69.4</ele>
        <time>2018-02-15T18:09:38Z</time>
      </trkpt>
      <trkpt lat="62.634604799275" lon="17.988096439989">
        <ele>69.4</ele>
        <time>2018-02-15T18:09:39Z</time>
      </trkpt>
      <trkpt lat="62.634576300815" lon="17.988095182704">
        <ele>69.6</ele>
        <time>2018-02-15T18:09:40Z</time>
      </trkpt>
      <trkpt lat="62.634546461251" lon="17.988115215445">
        <ele>69.8</ele>
        <time>2018-02-15T18:09:41Z</time>
      </trkpt>
      <trkpt lat="62.634518800981" lon="17.98811982549">
        <ele>69.8</ele>
        <time>2018-02-15T18:09:42Z</time>
      </trkpt>
      <trkpt lat="62.634496672765" lon="17.988131476331">
        <ele>70</ele>
        <time>2018-02-15T18:09:43Z</time>
      </trkpt>
      <trkpt lat="62.634471862341" lon="17.988128375028">
        <ele>70</ele>
        <time>2018-02-15T18:09:44Z</time>
      </trkpt>
      <trkpt lat="62.634449985582" lon="17.988144552095">
        <ele>70.2</ele>
        <time>2018-02-15T18:09:45Z</time>
      </trkpt>
      <trkpt lat="62.634427857366" lon="17.988140109688">
        <ele>70.4</ele>
        <time>2018-02-15T18:09:46Z</time>
      </trkpt>
      <trkpt lat="62.634402208752" lon="17.988145390285">
        <ele>70.4</ele>
        <time>2018-02-15T18:09:47Z</time>
      </trkpt>
      <trkpt lat="62.634378571794" lon="17.98816173499">
        <ele>70.4</ele>
        <time>2018-02-15T18:09:48Z</time>
      </trkpt>
      <trkpt lat="62.634361891813" lon="17.988165674483">
        <ele>70.6</ele>
        <time>2018-02-15T18:09:49Z</time>
      </trkpt>
      <trkpt lat="62.63433532119" lon="17.988193083296">
        <ele>70.8</ele>
        <time>2018-02-15T18:09:50Z</time>
      </trkpt>
      <trkpt lat="62.634307828558" lon="17.988183863206">
        <ele>71</ele>
        <time>2018-02-15T18:09:51Z</time>
      </trkpt>
      <trkpt lat="62.634279749193" lon="17.988214205684">
        <ele>71.2</ele>
        <time>2018-02-15T18:09:52Z</time>
      </trkpt>
      <trkpt lat="62.634250161086" lon="17.988213367494">
        <ele>71.2</ele>
        <time>2018-02-15T18:09:53Z</time>
      </trkpt>
      <trkpt lat="62.63422468011" lon="17.988216301159">
        <ele>71.4</ele>
        <time>2018-02-15T18:09:54Z</time>
      </trkpt>
      <trkpt lat="62.634195511098" lon="17.988210014734">
        <ele>71.4</ele>
        <time>2018-02-15T18:09:55Z</time>
      </trkpt>
      <trkpt lat="62.634169778665" lon="17.988211607295">
        <ele>71.4</ele>
        <time>2018-02-15T18:09:56Z</time>
      </trkpt>
      <trkpt lat="62.634140358196" lon="17.988198280074">
        <ele>71.4</ele>
        <time>2018-02-15T18:09:57Z</time>
      </trkpt>
      <trkpt lat="62.634114793401" lon="17.988189898174">
        <ele>71.4</ele>
        <time>2018-02-15T18:09:58Z</time>
      </trkpt>
      <trkpt lat="62.634086294941" lon="17.988182522102">
        <ele>71.4</ele>
        <time>2018-02-15T18:09:59Z</time>
      </trkpt>
      <trkpt lat="62.634052096789" lon="17.988166931768">
        <ele>71.2</ele>
        <time>2018-02-15T18:10:00Z</time>
      </trkpt>
      <trkpt lat="62.634032399324" lon="17.988168356691">
        <ele>71.2</ele>
        <time>2018-02-15T18:10:01Z</time>
      </trkpt>
      <trkpt lat="62.634004571416" lon="17.988146731389">
        <ele>71.4</ele>
        <time>2018-02-15T18:10:02Z</time>
      </trkpt>
      <trkpt lat="62.633977581698" lon="17.988137678937">
        <ele>71.4</ele>
        <time>2018-02-15T18:10:03Z</time>
      </trkpt>
      <trkpt lat="62.633956040215" lon="17.988120160766">
        <ele>71.6</ele>
        <time>2018-02-15T18:10:04Z</time>
      </trkpt>
      <trkpt lat="62.633927877031" lon="17.988099541292">
        <ele>71.6</ele>
        <time>2018-02-15T18:10:05Z</time>
      </trkpt>
      <trkpt lat="62.633904575349" lon="17.988091243211">
        <ele>71.6</ele>
        <time>2018-02-15T18:10:06Z</time>
      </trkpt>
      <trkpt lat="62.633879178192" lon="17.988058972896">
        <ele>71.8</ele>
        <time>2018-02-15T18:10:07Z</time>
      </trkpt>
      <trkpt lat="62.633861827659" lon="17.988055368679">
        <ele>72</ele>
        <time>2018-02-15T18:10:08Z</time>
      </trkpt>
      <trkpt lat="62.633835257036" lon="17.988018907414">
        <ele>72.2</ele>
        <time>2018-02-15T18:10:09Z</time>
      </trkpt>
      <trkpt lat="62.633801142703" lon="17.987999461406">
        <ele>72.2</ele>
        <time>2018-02-15T18:10:10Z</time>
      </trkpt>
      <trkpt lat="62.633775074994" lon="17.987966269082">
        <ele>72.2</ele>
        <time>2018-02-15T18:10:11Z</time>
      </trkpt>
      <trkpt lat="62.633742804679" lon="17.987951014024">
        <ele>72.4</ele>
        <time>2018-02-15T18:10:12Z</time>
      </trkpt>
      <trkpt lat="62.633719083902" lon="17.9879094398">
        <ele>72.6</ele>
        <time>2018-02-15T18:10:13Z</time>
      </trkpt>
      <trkpt lat="62.633686226854" lon="17.987886054299">
        <ele>72.6</ele>
        <time>2018-02-15T18:10:14Z</time>
      </trkpt>
      <trkpt lat="62.633662338439" lon="17.987861746789">
        <ele>72.8</ele>
        <time>2018-02-15T18:10:15Z</time>
      </trkpt>
      <trkpt lat="62.633649178856" lon="17.987846240274">
        <ele>72.8</ele>
        <time>2018-02-15T18:10:16Z</time>
      </trkpt>
      <trkpt lat="62.633625122803" lon="17.987823022411">
        <ele>72.8</ele>
        <time>2018-02-15T18:10:17Z</time>
      </trkpt>
      <trkpt lat="62.633608778098" lon="17.987799553091">
        <ele>72.8</ele>
        <time>2018-02-15T18:10:18Z</time>
      </trkpt>
      <trkpt lat="62.63359017028" lon="17.987774407391">
        <ele>72.8</ele>
        <time>2018-02-15T18:10:19Z</time>
      </trkpt>
      <trkpt lat="62.633570724272" lon="17.987759068514">
        <ele>72.8</ele>
        <time>2018-02-15T18:10:20Z</time>
      </trkpt>
      <trkpt lat="62.63354742259" lon="17.987715398815">
        <ele>72.8</ele>
        <time>2018-02-15T18:10:21Z</time>
      </trkpt>
      <trkpt lat="62.633522695985" lon="17.987715231177">
        <ele>73</ele>
        <time>2018-02-15T18:10:22Z</time>
      </trkpt>
      <trkpt lat="62.633498304656" lon="17.987674662781">
        <ele>73</ele>
        <time>2018-02-15T18:10:23Z</time>
      </trkpt>
      <trkpt lat="62.633471566395" lon="17.987636441317">
        <ele>73.2</ele>
        <time>2018-02-15T18:10:24Z</time>
      </trkpt>
      <trkpt lat="62.633447342704" lon="17.987600566785">
        <ele>73.4</ele>
        <time>2018-02-15T18:10:25Z</time>
      </trkpt>
      <trkpt lat="62.633427393782" lon="17.987556980905">
        <ele>73.6</ele>
        <time>2018-02-15T18:10:26Z</time>
      </trkpt>
      <trkpt lat="62.633407780136" lon="17.987525129685">
        <ele>73.8</ele>
        <time>2018-02-15T18:10:27Z</time>
      </trkpt>
      <trkpt lat="62.633395207286" lon="17.987501911822">
        <ele>74.2</ele>
        <time>2018-02-15T18:10:28Z</time>
      </trkpt>
      <trkpt lat="62.633380874237" lon="17.987457236295">
        <ele>74.4</ele>
        <time>2018-02-15T18:10:29Z</time>
      </trkpt>
      <trkpt lat="62.633362014962" lon="17.987411219664">
        <ele>74.6</ele>
        <time>2018-02-15T18:10:30Z</time>
      </trkpt>
      <trkpt lat="62.633348101008" lon="17.987362353187">
        <ele>74.8</ele>
        <time>2018-02-15T18:10:31Z</time>
      </trkpt>
      <trkpt lat="62.633326810982" lon="17.987308709027">
        <ele>75</ele>
        <time>2018-02-15T18:10:32Z</time>
      </trkpt>
      <trkpt lat="62.633304012214" lon="17.987231595547">
        <ele>75.2</ele>
        <time>2018-02-15T18:10:33Z</time>
      </trkpt>
      <trkpt lat="62.633288086604" lon="17.987175436817">
        <ele>75</ele>
        <time>2018-02-15T18:10:34Z</time>
      </trkpt>
      <trkpt lat="62.633263779094" lon="17.98706957342">
        <ele>75</ele>
        <time>2018-02-15T18:10:35Z</time>
      </trkpt>
      <trkpt lat="62.633241399421" lon="17.986950298983">
        <ele>74.8</ele>
        <time>2018-02-15T18:10:36Z</time>
      </trkpt>
      <trkpt lat="62.63322304306" lon="17.986842591568">
        <ele>74</ele>
        <time>2018-02-15T18:10:37Z</time>
      </trkpt>
      <trkpt lat="62.63320795564" lon="17.986733794506">
        <ele>73</ele>
        <time>2018-02-15T18:10:38Z</time>
      </trkpt>
      <trkpt lat="62.633197813541" lon="17.986641593606">
        <ele>72.2</ele>
        <time>2018-02-15T18:10:39Z</time>
      </trkpt>
      <trkpt lat="62.633190521288" lon="17.986545788489">
        <ele>71.8</ele>
        <time>2018-02-15T18:10:40Z</time>
      </trkpt>
      <trkpt lat="62.633181385017" lon="17.986445708603">
        <ele>70.8</ele>
        <time>2018-02-15T18:10:41Z</time>
      </trkpt>
      <trkpt lat="62.633172835479" lon="17.986366164372">
        <ele>70.6</ele>
        <time>2018-02-15T18:10:42Z</time>
      </trkpt>
      <trkpt lat="62.633163028656" lon="17.986262564088">
        <ele>70.8</ele>
        <time>2018-02-15T18:10:43Z</time>
      </trkpt>
      <trkpt lat="62.633165794683" lon="17.986161059279">
        <ele>71</ele>
        <time>2018-02-15T18:10:44Z</time>
      </trkpt>
      <trkpt lat="62.633169147443" lon="17.98603608515">
        <ele>71.2</ele>
        <time>2018-02-15T18:10:45Z</time>
      </trkpt>
      <trkpt lat="62.633166465235" lon="17.985920247292">
        <ele>71</ele>
        <time>2018-02-15T18:10:46Z</time>
      </trkpt>
      <trkpt lat="62.633165627045" lon="17.985800805217">
        <ele>71</ele>
        <time>2018-02-15T18:10:47Z</time>
      </trkpt>
      <trkpt lat="62.633167890158" lon="17.985697791666">
        <ele>70.6</ele>
        <time>2018-02-15T18:10:48Z</time>
      </trkpt>
      <trkpt lat="62.633174008945" lon="17.985606848051">
        <ele>70.4</ele>
        <time>2018-02-15T18:10:49Z</time>
      </trkpt>
      <trkpt lat="62.633177696981" lon="17.985516742626">
        <ele>70</ele>
        <time>2018-02-15T18:10:50Z</time>
      </trkpt>
      <trkpt lat="62.63317191347" lon="17.985420686052">
        <ele>69.4</ele>
        <time>2018-02-15T18:10:51Z</time>
      </trkpt>
      <trkpt lat="62.633179960094" lon="17.985292778258">
        <ele>69.4</ele>
        <time>2018-02-15T18:10:52Z</time>
      </trkpt>
      <trkpt lat="62.633190605107" lon="17.985141149687">
        <ele>69.2</ele>
        <time>2018-02-15T18:10:53Z</time>
      </trkpt>
      <trkpt lat="62.633204854337" lon="17.985016510834">
        <ele>68.6</ele>
        <time>2018-02-15T18:10:54Z</time>
      </trkpt>
      <trkpt lat="62.633226479639" lon="17.984890698515">
        <ele>68</ele>
        <time>2018-02-15T18:10:55Z</time>
      </trkpt>
      <trkpt lat="62.633248943131" lon="17.984769412422">
        <ele>67.4</ele>
        <time>2018-02-15T18:10:56Z</time>
      </trkpt>
      <trkpt lat="62.633271238985" lon="17.984659609532">
        <ele>66.4</ele>
        <time>2018-02-15T18:10:57Z</time>
      </trkpt>
      <trkpt lat="62.633292864287" lon="17.984574114152">
        <ele>65.6</ele>
        <time>2018-02-15T18:10:58Z</time>
      </trkpt>
      <trkpt lat="62.633306945879" lon="17.98447788994">
        <ele>65.2</ele>
        <time>2018-02-15T18:10:59Z</time>
      </trkpt>
      <trkpt lat="62.633326056611" lon="17.984398094252">
        <ele>65.2</ele>
        <time>2018-02-15T18:11:00Z</time>
      </trkpt>
      <trkpt lat="62.633339970565" lon="17.984315448718">
        <ele>65.2</ele>
        <time>2018-02-15T18:11:01Z</time>
      </trkpt>
      <trkpt lat="62.633354974166" lon="17.984241268903">
        <ele>65.2</ele>
        <time>2018-02-15T18:11:02Z</time>
      </trkpt>
      <trkpt lat="62.633363775161" lon="17.984178069377">
        <ele>65.6</ele>
        <time>2018-02-15T18:11:03Z</time>
      </trkpt>
      <trkpt lat="62.633372492337" lon="17.984113025833">
        <ele>65.8</ele>
        <time>2018-02-15T18:11:04Z</time>
      </trkpt>
      <trkpt lat="62.633376934744" lon="17.984042282597">
        <ele>66</ele>
        <time>2018-02-15T18:11:05Z</time>
      </trkpt>
      <trkpt lat="62.633387076843" lon="17.98396072671">
        <ele>66.2</ele>
        <time>2018-02-15T18:11:06Z</time>
      </trkpt>
      <trkpt lat="62.633403924462" lon="17.983908256016">
        <ele>66.4</ele>
        <time>2018-02-15T18:11:07Z</time>
      </trkpt>
      <trkpt lat="62.633416832588" lon="17.983849415078">
        <ele>66.8</ele>
        <time>2018-02-15T18:11:08Z</time>
      </trkpt>
      <trkpt lat="62.63342839961" lon="17.983775067625">
        <ele>67</ele>
        <time>2018-02-15T18:11:09Z</time>
      </trkpt>
      <trkpt lat="62.633451533654" lon="17.983717986886">
        <ele>67</ele>
        <time>2018-02-15T18:11:10Z</time>
      </trkpt>
      <trkpt lat="62.633480535028" lon="17.983642717424">
        <ele>67</ele>
        <time>2018-02-15T18:11:11Z</time>
      </trkpt>
      <trkpt lat="62.633493526973" lon="17.983579769355">
        <ele>67.2</ele>
        <time>2018-02-15T18:11:12Z</time>
      </trkpt>
      <trkpt lat="62.63350048395" lon="17.983525203186">
        <ele>67.4</ele>
        <time>2018-02-15T18:11:13Z</time>
      </trkpt>
      <trkpt lat="62.633511967153" lon="17.983463009488">
        <ele>67.2</ele>
        <time>2018-02-15T18:11:14Z</time>
      </trkpt>
      <trkpt lat="62.633529401505" lon="17.983398049763">
        <ele>67.2</ele>
        <time>2018-02-15T18:11:15Z</time>
      </trkpt>
      <trkpt lat="62.633536945215" lon="17.983331329839">
        <ele>67.4</ele>
        <time>2018-02-15T18:11:16Z</time>
      </trkpt>
      <trkpt lat="62.633551445902" lon="17.983259748413">
        <ele>67.4</ele>
        <time>2018-02-15T18:11:17Z</time>
      </trkpt>
      <trkpt lat="62.633565946589" lon="17.983196632706">
        <ele>67.2</ele>
        <time>2018-02-15T18:11:18Z</time>
      </trkpt>
      <trkpt lat="62.633574663765" lon="17.983143910555">
        <ele>67.4</ele>
        <time>2018-02-15T18:11:19Z</time>
      </trkpt>
      <trkpt lat="62.63359017028" lon="17.983070820387">
        <ele>67.4</ele>
        <time>2018-02-15T18:11:20Z</time>
      </trkpt>
      <trkpt lat="62.633595367058" lon="17.983002256445">
        <ele>67.4</ele>
        <time>2018-02-15T18:11:21Z</time>
      </trkpt>
      <trkpt lat="62.633608023727" lon="17.982936374711">
        <ele>67.4</ele>
        <time>2018-02-15T18:11:22Z</time>
      </trkpt>
      <trkpt lat="62.633623278785" lon="17.982859093593">
        <ele>67.4</ele>
        <time>2018-02-15T18:11:23Z</time>
      </trkpt>
      <trkpt lat="62.633623362604" lon="17.982803270139">
        <ele>67.4</ele>
        <time>2018-02-15T18:11:24Z</time>
      </trkpt>
      <trkpt lat="62.633638030929" lon="17.98273445474">
        <ele>67.4</ele>
        <time>2018-02-15T18:11:25Z</time>
      </trkpt>
      <trkpt lat="62.633641802784" lon="17.98270008895">
        <ele>67.4</ele>
        <time>2018-02-15T18:11:26Z</time>
      </trkpt>
      <trkpt lat="62.633644904087" lon="17.982634458673">
        <ele>67.4</ele>
        <time>2018-02-15T18:11:27Z</time>
      </trkpt>
      <trkpt lat="62.633662086982" lon="17.982563547799">
        <ele>67.4</ele>
        <time>2018-02-15T18:11:28Z</time>
      </trkpt>
      <trkpt lat="62.633662673715" lon="17.982524739602">
        <ele>67.4</ele>
        <time>2018-02-15T18:11:29Z</time>
      </trkpt>
      <trkpt lat="62.63368488575" lon="17.982416696911">
        <ele>67.4</ele>
        <time>2018-02-15T18:11:30Z</time>
      </trkpt>
      <trkpt lat="62.633700727541" lon="17.982351066634">
        <ele>67.4</ele>
        <time>2018-02-15T18:11:31Z</time>
      </trkpt>
      <trkpt lat="62.633704415577" lon="17.982282837968">
        <ele>67.4</ele>
        <time>2018-02-15T18:11:32Z</time>
      </trkpt>
      <trkpt lat="62.633719000083" lon="17.982205640669">
        <ele>67.4</ele>
        <time>2018-02-15T18:11:33Z</time>
      </trkpt>
      <trkpt lat="62.633718161893" lon="17.982146799731">
        <ele>67.4</ele>
        <time>2018-02-15T18:11:34Z</time>
      </trkpt>
      <trkpt lat="62.6337309862" lon="17.982081085635">
        <ele>67.4</ele>
        <time>2018-02-15T18:11:35Z</time>
      </trkpt>
      <trkpt lat="62.633738362272" lon="17.982029788407">
        <ele>67.4</ele>
        <time>2018-02-15T18:11:36Z</time>
      </trkpt>
      <trkpt lat="62.633742385584" lon="17.981984777604">
        <ele>67.2</ele>
        <time>2018-02-15T18:11:37Z</time>
      </trkpt>
      <trkpt lat="62.633749510199" lon="17.981924930838">
        <ele>67.2</ele>
        <time>2018-02-15T18:11:38Z</time>
      </trkpt>
      <trkpt lat="62.633749091104" lon="17.981863240054">
        <ele>67.4</ele>
        <time>2018-02-15T18:11:39Z</time>
      </trkpt>
      <trkpt lat="62.633753952606" lon="17.981810853179">
        <ele>67.4</ele>
        <time>2018-02-15T18:11:40Z</time>
      </trkpt>
      <trkpt lat="62.633765268171" lon="17.981760142684">
        <ele>67.4</ele>
        <time>2018-02-15T18:11:41Z</time>
      </trkpt>
      <trkpt lat="62.633765687266" lon="17.981698954814">
        <ele>67.4</ele>
        <time>2018-02-15T18:11:42Z</time>
      </trkpt>
      <trkpt lat="62.633777254288" lon="17.981619326764">
        <ele>67.4</ele>
        <time>2018-02-15T18:11:43Z</time>
      </trkpt>
      <trkpt lat="62.633778176297" lon="17.98155847417">
        <ele>67.4</ele>
        <time>2018-02-15T18:11:44Z</time>
      </trkpt>
      <trkpt lat="62.633796029744" lon="17.981487730934">
        <ele>67.4</ele>
        <time>2018-02-15T18:11:45Z</time>
      </trkpt>
      <trkpt lat="62.633804244006" lon="17.981412293834">
        <ele>67.4</ele>
        <time>2018-02-15T18:11:46Z</time>
      </trkpt>
      <trkpt lat="62.633816649218" lon="17.981357224751">
        <ele>67.4</ele>
        <time>2018-02-15T18:11:47Z</time>
      </trkpt>
      <trkpt lat="62.633838106882" lon="17.981295366329">
        <ele>67.6</ele>
        <time>2018-02-15T18:11:48Z</time>
      </trkpt>
      <trkpt lat="62.633862162935" lon="17.981264772394">
        <ele>67.8</ele>
        <time>2018-02-15T18:11:49Z</time>
      </trkpt>
      <trkpt lat="62.6338734785" lon="17.981207188741">
        <ele>67.8</ele>
        <time>2018-02-15T18:11:50Z</time>
      </trkpt>
      <trkpt lat="62.633888649739" lon="17.981156478246">
        <ele>68</ele>
        <time>2018-02-15T18:11:51Z</time>
      </trkpt>
      <trkpt lat="62.633898540381" lon="17.981091015607">
        <ele>67.8</ele>
        <time>2018-02-15T18:11:52Z</time>
      </trkpt>
      <trkpt lat="62.633917986389" lon="17.98104298732">
        <ele>68</ele>
        <time>2018-02-15T18:11:53Z</time>
      </trkpt>
      <trkpt lat="62.633924691909" lon="17.98100191601">
        <ele>68</ele>
        <time>2018-02-15T18:11:54Z</time>
      </trkpt>
      <trkpt lat="62.633948161229" lon="17.980941063416">
        <ele>68.2</ele>
        <time>2018-02-15T18:11:55Z</time>
      </trkpt>
      <trkpt lat="62.633963583925" lon="17.980890520559">
        <ele>68.2</ele>
        <time>2018-02-15T18:11:56Z</time>
      </trkpt>
      <trkpt lat="62.633978168431" lon="17.98085942371">
        <ele>68.2</ele>
        <time>2018-02-15T18:11:57Z</time>
      </trkpt>
      <trkpt lat="62.633998704086" lon="17.98081751421">
        <ele>68.4</ele>
        <time>2018-02-15T18:11:58Z</time>
      </trkpt>
      <trkpt lat="62.63402016175" lon="17.980781304402">
        <ele>68.4</ele>
        <time>2018-02-15T18:11:59Z</time>
      </trkpt>
      <trkpt lat="62.634038853387" lon="17.980710728804">
        <ele>68.6</ele>
        <time>2018-02-15T18:12:00Z</time>
      </trkpt>
      <trkpt lat="62.634053940807" lon="17.98064568526">
        <ele>68.6</ele>
        <time>2018-02-15T18:12:01Z</time>
      </trkpt>
      <trkpt lat="62.634063412354" lon="17.980595645317">
        <ele>68.6</ele>
        <time>2018-02-15T18:12:02Z</time>
      </trkpt>
      <trkpt lat="62.634078248317" lon="17.980529763583">
        <ele>68.8</ele>
        <time>2018-02-15T18:12:03Z</time>
      </trkpt>
      <trkpt lat="62.634091575538" lon="17.980491709757">
        <ele>69</ele>
        <time>2018-02-15T18:12:04Z</time>
      </trkpt>
      <trkpt lat="62.634113368478" lon="17.980430605706">
        <ele>69</ele>
        <time>2018-02-15T18:12:05Z</time>
      </trkpt>
      <trkpt lat="62.634126276604" lon="17.980372519139">
        <ele>69</ele>
        <time>2018-02-15T18:12:06Z</time>
      </trkpt>
      <trkpt lat="62.634150165019" lon="17.98033723134">
        <ele>69</ele>
        <time>2018-02-15T18:12:07Z</time>
      </trkpt>
      <trkpt lat="62.634174556348" lon="17.980277216936">
        <ele>68.8</ele>
        <time>2018-02-15T18:12:08Z</time>
      </trkpt>
      <trkpt lat="62.634193415623" lon="17.980225332975">
        <ele>68.8</ele>
        <time>2018-02-15T18:12:09Z</time>
      </trkpt>
      <trkpt lat="62.634218728961" lon="17.980169677159">
        <ele>68.8</ele>
        <time>2018-02-15T18:12:10Z</time>
      </trkpt>
      <trkpt lat="62.634237755874" lon="17.980109830393">
        <ele>68.8</ele>
        <time>2018-02-15T18:12:11Z</time>
      </trkpt>
      <trkpt lat="62.634255944597" lon="17.980074458775">
        <ele>68.8</ele>
        <time>2018-02-15T18:12:12Z</time>
      </trkpt>
      <trkpt lat="62.634278827184" lon="17.980018970597">
        <ele>69</ele>
        <time>2018-02-15T18:12:13Z</time>
      </trkpt>
      <trkpt lat="62.634296010079" lon="17.979974630346">
        <ele>69</ele>
        <time>2018-02-15T18:12:14Z</time>
      </trkpt>
      <trkpt lat="62.634314785535" lon="17.979909167707">
        <ele>69</ele>
        <time>2018-02-15T18:12:15Z</time>
      </trkpt>
      <trkpt lat="62.63433615938" lon="17.979883686731">
        <ele>69</ele>
        <time>2018-02-15T18:12:16Z</time>
      </trkpt>
      <trkpt lat="62.634344206004" lon="17.979829623476">
        <ele>69</ele>
        <time>2018-02-15T18:12:17Z</time>
      </trkpt>
      <trkpt lat="62.634363065279" lon="17.979759131697">
        <ele>69</ele>
        <time>2018-02-15T18:12:18Z</time>
      </trkpt>
      <trkpt lat="62.634368597333" lon="17.979700542216">
        <ele>69</ele>
        <time>2018-02-15T18:12:19Z</time>
      </trkpt>
      <trkpt lat="62.634382595106" lon="17.979637677966">
        <ele>69</ele>
        <time>2018-02-15T18:12:20Z</time>
      </trkpt>
      <trkpt lat="62.634383852391" lon="17.979542208125">
        <ele>69</ele>
        <time>2018-02-15T18:12:21Z</time>
      </trkpt>
      <trkpt lat="62.634392569567" lon="17.979485211205">
        <ele>69</ele>
        <time>2018-02-15T18:12:22Z</time>
      </trkpt>
      <trkpt lat="62.634407656987" lon="17.979413713598">
        <ele>69</ele>
        <time>2018-02-15T18:12:23Z</time>
      </trkpt>
      <trkpt lat="62.63441578743" lon="17.979362248732">
        <ele>68.8</ele>
        <time>2018-02-15T18:12:24Z</time>
      </trkpt>
      <trkpt lat="62.634430707212" lon="17.979297456645">
        <ele>68.8</ele>
        <time>2018-02-15T18:12:25Z</time>
      </trkpt>
      <trkpt lat="62.634437412732" lon="17.979224031201">
        <ele>68.8</ele>
        <time>2018-02-15T18:12:26Z</time>
      </trkpt>
      <trkpt lat="62.63444680046" lon="17.97917382362">
        <ele>69</ele>
        <time>2018-02-15T18:12:27Z</time>
      </trkpt>
      <trkpt lat="62.63445937331" lon="17.979103583298">
        <ele>69</ele>
        <time>2018-02-15T18:12:28Z</time>
      </trkpt>
      <trkpt lat="62.634469850685" lon="17.979045077636">
        <ele>69</ele>
        <time>2018-02-15T18:12:29Z</time>
      </trkpt>
      <trkpt lat="62.63449541548" lon="17.978930497063">
        <ele>68.8</ele>
        <time>2018-02-15T18:12:31Z</time>
      </trkpt>
      <trkpt lat="62.634504467932" lon="17.978858580361">
        <ele>68.8</ele>
        <time>2018-02-15T18:12:32Z</time>
      </trkpt>
      <trkpt lat="62.63451385566" lon="17.978797811586">
        <ele>68.8</ele>
        <time>2018-02-15T18:12:33Z</time>
      </trkpt>
      <trkpt lat="62.634525422682" lon="17.978751711136">
        <ele>68.8</ele>
        <time>2018-02-15T18:12:34Z</time>
      </trkpt>
      <trkpt lat="62.634546042156" lon="17.97870443722">
        <ele>69</ele>
        <time>2018-02-15T18:12:35Z</time>
      </trkpt>
      <trkpt lat="62.634571774589" lon="17.978674010923">
        <ele>69</ele>
        <time>2018-02-15T18:12:36Z</time>
      </trkpt>
      <trkpt lat="62.634602787619" lon="17.978675854941">
        <ele>69</ele>
        <time>2018-02-15T18:12:37Z</time>
      </trkpt>
      <trkpt lat="62.634619719057" lon="17.978695971501">
        <ele>69</ele>
        <time>2018-02-15T18:12:38Z</time>
      </trkpt>
      <trkpt lat="62.634641176721" lon="17.978731929852">
        <ele>69</ele>
        <time>2018-02-15T18:12:39Z</time>
      </trkpt>
      <trkpt lat="62.634660706548" lon="17.978754225706">
        <ele>69</ele>
        <time>2018-02-15T18:12:40Z</time>
      </trkpt>
      <trkpt lat="62.634687025714" lon="17.978781131605">
        <ele>69</ele>
        <time>2018-02-15T18:12:41Z</time>
      </trkpt>
      <trkpt lat="62.634708902473" lon="17.978794710283">
        <ele>69</ele>
        <time>2018-02-15T18:12:42Z</time>
      </trkpt>
      <trkpt lat="62.634748716498" lon="17.978819017793">
        <ele>69</ele>
        <time>2018-02-15T18:12:43Z</time>
      </trkpt>
      <trkpt lat="62.634779058976" lon="17.978837206516">
        <ele>69</ele>
        <time>2018-02-15T18:12:44Z</time>
      </trkpt>
      <trkpt lat="62.63481644225" lon="17.978856317248">
        <ele>69</ele>
        <time>2018-02-15T18:12:45Z</time>
      </trkpt>
      <trkpt lat="62.63484745528" lon="17.978871991401">
        <ele>68.8</ele>
        <time>2018-02-15T18:12:46Z</time>
      </trkpt>
      <trkpt lat="62.63488265926" lon="17.978886911183">
        <ele>68.6</ele>
        <time>2018-02-15T18:12:47Z</time>
      </trkpt>
      <trkpt lat="62.634908056417" lon="17.978893449065">
        <ele>68.2</ele>
        <time>2018-02-15T18:12:48Z</time>
      </trkpt>
      <trkpt lat="62.634940662008" lon="17.978905770458">
        <ele>67.8</ele>
        <time>2018-02-15T18:12:49Z</time>
      </trkpt>
      <trkpt lat="62.634966729717" lon="17.978908871761">
        <ele>67.8</ele>
        <time>2018-02-15T18:12:50Z</time>
      </trkpt>
      <trkpt lat="62.634998664756" lon="17.97892655757">
        <ele>67.8</ele>
        <time>2018-02-15T18:12:51Z</time>
      </trkpt>
      <trkpt lat="62.635021966438" lon="17.978936280574">
        <ele>68</ele>
        <time>2018-02-15T18:12:52Z</time>
      </trkpt>
      <trkpt lat="62.635047028319" lon="17.978943572827">
        <ele>68.2</ele>
        <time>2018-02-15T18:12:53Z</time>
      </trkpt>
      <trkpt lat="62.635079214815" lon="17.978959749894">
        <ele>68.4</ele>
        <time>2018-02-15T18:12:54Z</time>
      </trkpt>
      <trkpt lat="62.635110395483" lon="17.978965449586">
        <ele>68.4</ele>
        <time>2018-02-15T18:12:55Z</time>
      </trkpt>
      <trkpt lat="62.635143168712" lon="17.978983805947">
        <ele>68.4</ele>
        <time>2018-02-15T18:12:56Z</time>
      </trkpt>
      <trkpt lat="62.635175858122" lon="17.978992942218">
        <ele>68.4</ele>
        <time>2018-02-15T18:12:57Z</time>
      </trkpt>
      <trkpt lat="62.635209385722" lon="17.979002413765">
        <ele>68.2</ele>
        <time>2018-02-15T18:12:58Z</time>
      </trkpt>
      <trkpt lat="62.635242410408" lon="17.979005263611">
        <ele>68</ele>
        <time>2018-02-15T18:12:59Z</time>
      </trkpt>
      <trkpt lat="62.635280631872" lon="17.979011298579">
        <ele>67.8</ele>
        <time>2018-02-15T18:13:00Z</time>
      </trkpt>
      <trkpt lat="62.635315081481" lon="17.979017668823">
        <ele>67.6</ele>
        <time>2018-02-15T18:13:01Z</time>
      </trkpt>
      <trkpt lat="62.635349866366" lon="17.979017417366">
        <ele>67.2</ele>
        <time>2018-02-15T18:13:02Z</time>
      </trkpt>
      <trkpt lat="62.635386243812" lon="17.97902043485">
        <ele>67</ele>
        <time>2018-02-15T18:13:03Z</time>
      </trkpt>
      <trkpt lat="62.635417675937" lon="17.979020015755">
        <ele>66.6</ele>
        <time>2018-02-15T18:13:04Z</time>
      </trkpt>
      <trkpt lat="62.635450784442" lon="17.97900283286">
        <ele>66.4</ele>
        <time>2018-02-15T18:13:05Z</time>
      </trkpt>
      <trkpt lat="62.635495292331" lon="17.979001072661">
        <ele>66.2</ele>
        <time>2018-02-15T18:13:07Z</time>
      </trkpt>
      <trkpt lat="62.635549271767" lon="17.978993109856">
        <ele>66</ele>
        <time>2018-02-15T18:13:08Z</time>
      </trkpt>
      <trkpt lat="62.635591851819" lon="17.978983303033">
        <ele>65.8</ele>
        <time>2018-02-15T18:13:09Z</time>
      </trkpt>
      <trkpt lat="62.635636862622" lon="17.978981961929">
        <ele>65.4</ele>
        <time>2018-02-15T18:13:10Z</time>
      </trkpt>
      <trkpt lat="62.635680448502" lon="17.978980369368">
        <ele>64.8</ele>
        <time>2018-02-15T18:13:11Z</time>
      </trkpt>
      <trkpt lat="62.63572252564" lon="17.978978190074">
        <ele>64.4</ele>
        <time>2018-02-15T18:13:12Z</time>
      </trkpt>
      <trkpt lat="62.635760328009" lon="17.97898020173">
        <ele>63.8</ele>
        <time>2018-02-15T18:13:13Z</time>
      </trkpt>
      <trkpt lat="62.635791843953" lon="17.9789827163">
        <ele>63.6</ele>
        <time>2018-02-15T18:13:14Z</time>
      </trkpt>
      <trkpt lat="62.635826964114" lon="17.978984644137">
        <ele>63.4</ele>
        <time>2018-02-15T18:13:15Z</time>
      </trkpt>
      <trkpt lat="62.635853450918" lon="17.978990846743">
        <ele>63.4</ele>
        <time>2018-02-15T18:13:16Z</time>
      </trkpt>
      <trkpt lat="62.635883709577" lon="17.978995037693">
        <ele>63.4</ele>
        <time>2018-02-15T18:13:17Z</time>
      </trkpt>
      <trkpt lat="62.635903239404" lon="17.978998977186">
        <ele>63.8</ele>
        <time>2018-02-15T18:13:18Z</time>
      </trkpt>
      <trkpt lat="62.635919248833" lon="17.979003754869">
        <ele>64</ele>
        <time>2018-02-15T18:13:19Z</time>
      </trkpt>
      <trkpt lat="62.635934922986" lon="17.979008281095">
        <ele>64.2</ele>
        <time>2018-02-15T18:13:20Z</time>
      </trkpt>
      <trkpt lat="62.635951602967" lon="17.979011382398">
        <ele>64.6</ele>
        <time>2018-02-15T18:13:21Z</time>
      </trkpt>
      <trkpt lat="62.635966103654" lon="17.979013477873">
        <ele>64.6</ele>
        <time>2018-02-15T18:13:22Z</time>
      </trkpt>
      <trkpt lat="62.636006839688" lon="17.979085478394">
        <ele>65.4</ele>
        <time>2018-02-15T18:13:24Z</time>
      </trkpt>
      <trkpt lat="62.636013964303" lon="17.979126382066">
        <ele>65.4</ele>
        <time>2018-02-15T18:13:25Z</time>
      </trkpt>
      <trkpt lat="62.636013629027" lon="17.979179607131">
        <ele>65.6</ele>
        <time>2018-02-15T18:13:26Z</time>
      </trkpt>
      <trkpt lat="62.636006085317" lon="17.979234927671">
        <ele>65.6</ele>
        <time>2018-02-15T18:13:27Z</time>
      </trkpt>
      <trkpt lat="62.636000469444" lon="17.979292176048">
        <ele>65.6</ele>
        <time>2018-02-15T18:13:28Z</time>
      </trkpt>
      <trkpt lat="62.635994266838" lon="17.979347580407">
        <ele>65.4</ele>
        <time>2018-02-15T18:13:29Z</time>
      </trkpt>
      <trkpt lat="62.635987896594" lon="17.979432572873">
        <ele>65.2</ele>
        <time>2018-02-15T18:13:30Z</time>
      </trkpt>
      <trkpt lat="62.635983286549" lon="17.979520499004">
        <ele>65.2</ele>
        <time>2018-02-15T18:13:31Z</time>
      </trkpt>
      <trkpt lat="62.635975156106" lon="17.97965410649">
        <ele>64.8</ele>
        <time>2018-02-15T18:13:32Z</time>
      </trkpt>
      <trkpt lat="62.635973731183" lon="17.979807914355">
        <ele>64.4</ele>
        <time>2018-02-15T18:13:33Z</time>
      </trkpt>
      <trkpt lat="62.635978089771" lon="17.979944706963">
        <ele>63.4</ele>
        <time>2018-02-15T18:13:34Z</time>
      </trkpt>
      <trkpt lat="62.635989572974" lon="17.980096251715">
        <ele>62.2</ele>
        <time>2018-02-15T18:13:35Z</time>
      </trkpt>
      <trkpt lat="62.636006420593" lon="17.980249640485">
        <ele>61</ele>
        <time>2018-02-15T18:13:36Z</time>
      </trkpt>
      <trkpt lat="62.636025531325" lon="17.980387019826">
        <ele>60</ele>
        <time>2018-02-15T18:13:37Z</time>
      </trkpt>
      <trkpt lat="62.636047659541" lon="17.980515514353">
        <ele>59.2</ele>
        <time>2018-02-15T18:13:38Z</time>
      </trkpt>
      <trkpt lat="62.636071296499" lon="17.980628837641">
        <ele>58.8</ele>
        <time>2018-02-15T18:13:39Z</time>
      </trkpt>
      <trkpt lat="62.636096442199" lon="17.980750794286">
        <ele>58.6</ele>
        <time>2018-02-15T18:13:40Z</time>
      </trkpt>
      <trkpt lat="62.63612150408" lon="17.980874092035">
        <ele>58.4</ele>
        <time>2018-02-15T18:13:41Z</time>
      </trkpt>
      <trkpt lat="62.636141872097" lon="17.980992528282">
        <ele>58.2</ele>
        <time>2018-02-15T18:13:42Z</time>
      </trkpt>
      <trkpt lat="62.63615838444" lon="17.981114317289">
        <ele>57.8</ele>
        <time>2018-02-15T18:13:43Z</time>
      </trkpt>
      <trkpt lat="62.636168023625" lon="17.981219677772">
        <ele>57.6</ele>
        <time>2018-02-15T18:13:44Z</time>
      </trkpt>
      <trkpt lat="62.636174142412" lon="17.981321014943">
        <ele>57.4</ele>
        <time>2018-02-15T18:13:45Z</time>
      </trkpt>
      <trkpt lat="62.636179842104" lon="17.981413048205">
        <ele>57.2</ele>
        <time>2018-02-15T18:13:46Z</time>
      </trkpt>
      <trkpt lat="62.636182859588" lon="17.981511200254">
        <ele>57.2</ele>
        <time>2018-02-15T18:13:47Z</time>
      </trkpt>
      <trkpt lat="62.636197360275" lon="17.981593175236">
        <ele>57.2</ele>
        <time>2018-02-15T18:13:48Z</time>
      </trkpt>
      <trkpt lat="62.636211860962" lon="17.981683029204">
        <ele>57.4</ele>
        <time>2018-02-15T18:13:49Z</time>
      </trkpt>
      <trkpt lat="62.636229965866" lon="17.98176885986">
        <ele>57.4</ele>
        <time>2018-02-15T18:13:50Z</time>
      </trkpt>
      <trkpt lat="62.636248322227" lon="17.981858127095">
        <ele>57.6</ele>
        <time>2018-02-15T18:13:51Z</time>
      </trkpt>
      <trkpt lat="62.636265756579" lon="17.981944963579">
        <ele>58</ele>
        <time>2018-02-15T18:13:52Z</time>
      </trkpt>
      <trkpt lat="62.636285956958" lon="17.982034063176">
        <ele>58</ele>
        <time>2018-02-15T18:13:53Z</time>
      </trkpt>
      <trkpt lat="62.63629500941" lon="17.982119726194">
        <ele>57.8</ele>
        <time>2018-02-15T18:13:54Z</time>
      </trkpt>
      <trkpt lat="62.636297691618" lon="17.982220476632">
        <ele>57.8</ele>
        <time>2018-02-15T18:13:55Z</time>
      </trkpt>
      <trkpt lat="62.636299451817" lon="17.982295410818">
        <ele>57.8</ele>
        <time>2018-02-15T18:13:56Z</time>
      </trkpt>
      <trkpt lat="62.636298445989" lon="17.982388449908">
        <ele>57.6</ele>
        <time>2018-02-15T18:13:57Z</time>
      </trkpt>
      <trkpt lat="62.636299367998" lon="17.98247461584">
        <ele>57.6</ele>
        <time>2018-02-15T18:13:58Z</time>
      </trkpt>
      <trkpt lat="62.636301882568" lon="17.982550220578">
        <ele>57.4</ele>
        <time>2018-02-15T18:13:59Z</time>
      </trkpt>
      <trkpt lat="62.636299619455" lon="17.982644516953">
        <ele>57.6</ele>
        <time>2018-02-15T18:14:00Z</time>
      </trkpt>
      <trkpt lat="62.636292578659" lon="17.982730850523">
        <ele>57.8</ele>
        <time>2018-02-15T18:14:01Z</time>
      </trkpt>
      <trkpt lat="62.636287800976" lon="17.982797235171">
        <ele>57.8</ele>
        <time>2018-02-15T18:14:02Z</time>
      </trkpt>
      <trkpt lat="62.636281430732" lon="17.982878204325">
        <ele>57.8</ele>
        <time>2018-02-15T18:14:03Z</time>
      </trkpt>
      <trkpt lat="62.636277910334" lon="17.982942744955">
        <ele>58</ele>
        <time>2018-02-15T18:14:04Z</time>
      </trkpt>
      <trkpt lat="62.636276233954" lon="17.983023127376">
        <ele>57.8</ele>
        <time>2018-02-15T18:14:05Z</time>
      </trkpt>
      <trkpt lat="62.636277239782" lon="17.983102168693">
        <ele>58</ele>
        <time>2018-02-15T18:14:06Z</time>
      </trkpt>
      <trkpt lat="62.636281766008" lon="17.983171487006">
        <ele>58</ele>
        <time>2018-02-15T18:14:07Z</time>
      </trkpt>
      <trkpt lat="62.636284029121" lon="17.983255892739">
        <ele>58</ele>
        <time>2018-02-15T18:14:08Z</time>
      </trkpt>
      <trkpt lat="62.636280676361" lon="17.983325630147">
        <ele>58.2</ele>
        <time>2018-02-15T18:14:09Z</time>
      </trkpt>
      <trkpt lat="62.636284532035" lon="17.983389667863">
        <ele>58.2</ele>
        <time>2018-02-15T18:14:10Z</time>
      </trkpt>
      <trkpt lat="62.636280424904" lon="17.983450352819">
        <ele>58.2</ele>
        <time>2018-02-15T18:14:11Z</time>
      </trkpt>
      <trkpt lat="62.636272629737" lon="17.983509529033">
        <ele>58.4</ele>
        <time>2018-02-15T18:14:12Z</time>
      </trkpt>
      <trkpt lat="62.636266594769" lon="17.983562670279">
        <ele>58.4</ele>
        <time>2018-02-15T18:14:13Z</time>
      </trkpt>
      <trkpt lat="62.636257458498" lon="17.98361706881">
        <ele>58.4</ele>
        <time>2018-02-15T18:14:14Z</time>
      </trkpt>
      <trkpt lat="62.63625226172" lon="17.983696110127">
        <ele>58.6</ele>
        <time>2018-02-15T18:14:15Z</time>
      </trkpt>
      <trkpt lat="62.636243460725" lon="17.983768278286">
        <ele>58.6</ele>
        <time>2018-02-15T18:14:16Z</time>
      </trkpt>
      <trkpt lat="62.63623465973" lon="17.98382913088">
        <ele>58.8</ele>
        <time>2018-02-15T18:14:17Z</time>
      </trkpt>
      <trkpt lat="62.636217393016" lon="17.983893420053">
        <ele>58.8</ele>
        <time>2018-02-15T18:14:18Z</time>
      </trkpt>
      <trkpt lat="62.636202221777" lon="17.983945052557">
        <ele>59</ele>
        <time>2018-02-15T18:14:19Z</time>
      </trkpt>
      <trkpt lat="62.636190738574" lon="17.984001965658">
        <ele>59</ele>
        <time>2018-02-15T18:14:20Z</time>
      </trkpt>
      <trkpt lat="62.636184116873" lon="17.984064159356">
        <ele>59</ele>
        <time>2018-02-15T18:14:21Z</time>
      </trkpt>
      <trkpt lat="62.636183111045" lon="17.984115708041">
        <ele>59.2</ele>
        <time>2018-02-15T18:14:22Z</time>
      </trkpt>
      <trkpt lat="62.636180093561" lon="17.984174213703">
        <ele>59.4</ele>
        <time>2018-02-15T18:14:23Z</time>
      </trkpt>
      <trkpt lat="62.636176656982" lon="17.984229198967">
        <ele>59.6</ele>
        <time>2018-02-15T18:14:24Z</time>
      </trkpt>
      <trkpt lat="62.636178668638" lon="17.984281669661">
        <ele>59.6</ele>
        <time>2018-02-15T18:14:25Z</time>
      </trkpt>
      <trkpt lat="62.636171627842" lon="17.984341767884">
        <ele>59.8</ele>
        <time>2018-02-15T18:14:26Z</time>
      </trkpt>
      <trkpt lat="62.636171879299" lon="17.984388371248">
        <ele>59.8</ele>
        <time>2018-02-15T18:14:27Z</time>
      </trkpt>
      <trkpt lat="62.636168945634" lon="17.984440506666">
        <ele>60</ele>
        <time>2018-02-15T18:14:28Z</time>
      </trkpt>
      <trkpt lat="62.636165509055" lon="17.984504795839">
        <ele>60</ele>
        <time>2018-02-15T18:14:29Z</time>
      </trkpt>
      <trkpt lat="62.636164167951" lon="17.98456087075">
        <ele>60.2</ele>
        <time>2018-02-15T18:14:30Z</time>
      </trkpt>
      <trkpt lat="62.636156205146" lon="17.984619879326">
        <ele>60.2</ele>
        <time>2018-02-15T18:14:31Z</time>
      </trkpt>
      <trkpt lat="62.636148912893" lon="17.984677546798">
        <ele>60.2</ele>
        <time>2018-02-15T18:14:32Z</time>
      </trkpt>
      <trkpt lat="62.63614916435" lon="17.98472934694">
        <ele>60.4</ele>
        <time>2018-02-15T18:14:33Z</time>
      </trkpt>
      <trkpt lat="62.636148745255" lon="17.984782069091">
        <ele>60.4</ele>
        <time>2018-02-15T18:14:34Z</time>
      </trkpt>
      <trkpt lat="62.636157713888" lon="17.984834791242">
        <ele>60.4</ele>
        <time>2018-02-15T18:14:35Z</time>
      </trkpt>
      <trkpt lat="62.636157713888" lon="17.984888016307">
        <ele>60.4</ele>
        <time>2018-02-15T18:14:36Z</time>
      </trkpt>
      <trkpt lat="62.636153858214" lon="17.984944342675">
        <ele>60.6</ele>
        <time>2018-02-15T18:14:37Z</time>
      </trkpt>
      <trkpt lat="62.636156205146" lon="17.984990526944">
        <ele>60.6</ele>
        <time>2018-02-15T18:14:38Z</time>
      </trkpt>
      <trkpt lat="62.636154696404" lon="17.985053055918">
        <ele>60.8</ele>
        <time>2018-02-15T18:14:39Z</time>
      </trkpt>
      <trkpt lat="62.636158468259" lon="17.985106951535">
        <ele>60.8</ele>
        <time>2018-02-15T18:14:40Z</time>
      </trkpt>
      <trkpt lat="62.636168275082" lon="17.985153554899">
        <ele>61</ele>
        <time>2018-02-15T18:14:41Z</time>
      </trkpt>
      <trkpt lat="62.636170035281" lon="17.985201164091">
        <ele>61</ele>
        <time>2018-02-15T18:14:42Z</time>
      </trkpt>
      <trkpt lat="62.636171544023" lon="17.985276265915">
        <ele>61.2</ele>
        <time>2018-02-15T18:14:43Z</time>
      </trkpt>
      <trkpt lat="62.636171292566" lon="17.9853278146">
        <ele>61.4</ele>
        <time>2018-02-15T18:14:44Z</time>
      </trkpt>
      <trkpt lat="62.636162491571" lon="17.985394450705">
        <ele>61.4</ele>
        <time>2018-02-15T18:14:45Z</time>
      </trkpt>
      <trkpt lat="62.636152600929" lon="17.985457985507">
        <ele>61.4</ele>
        <time>2018-02-15T18:14:46Z</time>
      </trkpt>
      <trkpt lat="62.636150086359" lon="17.985517329359">
        <ele>61.6</ele>
        <time>2018-02-15T18:14:47Z</time>
      </trkpt>
      <trkpt lat="62.63613156236" lon="17.985582456722">
        <ele>61.6</ele>
        <time>2018-02-15T18:14:48Z</time>
      </trkpt>
      <trkpt lat="62.636114966198" lon="17.985640291832">
        <ele>61.6</ele>
        <time>2018-02-15T18:14:49Z</time>
      </trkpt>
      <trkpt lat="62.636099375864" lon="17.985700390055">
        <ele>61.8</ele>
        <time>2018-02-15T18:14:50Z</time>
      </trkpt>
      <trkpt lat="62.636083366435" lon="17.985743724478">
        <ele>61.8</ele>
        <time>2018-02-15T18:14:51Z</time>
      </trkpt>
      <trkpt lat="62.636071967051" lon="17.985785550159">
        <ele>61.6</ele>
        <time>2018-02-15T18:14:52Z</time>
      </trkpt>
      <trkpt lat="62.636055538527" lon="17.985833075532">
        <ele>61.8</ele>
        <time>2018-02-15T18:14:53Z</time>
      </trkpt>
      <trkpt lat="62.63603265594" lon="17.985873643928">
        <ele>62</ele>
        <time>2018-02-15T18:14:54Z</time>
      </trkpt>
      <trkpt lat="62.636007929335" lon="17.985922426586">
        <ele>62</ele>
        <time>2018-02-15T18:14:55Z</time>
      </trkpt>
      <trkpt lat="62.63598320273" lon="17.985958468756">
        <ele>62.2</ele>
        <time>2018-02-15T18:14:56Z</time>
      </trkpt>
      <trkpt lat="62.635956548288" lon="17.985987302492">
        <ele>62.4</ele>
        <time>2018-02-15T18:14:57Z</time>
      </trkpt>
      <trkpt lat="62.635932827511" lon="17.986008592518">
        <ele>62.6</ele>
        <time>2018-02-15T18:14:58Z</time>
      </trkpt>
      <trkpt lat="62.635903155585" lon="17.986033486761">
        <ele>62.8</ele>
        <time>2018-02-15T18:14:59Z</time>
      </trkpt>
      <trkpt lat="62.635879099532" lon="17.98605536352">
        <ele>63</ele>
        <time>2018-02-15T18:15:00Z</time>
      </trkpt>
      <trkpt lat="62.635853450918" lon="17.98606206904">
        <ele>63</ele>
        <time>2018-02-15T18:15:01Z</time>
      </trkpt>
      <trkpt lat="62.635831071245" lon="17.986090986595">
        <ele>63.2</ele>
        <time>2018-02-15T18:15:02Z</time>
      </trkpt>
      <trkpt lat="62.635804752079" lon="17.986112947173">
        <ele>63.2</ele>
        <time>2018-02-15T18:15:03Z</time>
      </trkpt>
      <trkpt lat="62.635782540044" lon="17.986144882212">
        <ele>63.2</ele>
        <time>2018-02-15T18:15:04Z</time>
      </trkpt>
      <trkpt lat="62.63576024419" lon="17.986181008201">
        <ele>63.2</ele>
        <time>2018-02-15T18:15:05Z</time>
      </trkpt>
      <trkpt lat="62.635738032155" lon="17.98621545781">
        <ele>63.4</ele>
        <time>2018-02-15T18:15:06Z</time>
      </trkpt>
      <trkpt lat="62.635722609459" lon="17.986253846912">
        <ele>63.6</ele>
        <time>2018-02-15T18:15:07Z</time>
      </trkpt>
      <trkpt lat="62.63570743822" lon="17.986286284865">
        <ele>63.6</ele>
        <time>2018-02-15T18:15:08Z</time>
      </trkpt>
      <trkpt lat="62.63569067442" lon="17.986316459705">
        <ele>63.6</ele>
        <time>2018-02-15T18:15:09Z</time>
      </trkpt>
      <trkpt lat="62.635670893136" lon="17.986352837151">
        <ele>63.8</ele>
        <time>2018-02-15T18:15:10Z</time>
      </trkpt>
      <trkpt lat="62.635653123508" lon="17.986391310072">
        <ele>63.8</ele>
        <time>2018-02-15T18:15:11Z</time>
      </trkpt>
      <trkpt lat="62.635631582025" lon="17.986431962287">
        <ele>64</ele>
        <time>2018-02-15T18:15:12Z</time>
      </trkpt>
      <trkpt lat="62.635618254804" lon="17.986477476004">
        <ele>64</ele>
        <time>2018-02-15T18:15:13Z</time>
      </trkpt>
      <trkpt lat="62.635602832108" lon="17.986518714952">
        <ele>64.2</ele>
        <time>2018-02-15T18:15:14Z</time>
      </trkpt>
      <trkpt lat="62.635586235946" lon="17.986570263637">
        <ele>64.2</ele>
        <time>2018-02-15T18:15:15Z</time>
      </trkpt>
      <trkpt lat="62.635571567621" lon="17.986616531725">
        <ele>64.4</ele>
        <time>2018-02-15T18:15:16Z</time>
      </trkpt>
      <trkpt lat="62.635553295079" lon="17.986670259704">
        <ele>64.4</ele>
        <time>2018-02-15T18:15:17Z</time>
      </trkpt>
      <trkpt lat="62.635542230971" lon="17.986710492824">
        <ele>64.4</ele>
        <time>2018-02-15T18:15:18Z</time>
      </trkpt>
      <trkpt lat="62.635526975913" lon="17.986746786451">
        <ele>64.6</ele>
        <time>2018-02-15T18:15:19Z</time>
      </trkpt>
      <trkpt lat="62.63550962538" lon="17.98679045615">
        <ele>64.6</ele>
        <time>2018-02-15T18:15:20Z</time>
      </trkpt>
      <trkpt lat="62.635495711426" lon="17.986830605451">
        <ele>64.8</ele>
        <time>2018-02-15T18:15:21Z</time>
      </trkpt>
      <trkpt lat="62.635480624006" lon="17.986870503295">
        <ele>65</ele>
        <time>2018-02-15T18:15:22Z</time>
      </trkpt>
      <trkpt lat="62.635465033672" lon="17.986917190478">
        <ele>65.4</ele>
        <time>2018-02-15T18:15:23Z</time>
      </trkpt>
      <trkpt lat="62.635444665655" lon="17.986960776358">
        <ele>65.6</ele>
        <time>2018-02-15T18:15:24Z</time>
      </trkpt>
      <trkpt lat="62.635421699249" lon="17.98700838555">
        <ele>65.8</ele>
        <time>2018-02-15T18:15:25Z</time>
      </trkpt>
      <trkpt lat="62.635402672336" lon="17.987049959774">
        <ele>65.8</ele>
        <time>2018-02-15T18:15:26Z</time>
      </trkpt>
      <trkpt lat="62.635383142509" lon="17.987087259229">
        <ele>65.8</ele>
        <time>2018-02-15T18:15:27Z</time>
      </trkpt>
      <trkpt lat="62.63536964765" lon="17.987125564512">
        <ele>65.8</ele>
        <time>2018-02-15T18:15:28Z</time>
      </trkpt>
      <trkpt lat="62.635349614909" lon="17.987165881451">
        <ele>65.8</ele>
        <time>2018-02-15T18:15:29Z</time>
      </trkpt>
      <trkpt lat="62.635329582168" lon="17.987208629141">
        <ele>65.8</ele>
        <time>2018-02-15T18:15:30Z</time>
      </trkpt>
      <trkpt lat="62.63530762159" lon="17.987245509501">
        <ele>66</ele>
        <time>2018-02-15T18:15:31Z</time>
      </trkpt>
      <trkpt lat="62.635290522514" lon="17.987291107037">
        <ele>66</ele>
        <time>2018-02-15T18:15:32Z</time>
      </trkpt>
      <trkpt lat="62.635272836705" lon="17.987328741768">
        <ele>66.2</ele>
        <time>2018-02-15T18:15:33Z</time>
      </trkpt>
      <trkpt lat="62.635256743457" lon="17.987361514997">
        <ele>66.4</ele>
        <time>2018-02-15T18:15:34Z</time>
      </trkpt>
      <trkpt lat="62.635236459259" lon="17.987401329022">
        <ele>66.4</ele>
        <time>2018-02-15T18:15:35Z</time>
      </trkpt>
      <trkpt lat="62.635216594156" lon="17.987437957925">
        <ele>66.6</ele>
        <time>2018-02-15T18:15:36Z</time>
      </trkpt>
      <trkpt lat="62.635202093469" lon="17.987475760294">
        <ele>66.8</ele>
        <time>2018-02-15T18:15:37Z</time>
      </trkpt>
      <trkpt lat="62.635182898918" lon="17.987513981758">
        <ele>66.8</ele>
        <time>2018-02-15T18:15:38Z</time>
      </trkpt>
      <trkpt lat="62.63516932024" lon="17.987547174082">
        <ele>67</ele>
        <time>2018-02-15T18:15:39Z</time>
      </trkpt>
      <trkpt lat="62.635150796241" lon="17.987582042786">
        <ele>67</ele>
        <time>2018-02-15T18:15:40Z</time>
      </trkpt>
      <trkpt lat="62.635131936966" lon="17.987616995309">
        <ele>67.2</ele>
        <time>2018-02-15T18:15:41Z</time>
      </trkpt>
      <trkpt lat="62.635116765727" lon="17.987648259796">
        <ele>67.2</ele>
        <time>2018-02-15T18:15:42Z</time>
      </trkpt>
      <trkpt lat="62.635095224244" lon="17.9876831285">
        <ele>67.2</ele>
        <time>2018-02-15T18:15:43Z</time>
      </trkpt>
      <trkpt lat="62.635079969186" lon="17.987724702724">
        <ele>67.4</ele>
        <time>2018-02-15T18:15:44Z</time>
      </trkpt>
      <trkpt lat="62.635058762979" lon="17.987763846197">
        <ele>67.6</ele>
        <time>2018-02-15T18:15:45Z</time>
      </trkpt>
      <trkpt lat="62.635037053858" lon="17.98779041682">
        <ele>67.6</ele>
        <time>2018-02-15T18:15:46Z</time>
      </trkpt>
      <trkpt lat="62.635017440212" lon="17.987826039895">
        <ele>67.8</ele>
        <time>2018-02-15T18:15:47Z</time>
      </trkpt>
      <trkpt lat="62.634993551797" lon="17.987853700165">
        <ele>67.8</ele>
        <time>2018-02-15T18:15:48Z</time>
      </trkpt>
      <trkpt lat="62.634973519056" lon="17.987891502534">
        <ele>68</ele>
        <time>2018-02-15T18:15:49Z</time>
      </trkpt>
      <trkpt lat="62.634952145211" lon="17.987926119781">
        <ele>68</ele>
        <time>2018-02-15T18:15:50Z</time>
      </trkpt>
      <trkpt lat="62.634929011167" lon="17.987961910494">
        <ele>68.2</ele>
        <time>2018-02-15T18:15:51Z</time>
      </trkpt>
      <trkpt lat="62.634911576815" lon="17.987986804737">
        <ele>68.2</ele>
        <time>2018-02-15T18:15:52Z</time>
      </trkpt>
      <trkpt lat="62.634889616237" lon="17.988005664012">
        <ele>68.4</ele>
        <time>2018-02-15T18:15:53Z</time>
      </trkpt>
      <trkpt lat="62.634869415858" lon="17.988028127504">
        <ele>68.6</ele>
        <time>2018-02-15T18:15:54Z</time>
      </trkpt>
      <trkpt lat="62.634849215479" lon="17.988048411702">
        <ele>68.8</ele>
        <time>2018-02-15T18:15:55Z</time>
      </trkpt>
      <trkpt lat="62.634826165254" lon="17.988070539918">
        <ele>69</ele>
        <time>2018-02-15T18:15:56Z</time>
      </trkpt>
      <trkpt lat="62.634804120857" lon="17.988100295663">
        <ele>69.2</ele>
        <time>2018-02-15T18:15:57Z</time>
      </trkpt>
      <trkpt lat="62.634778639881" lon="17.988115550721">
        <ele>69.2</ele>
        <time>2018-02-15T18:15:58Z</time>
      </trkpt>
      <trkpt lat="62.634751817801" lon="17.988120998956">
        <ele>69.4</ele>
        <time>2018-02-15T18:15:59Z</time>
      </trkpt>
      <trkpt lat="62.634728851395" lon="17.988136086376">
        <ele>69.2</ele>
        <time>2018-02-15T18:16:00Z</time>
      </trkpt>
      <trkpt lat="62.634702196953" lon="17.988139355317">
        <ele>69.4</ele>
        <time>2018-02-15T18:16:01Z</time>
      </trkpt>
      <trkpt lat="62.634681242203" lon="17.98815335309">
        <ele>69.6</ele>
        <time>2018-02-15T18:16:02Z</time>
      </trkpt>
      <trkpt lat="62.634652408467" lon="17.988156454393">
        <ele>69.8</ele>
        <time>2018-02-15T18:16:03Z</time>
      </trkpt>
      <trkpt lat="62.634631537536" lon="17.988174391659">
        <ele>70</ele>
        <time>2018-02-15T18:16:04Z</time>
      </trkpt>
      <trkpt lat="62.634599937773" lon="17.98818101336">
        <ele>70</ele>
        <time>2018-02-15T18:16:05Z</time>
      </trkpt>
      <trkpt lat="62.634577055186" lon="17.988174475478">
        <ele>70.2</ele>
        <time>2018-02-15T18:16:06Z</time>
      </trkpt>
      <trkpt lat="62.63455827973" lon="17.9881776606">
        <ele>70.2</ele>
        <time>2018-02-15T18:16:07Z</time>
      </trkpt>
      <trkpt lat="62.634535061867" lon="17.988179169342">
        <ele>70.4</ele>
        <time>2018-02-15T18:16:08Z</time>
      </trkpt>
      <trkpt lat="62.634514023298" lon="17.988199034445">
        <ele>70.4</ele>
        <time>2018-02-15T18:16:09Z</time>
      </trkpt>
      <trkpt lat="62.63449122453" lon="17.988208170716">
        <ele>70.6</ele>
        <time>2018-02-15T18:16:10Z</time>
      </trkpt>
      <trkpt lat="62.634459708586" lon="17.988218815729">
        <ele>70.6</ele>
        <time>2018-02-15T18:16:11Z</time>
      </trkpt>
      <trkpt lat="62.634434562886" lon="17.988224012507">
        <ele>70.6</ele>
        <time>2018-02-15T18:16:12Z</time>
      </trkpt>
      <trkpt lat="62.634403801313" lon="17.988234908977">
        <ele>70.8</ele>
        <time>2018-02-15T18:16:13Z</time>
      </trkpt>
      <trkpt lat="62.634381756916" lon="17.988248403836">
        <ele>70.8</ele>
        <time>2018-02-15T18:16:14Z</time>
      </trkpt>
      <trkpt lat="62.634352839361" lon="17.98824723037">
        <ele>70.8</ele>
        <time>2018-02-15T18:16:15Z</time>
      </trkpt>
      <trkpt lat="62.634322245426" lon="17.988250499311">
        <ele>70.8</ele>
        <time>2018-02-15T18:16:16Z</time>
      </trkpt>
      <trkpt lat="62.634291819129" lon="17.988247398008">
        <ele>71</ele>
        <time>2018-02-15T18:16:17Z</time>
      </trkpt>
      <trkpt lat="62.63425736952" lon="17.988239938117">
        <ele>71.2</ele>
        <time>2018-02-15T18:16:18Z</time>
      </trkpt>
      <trkpt lat="62.634229960707" lon="17.988235076615">
        <ele>71.2</ele>
        <time>2018-02-15T18:16:19Z</time>
      </trkpt>
      <trkpt lat="62.634192242157" lon="17.988226862353">
        <ele>71.4</ele>
        <time>2018-02-15T18:16:20Z</time>
      </trkpt>
      <trkpt lat="62.634160893851" lon="17.988219737738">
        <ele>71.6</ele>
        <time>2018-02-15T18:16:21Z</time>
      </trkpt>
      <trkpt lat="62.634126695699" lon="17.988205656146">
        <ele>71.6</ele>
        <time>2018-02-15T18:16:22Z</time>
      </trkpt>
      <trkpt lat="62.63410146618" lon="17.988200543187">
        <ele>71.8</ele>
        <time>2018-02-15T18:16:23Z</time>
      </trkpt>
      <trkpt lat="62.634063579992" lon="17.988187215966">
        <ele>71.8</ele>
        <time>2018-02-15T18:16:24Z</time>
      </trkpt>
      <trkpt lat="62.634025861442" lon="17.988169362519">
        <ele>71.8</ele>
        <time>2018-02-15T18:16:25Z</time>
      </trkpt>
      <trkpt lat="62.634001470113" lon="17.988156789669">
        <ele>72</ele>
        <time>2018-02-15T18:16:26Z</time>
      </trkpt>
      <trkpt lat="62.63397573768" lon="17.98814078024">
        <ele>72</ele>
        <time>2018-02-15T18:16:27Z</time>
      </trkpt>
      <trkpt lat="62.633945143745" lon="17.988123429707">
        <ele>72</ele>
        <time>2018-02-15T18:16:28Z</time>
      </trkpt>
      <trkpt lat="62.633915974733" lon="17.988116975644">
        <ele>72</ele>
        <time>2018-02-15T18:16:29Z</time>
      </trkpt>
      <trkpt lat="62.633885883712" lon="17.988091578487">
        <ele>72.2</ele>
        <time>2018-02-15T18:16:30Z</time>
      </trkpt>
      <trkpt lat="62.633857888166" lon="17.988077832171">
        <ele>72.4</ele>
        <time>2018-02-15T18:16:31Z</time>
      </trkpt>
      <trkpt lat="62.633827210412" lon="17.988056625964">
        <ele>72.4</ele>
        <time>2018-02-15T18:16:32Z</time>
      </trkpt>
      <trkpt lat="62.633797287029" lon="17.988028295142">
        <ele>72.6</ele>
        <time>2018-02-15T18:16:33Z</time>
      </trkpt>
      <trkpt lat="62.633771303139" lon="17.98800918441">
        <ele>72.8</ele>
        <time>2018-02-15T18:16:34Z</time>
      </trkpt>
      <trkpt lat="62.633733836046" lon="17.987978674294">
        <ele>72.8</ele>
        <time>2018-02-15T18:16:35Z</time>
      </trkpt>
      <trkpt lat="62.633701817188" lon="17.987950092015">
        <ele>73</ele>
        <time>2018-02-15T18:16:36Z</time>
      </trkpt>
      <trkpt lat="62.633669965968" lon="17.987906589954">
        <ele>72.8</ele>
        <time>2018-02-15T18:16:37Z</time>
      </trkpt>
      <trkpt lat="62.633645658458" lon="17.987873900544">
        <ele>73</ele>
        <time>2018-02-15T18:16:38Z</time>
      </trkpt>
      <trkpt lat="62.633622608233" lon="17.987855711821">
        <ele>73</ele>
        <time>2018-02-15T18:16:39Z</time>
      </trkpt>
      <trkpt lat="62.633600060922" lon="17.987834505614">
        <ele>73.4</ele>
        <time>2018-02-15T18:16:40Z</time>
      </trkpt>
      <trkpt lat="62.633574077032" lon="17.987801564747">
        <ele>73.4</ele>
        <time>2018-02-15T18:16:41Z</time>
      </trkpt>
      <trkpt lat="62.633550691531" lon="17.987776838142">
        <ele>73.6</ele>
        <time>2018-02-15T18:16:42Z</time>
      </trkpt>
      <trkpt lat="62.633524456184" lon="17.987745406017">
        <ele>73.8</ele>
        <time>2018-02-15T18:16:43Z</time>
      </trkpt>
      <trkpt lat="62.63349796938" lon="17.987710034399">
        <ele>74</ele>
        <time>2018-02-15T18:16:44Z</time>
      </trkpt>
      <trkpt lat="62.633469722377" lon="17.987671561478">
        <ele>73.8</ele>
        <time>2018-02-15T18:16:45Z</time>
      </trkpt>
      <trkpt lat="62.633445750143" lon="17.987638033878">
        <ele>74</ele>
        <time>2018-02-15T18:16:46Z</time>
      </trkpt>
      <trkpt lat="62.633426471773" lon="17.987598052215">
        <ele>74.2</ele>
        <time>2018-02-15T18:16:47Z</time>
      </trkpt>
      <trkpt lat="62.633407361041" lon="17.98755488543">
        <ele>74.4</ele>
        <time>2018-02-15T18:16:48Z</time>
      </trkpt>
      <trkpt lat="62.63339403382" lon="17.987524207676">
        <ele>74.4</ele>
        <time>2018-02-15T18:16:49Z</time>
      </trkpt>
      <trkpt lat="62.633376850925" lon="17.987486740583">
        <ele>74.6</ele>
        <time>2018-02-15T18:16:50Z</time>
      </trkpt>
      <trkpt lat="62.633361092953" lon="17.9874568172">
        <ele>74.8</ele>
        <time>2018-02-15T18:16:51Z</time>
      </trkpt>
      <trkpt lat="62.63334374242" lon="17.987421445582">
        <ele>75</ele>
        <time>2018-02-15T18:16:52Z</time>
      </trkpt>
      <trkpt lat="62.633319015815" lon="17.987365203033">
        <ele>75.2</ele>
        <time>2018-02-15T18:16:53Z</time>
      </trkpt>
      <trkpt lat="62.633290014441" lon="17.987322036248">
        <ele>75.2</ele>
        <time>2018-02-15T18:16:54Z</time>
      </trkpt>
      <trkpt lat="62.63326076161" lon="17.987234110117">
        <ele>75.2</ele>
        <time>2018-02-15T18:16:55Z</time>
      </trkpt>
      <trkpt lat="62.633238465756" lon="17.987123301399">
        <ele>75.2</ele>
        <time>2018-02-15T18:16:56Z</time>
      </trkpt>
      <trkpt lat="62.633217091911" lon="17.987014085242">
        <ele>75</ele>
        <time>2018-02-15T18:16:57Z</time>
      </trkpt>
      <trkpt lat="62.633195298971" lon="17.986902103058">
        <ele>74.2</ele>
        <time>2018-02-15T18:16:58Z</time>
      </trkpt>
      <trkpt lat="62.633184653958" lon="17.986793138358">
        <ele>73.6</ele>
        <time>2018-02-15T18:16:59Z</time>
      </trkpt>
      <trkpt lat="62.633176607334" lon="17.98668065326">
        <ele>73</ele>
        <time>2018-02-15T18:17:00Z</time>
      </trkpt>
      <trkpt lat="62.633171242918" lon="17.986583004125">
        <ele>72.2</ele>
        <time>2018-02-15T18:17:01Z</time>
      </trkpt>
      <trkpt lat="62.633168225434" lon="17.986485690266">
        <ele>71.4</ele>
        <time>2018-02-15T18:17:02Z</time>
      </trkpt>
      <trkpt lat="62.633165375588" lon="17.986391058615">
        <ele>70.8</ele>
        <time>2018-02-15T18:17:03Z</time>
      </trkpt>
      <trkpt lat="62.633165962321" lon="17.986291397824">
        <ele>70.8</ele>
        <time>2018-02-15T18:17:04Z</time>
      </trkpt>
      <trkpt lat="62.633166213778" lon="17.986160304908">
        <ele>71</ele>
        <time>2018-02-15T18:17:05Z</time>
      </trkpt>
      <trkpt lat="62.633169231262" lon="17.98604362886">
        <ele>70.8</ele>
        <time>2018-02-15T18:17:06Z</time>
      </trkpt>
      <trkpt lat="62.63317191347" lon="17.985925863165">
        <ele>70.6</ele>
        <time>2018-02-15T18:17:07Z</time>
      </trkpt>
      <trkpt lat="62.633172332565" lon="17.98581480299">
        <ele>70.2</ele>
        <time>2018-02-15T18:17:08Z</time>
      </trkpt>
      <trkpt lat="62.63317526623" lon="17.98571757295">
        <ele>70</ele>
        <time>2018-02-15T18:17:09Z</time>
      </trkpt>
      <trkpt lat="62.633177613162" lon="17.985617912159">
        <ele>69.4</ele>
        <time>2018-02-15T18:17:10Z</time>
      </trkpt>
      <trkpt lat="62.633177864619" lon="17.985508360726">
        <ele>69</ele>
        <time>2018-02-15T18:17:11Z</time>
      </trkpt>
      <trkpt lat="62.633177361705" lon="17.985399815121">
        <ele>69</ele>
        <time>2018-02-15T18:17:12Z</time>
      </trkpt>
      <trkpt lat="62.633187252347" lon="17.985267297282">
        <ele>69.2</ele>
        <time>2018-02-15T18:17:13Z</time>
      </trkpt>
      <trkpt lat="62.633200747206" lon="17.985138551298">
        <ele>69.4</ele>
        <time>2018-02-15T18:17:14Z</time>
      </trkpt>
      <trkpt lat="62.633217008092" lon="17.984995556084">
        <ele>69.4</ele>
        <time>2018-02-15T18:17:15Z</time>
      </trkpt>
      <trkpt lat="62.633236621738" lon="17.984879131493">
        <ele>69</ele>
        <time>2018-02-15T18:17:16Z</time>
      </trkpt>
      <trkpt lat="62.633259588144" lon="17.984754576459">
        <ele>68.6</ele>
        <time>2018-02-15T18:17:17Z</time>
      </trkpt>
      <trkpt lat="62.633283225102" lon="17.98464804251">
        <ele>68.2</ele>
        <time>2018-02-15T18:17:18Z</time>
      </trkpt>
      <trkpt lat="62.633301916739" lon="17.984562630949">
        <ele>67.8</ele>
        <time>2018-02-15T18:17:19Z</time>
      </trkpt>
      <trkpt lat="62.633321195109" lon="17.984455845543">
        <ele>67</ele>
        <time>2018-02-15T18:17:20Z</time>
      </trkpt>
      <trkpt lat="62.633332762131" lon="17.984369260516">
        <ele>65.8</ele>
        <time>2018-02-15T18:17:21Z</time>
      </trkpt>
      <trkpt lat="62.633345586438" lon="17.984289632466">
        <ele>65.6</ele>
        <time>2018-02-15T18:17:22Z</time>
      </trkpt>
      <trkpt lat="62.633351872863" lon="17.98420380181">
        <ele>65.8</ele>
        <time>2018-02-15T18:17:23Z</time>
      </trkpt>
      <trkpt lat="62.633351118492" lon="17.984120653362">
        <ele>66.2</ele>
        <time>2018-02-15T18:17:24Z</time>
      </trkpt>
      <trkpt lat="62.633356734365" lon="17.984015376698">
        <ele>66.4</ele>
        <time>2018-02-15T18:17:25Z</time>
      </trkpt>
      <trkpt lat="62.633369307215" lon="17.983932814983">
        <ele>67</ele>
        <time>2018-02-15T18:17:26Z</time>
      </trkpt>
      <trkpt lat="62.633380706599" lon="17.983861987928">
        <ele>67</ele>
        <time>2018-02-15T18:17:27Z</time>
      </trkpt>
      <trkpt lat="62.63339319563" lon="17.983791579968">
        <ele>67.2</ele>
        <time>2018-02-15T18:17:28Z</time>
      </trkpt>
      <trkpt lat="62.633402499539" lon="17.98373609179">
        <ele>67.2</ele>
        <time>2018-02-15T18:17:29Z</time>
      </trkpt>
      <trkpt lat="62.633400152607" lon="17.983654200627">
        <ele>67.2</ele>
        <time>2018-02-15T18:17:30Z</time>
      </trkpt>
      <trkpt lat="62.633406271394" lon="17.983575326948">
        <ele>67.2</ele>
        <time>2018-02-15T18:17:31Z</time>
      </trkpt>
      <trkpt lat="62.633421945547" lon="17.983514222897">
        <ele>67.2</ele>
        <time>2018-02-15T18:17:32Z</time>
      </trkpt>
      <trkpt lat="62.633434602216" lon="17.983457645072">
        <ele>67.2</ele>
        <time>2018-02-15T18:17:33Z</time>
      </trkpt>
      <trkpt lat="62.633449941093" lon="17.98340165398">
        <ele>67.2</ele>
        <time>2018-02-15T18:17:34Z</time>
      </trkpt>
      <trkpt lat="62.633471314938" lon="17.983343735051">
        <ele>67.4</ele>
        <time>2018-02-15T18:17:35Z</time>
      </trkpt>
      <trkpt lat="62.633482714322" lon="17.983278607688">
        <ele>67.4</ele>
        <time>2018-02-15T18:17:36Z</time>
      </trkpt>
      <trkpt lat="62.633501489778" lon="17.983208618823">
        <ele>67.4</ele>
        <time>2018-02-15T18:17:37Z</time>
      </trkpt>
      <trkpt lat="62.63350970404" lon="17.983145000202">
        <ele>67.4</ele>
        <time>2018-02-15T18:17:38Z</time>
      </trkpt>
      <trkpt lat="62.633521857795" lon="17.983080711029">
        <ele>67.6</ele>
        <time>2018-02-15T18:17:39Z</time>
      </trkpt>
      <trkpt lat="62.63353652612" lon="17.983016002761">
        <ele>67.4</ele>
        <time>2018-02-15T18:17:40Z</time>
      </trkpt>
      <trkpt lat="62.633545410934" lon="17.982953138511">
        <ele>67.4</ele>
        <time>2018-02-15T18:17:41Z</time>
      </trkpt>
      <trkpt lat="62.633563096743" lon="17.982878958696">
        <ele>67.2</ele>
        <time>2018-02-15T18:17:42Z</time>
      </trkpt>
      <trkpt lat="62.633574915222" lon="17.982808383098">
        <ele>67.4</ele>
        <time>2018-02-15T18:17:43Z</time>
      </trkpt>
      <trkpt lat="62.633583883855" lon="17.982751637635">
        <ele>67.2</ele>
        <time>2018-02-15T18:17:44Z</time>
      </trkpt>
      <trkpt lat="62.633598971275" lon="17.982692880516">
        <ele>67.4</ele>
        <time>2018-02-15T18:17:45Z</time>
      </trkpt>
      <trkpt lat="62.633609783926" lon="17.982629513352">
        <ele>67.4</ele>
        <time>2018-02-15T18:17:46Z</time>
      </trkpt>
      <trkpt lat="62.633615232161" lon="17.982553321881">
        <ele>67.4</ele>
        <time>2018-02-15T18:17:47Z</time>
      </trkpt>
      <trkpt lat="62.633621686224" lon="17.982493810391">
        <ele>67.4</ele>
        <time>2018-02-15T18:17:48Z</time>
      </trkpt>
      <trkpt lat="62.633619590749" lon="17.982425749363">
        <ele>67.4</ele>
        <time>2018-02-15T18:17:49Z</time>
      </trkpt>
      <trkpt lat="62.633621518586" lon="17.98234050544">
        <ele>67.4</ele>
        <time>2018-02-15T18:17:50Z</time>
      </trkpt>
      <trkpt lat="62.633632331237" lon="17.982259787743">
        <ele>67.4</ele>
        <time>2018-02-15T18:17:51Z</time>
      </trkpt>
      <trkpt lat="62.633640713137" lon="17.982194325104">
        <ele>67.4</ele>
        <time>2018-02-15T18:17:52Z</time>
      </trkpt>
      <trkpt lat="62.633649262675" lon="17.982124839153">
        <ele>67.4</ele>
        <time>2018-02-15T18:17:53Z</time>
      </trkpt>
      <trkpt lat="62.633654375634" lon="17.982062561636">
        <ele>67.4</ele>
        <time>2018-02-15T18:17:54Z</time>
      </trkpt>
      <trkpt lat="62.633655884376" lon="17.981999110653">
        <ele>67.6</ele>
        <time>2018-02-15T18:17:55Z</time>
      </trkpt>
      <trkpt lat="62.633659907688" lon="17.981933815652">
        <ele>67.6</ele>
        <time>2018-02-15T18:17:56Z</time>
      </trkpt>
      <trkpt lat="62.633668038131" lon="17.981884362442">
        <ele>67.8</ele>
        <time>2018-02-15T18:17:57Z</time>
      </trkpt>
      <trkpt lat="62.633676252393" lon="17.981844464598">
        <ele>67.8</ele>
        <time>2018-02-15T18:17:58Z</time>
      </trkpt>
      <trkpt lat="62.633680778619" lon="17.981765758557">
        <ele>67.8</ele>
        <time>2018-02-15T18:17:59Z</time>
      </trkpt>
      <trkpt lat="62.633687232682" lon="17.981687136335">
        <ele>67.8</ele>
        <time>2018-02-15T18:18:00Z</time>
      </trkpt>
      <trkpt lat="62.633691758908" lon="17.981611112502">
        <ele>67.8</ele>
        <time>2018-02-15T18:18:01Z</time>
      </trkpt>
      <trkpt lat="62.633699889351" lon="17.981547661519">
        <ele>67.8</ele>
        <time>2018-02-15T18:18:02Z</time>
      </trkpt>
      <trkpt lat="62.633706930147" lon="17.981464680709">
        <ele>67.8</ele>
        <time>2018-02-15T18:18:03Z</time>
      </trkpt>
      <trkpt lat="62.633715814961" lon="17.981401816459">
        <ele>67.8</ele>
        <time>2018-02-15T18:18:04Z</time>
      </trkpt>
      <trkpt lat="62.633729980372" lon="17.981320176753">
        <ele>67.8</ele>
        <time>2018-02-15T18:18:05Z</time>
      </trkpt>
      <trkpt lat="62.633747079448" lon="17.981258737426">
        <ele>68</ele>
        <time>2018-02-15T18:18:06Z</time>
      </trkpt>
      <trkpt lat="62.633767447465" lon="17.981207524017">
        <ele>68</ele>
        <time>2018-02-15T18:18:07Z</time>
      </trkpt>
      <trkpt lat="62.633785887645" lon="17.981163099947">
        <ele>68</ele>
        <time>2018-02-15T18:18:08Z</time>
      </trkpt>
      <trkpt lat="62.633799633961" lon="17.981112305633">
        <ele>68.2</ele>
        <time>2018-02-15T18:18:09Z</time>
      </trkpt>
      <trkpt lat="62.633814134648" lon="17.981061846595">
        <ele>68.4</ele>
        <time>2018-02-15T18:18:10Z</time>
      </trkpt>
      <trkpt lat="62.633831988095" lon="17.98100610696">
        <ele>68.2</ele>
        <time>2018-02-15T18:18:11Z</time>
      </trkpt>
      <trkpt lat="62.633853026664" lon="17.980960341786">
        <ele>68.4</ele>
        <time>2018-02-15T18:18:12Z</time>
      </trkpt>
      <trkpt lat="62.633873059405" lon="17.980905356522">
        <ele>68.4</ele>
        <time>2018-02-15T18:18:13Z</time>
      </trkpt>
      <trkpt lat="62.633888901196" lon="17.980859926624">
        <ele>68.6</ele>
        <time>2018-02-15T18:18:14Z</time>
      </trkpt>
      <trkpt lat="62.633907928109" lon="17.980811479242">
        <ele>68.4</ele>
        <time>2018-02-15T18:18:15Z</time>
      </trkpt>
      <trkpt lat="62.633935672198" lon="17.980766552258">
        <ele>68.6</ele>
        <time>2018-02-15T18:18:16Z</time>
      </trkpt>
      <trkpt lat="62.63395562112" lon="17.980718272514">
        <ele>68.8</ele>
        <time>2018-02-15T18:18:17Z</time>
      </trkpt>
      <trkpt lat="62.633979425716" lon="17.980662616698">
        <ele>68.8</ele>
        <time>2018-02-15T18:18:18Z</time>
      </trkpt>
      <trkpt lat="62.633997949715" lon="17.98062137775">
        <ele>69</ele>
        <time>2018-02-15T18:18:19Z</time>
      </trkpt>
      <trkpt lat="62.634016557533" lon="17.98055348436">
        <ele>69</ele>
        <time>2018-02-15T18:18:20Z</time>
      </trkpt>
      <trkpt lat="62.634034913894" lon="17.980493889051">
        <ele>69</ele>
        <time>2018-02-15T18:18:21Z</time>
      </trkpt>
      <trkpt lat="62.634052934979" lon="17.980443262375">
        <ele>69.2</ele>
        <time>2018-02-15T18:18:22Z</time>
      </trkpt>
      <trkpt lat="62.634077829222" lon="17.980385343446">
        <ele>69.2</ele>
        <time>2018-02-15T18:18:23Z</time>
      </trkpt>
      <trkpt lat="62.634100711809" lon="17.980329939087">
        <ele>69.4</ele>
        <time>2018-02-15T18:18:24Z</time>
      </trkpt>
      <trkpt lat="62.634142034576" lon="17.980283084266">
        <ele>69.4</ele>
        <time>2018-02-15T18:18:25Z</time>
      </trkpt>
      <trkpt lat="62.634173885796" lon="17.980232373771">
        <ele>69.6</ele>
        <time>2018-02-15T18:18:26Z</time>
      </trkpt>
      <trkpt lat="62.634193164166" lon="17.980167581684">
        <ele>69.6</ele>
        <time>2018-02-15T18:18:27Z</time>
      </trkpt>
      <trkpt lat="62.634214705649" lon="17.980117206465">
        <ele>69.6</ele>
        <time>2018-02-15T18:18:28Z</time>
      </trkpt>
      <trkpt lat="62.634244126118" lon="17.980069513454">
        <ele>69.6</ele>
        <time>2018-02-15T18:18:29Z</time>
      </trkpt>
      <trkpt lat="62.634268517447" lon="17.980021485167">
        <ele>69.4</ele>
        <time>2018-02-15T18:18:30Z</time>
      </trkpt>
      <trkpt lat="62.634289472197" lon="17.979960297297">
        <ele>69.6</ele>
        <time>2018-02-15T18:18:31Z</time>
      </trkpt>
      <trkpt lat="62.634303218513" lon="17.979876897392">
        <ele>69.6</ele>
        <time>2018-02-15T18:18:32Z</time>
      </trkpt>
      <trkpt lat="62.634324508539" lon="17.979813194952">
        <ele>69.2</ele>
        <time>2018-02-15T18:18:33Z</time>
      </trkpt>
      <trkpt lat="62.634339428321" lon="17.979762735914">
        <ele>69.2</ele>
        <time>2018-02-15T18:18:34Z</time>
      </trkpt>
      <trkpt lat="62.634362059451" lon="17.979686376805">
        <ele>69.4</ele>
        <time>2018-02-15T18:18:35Z</time>
      </trkpt>
      <trkpt lat="62.634375638129" lon="17.979615717388">
        <ele>69.4</ele>
        <time>2018-02-15T18:18:36Z</time>
      </trkpt>
      <trkpt lat="62.634394413585" lon="17.979535251148">
        <ele>69.6</ele>
        <time>2018-02-15T18:18:37Z</time>
      </trkpt>
      <trkpt lat="62.634419559285" lon="17.979475907296">
        <ele>69.6</ele>
        <time>2018-02-15T18:18:38Z</time>
      </trkpt>
      <trkpt lat="62.634429449927" lon="17.979419916204">
        <ele>69.6</ele>
        <time>2018-02-15T18:18:39Z</time>
      </trkpt>
      <trkpt lat="62.634434981981" lon="17.979354621203">
        <ele>69.6</ele>
        <time>2018-02-15T18:18:40Z</time>
      </trkpt>
      <trkpt lat="62.634443196243" lon="17.97929117022">
        <ele>69.6</ele>
        <time>2018-02-15T18:18:41Z</time>
      </trkpt>
      <trkpt lat="62.634456355826" lon="17.979226881047">
        <ele>69.4</ele>
        <time>2018-02-15T18:18:42Z</time>
      </trkpt>
      <trkpt lat="62.634465408278" lon="17.979158903838">
        <ele>69.2</ele>
        <time>2018-02-15T18:18:43Z</time>
      </trkpt>
      <trkpt lat="62.634473035807" lon="17.979104840583">
        <ele>69.2</ele>
        <time>2018-02-15T18:18:44Z</time>
      </trkpt>
      <trkpt lat="62.63448787177" lon="17.979031415139">
        <ele>69.2</ele>
        <time>2018-02-15T18:18:45Z</time>
      </trkpt>
      <trkpt lat="62.634496756584" lon="17.978967377423">
        <ele>69.2</ele>
        <time>2018-02-15T18:18:46Z</time>
      </trkpt>
      <trkpt lat="62.634517711334" lon="17.97884106219">
        <ele>69.4</ele>
        <time>2018-02-15T18:18:48Z</time>
      </trkpt>
      <trkpt lat="62.634525506501" lon="17.978786496021">
        <ele>69.4</ele>
        <time>2018-02-15T18:18:49Z</time>
      </trkpt>
      <trkpt lat="62.634538666084" lon="17.978721452477">
        <ele>69.4</ele>
        <time>2018-02-15T18:18:50Z</time>
      </trkpt>
      <trkpt lat="62.634554591694" lon="17.97867510057">
        <ele>69.4</ele>
        <time>2018-02-15T18:18:51Z</time>
      </trkpt>
      <trkpt lat="62.634574540616" lon="17.978647691757">
        <ele>69.4</ele>
        <time>2018-02-15T18:18:52Z</time>
      </trkpt>
      <trkpt lat="62.634599434859" lon="17.978639226038">
        <ele>69.4</ele>
        <time>2018-02-15T18:18:53Z</time>
      </trkpt>
      <trkpt lat="62.634615192831" lon="17.978661857168">
        <ele>69.6</ele>
        <time>2018-02-15T18:18:54Z</time>
      </trkpt>
      <trkpt lat="62.634632627183" lon="17.978685494126">
        <ele>69.6</ele>
        <time>2018-02-15T18:18:55Z</time>
      </trkpt>
      <trkpt lat="62.634646708775" lon="17.978703934306">
        <ele>69.6</ele>
        <time>2018-02-15T18:18:56Z</time>
      </trkpt>
      <trkpt lat="62.634663640213" lon="17.97873209749">
        <ele>69.6</ele>
        <time>2018-02-15T18:18:57Z</time>
      </trkpt>
      <trkpt lat="62.634682918583" lon="17.978757410828">
        <ele>69.6</ele>
        <time>2018-02-15T18:18:58Z</time>
      </trkpt>
      <trkpt lat="62.63470747755" lon="17.978778617035">
        <ele>69.6</ele>
        <time>2018-02-15T18:18:59Z</time>
      </trkpt>
      <trkpt lat="62.634741256607" lon="17.978797811586">
        <ele>69.6</ele>
        <time>2018-02-15T18:19:00Z</time>
      </trkpt>
      <trkpt lat="62.634772269637" lon="17.978813988653">
        <ele>69.6</ele>
        <time>2018-02-15T18:19:01Z</time>
      </trkpt>
      <trkpt lat="62.634806048694" lon="17.978833267023">
        <ele>69.4</ele>
        <time>2018-02-15T18:19:02Z</time>
      </trkpt>
      <trkpt lat="62.634839995389" lon="17.978852461574">
        <ele>69.2</ele>
        <time>2018-02-15T18:19:03Z</time>
      </trkpt>
      <trkpt lat="62.634865308727" lon="17.978865872614">
        <ele>69</ele>
        <time>2018-02-15T18:19:04Z</time>
      </trkpt>
      <trkpt lat="62.634905458028" lon="17.978881211491">
        <ele>68.8</ele>
        <time>2018-02-15T18:19:05Z</time>
      </trkpt>
      <trkpt lat="62.634934040307" lon="17.978887833192">
        <ele>68.6</ele>
        <time>2018-02-15T18:19:06Z</time>
      </trkpt>
      <trkpt lat="62.634967064993" lon="17.978900489861">
        <ele>68.6</ele>
        <time>2018-02-15T18:19:07Z</time>
      </trkpt>
      <trkpt lat="62.63499581491" lon="17.978909207037">
        <ele>68.4</ele>
        <time>2018-02-15T18:19:08Z</time>
      </trkpt>
      <trkpt lat="62.635019451868" lon="17.978917756575">
        <ele>68.4</ele>
        <time>2018-02-15T18:19:09Z</time>
      </trkpt>
      <trkpt lat="62.635044932844" lon="17.978929658873">
        <ele>68.4</ele>
        <time>2018-02-15T18:19:10Z</time>
      </trkpt>
      <trkpt lat="62.63506789925" lon="17.978938878963">
        <ele>68.4</ele>
        <time>2018-02-15T18:19:11Z</time>
      </trkpt>
      <trkpt lat="62.635100840117" lon="17.978951367994">
        <ele>68.4</ele>
        <time>2018-02-15T18:19:12Z</time>
      </trkpt>
      <trkpt lat="62.635128332749" lon="17.978952373822">
        <ele>68.4</ele>
        <time>2018-02-15T18:19:13Z</time>
      </trkpt>
      <trkpt lat="62.635154651915" lon="17.978950362166">
        <ele>68.4</ele>
        <time>2018-02-15T18:19:14Z</time>
      </trkpt>
      <trkpt lat="62.635199662718" lon="17.978963689387">
        <ele>68.4</ele>
        <time>2018-02-15T18:19:15Z</time>
      </trkpt>
      <trkpt lat="62.635234363784" lon="17.978969891993">
        <ele>68.4</ele>
        <time>2018-02-15T18:19:16Z</time>
      </trkpt>
      <trkpt lat="62.635272669067" lon="17.97897768716">
        <ele>68.2</ele>
        <time>2018-02-15T18:19:17Z</time>
      </trkpt>
      <trkpt lat="62.635309214151" lon="17.978981291377">
        <ele>67.8</ele>
        <time>2018-02-15T18:19:18Z</time>
      </trkpt>
      <trkpt lat="62.635341233009" lon="17.978985147051">
        <ele>67.4</ele>
        <time>2018-02-15T18:19:19Z</time>
      </trkpt>
      <trkpt lat="62.635383142509" lon="17.978989254182">
        <ele>66.8</ele>
        <time>2018-02-15T18:19:20Z</time>
      </trkpt>
      <trkpt lat="62.635422369801" lon="17.978985985241">
        <ele>66.4</ele>
        <time>2018-02-15T18:19:21Z</time>
      </trkpt>
      <trkpt lat="62.635463105835" lon="17.978980034092">
        <ele>65.8</ele>
        <time>2018-02-15T18:19:22Z</time>
      </trkpt>
      <trkpt lat="62.635506943172" lon="17.978978106255">
        <ele>65.6</ele>
        <time>2018-02-15T18:19:23Z</time>
      </trkpt>
      <trkpt lat="62.635548265939" lon="17.978975675504">
        <ele>65.4</ele>
        <time>2018-02-15T18:19:24Z</time>
      </trkpt>
      <trkpt lat="62.63559679714" lon="17.978970897821">
        <ele>65</ele>
        <time>2018-02-15T18:19:25Z</time>
      </trkpt>
      <trkpt lat="62.635642310857" lon="17.978963605568">
        <ele>64.8</ele>
        <time>2018-02-15T18:19:26Z</time>
      </trkpt>
      <trkpt lat="62.635684723271" lon="17.978952876736">
        <ele>64.6</ele>
        <time>2018-02-15T18:19:27Z</time>
      </trkpt>
      <trkpt lat="62.635724956391" lon="17.978949272519">
        <ele>64.4</ele>
        <time>2018-02-15T18:19:28Z</time>
      </trkpt>
      <trkpt lat="62.635763345493" lon="17.978951787089">
        <ele>64.4</ele>
        <time>2018-02-15T18:19:29Z</time>
      </trkpt>
      <trkpt lat="62.63580215369" lon="17.978955978039">
        <ele>64.2</ele>
        <time>2018-02-15T18:19:30Z</time>
      </trkpt>
      <trkpt lat="62.635836268023" lon="17.978962096826">
        <ele>64</ele>
        <time>2018-02-15T18:19:31Z</time>
      </trkpt>
      <trkpt lat="62.635868705976" lon="17.978968131794">
        <ele>63.8</ele>
        <time>2018-02-15T18:19:32Z</time>
      </trkpt>
      <trkpt lat="62.635894857504" lon="17.978974418219">
        <ele>63.8</ele>
        <time>2018-02-15T18:19:33Z</time>
      </trkpt>
      <trkpt lat="62.635914722607" lon="17.978980704644">
        <ele>63.8</ele>
        <time>2018-02-15T18:19:34Z</time>
      </trkpt>
      <trkpt lat="62.635937269918" lon="17.97898439268">
        <ele>63.8</ele>
        <time>2018-02-15T18:19:35Z</time>
      </trkpt>
      <trkpt lat="62.635956632107" lon="17.978990427648">
        <ele>64</ele>
        <time>2018-02-15T18:19:36Z</time>
      </trkpt>
      <trkpt lat="62.63597482083" lon="17.978996797892">
        <ele>64.4</ele>
        <time>2018-02-15T18:19:37Z</time>
      </trkpt>
      <trkpt lat="62.635992003725" lon="17.978999563919">
        <ele>64.6</ele>
        <time>2018-02-15T18:19:38Z</time>
      </trkpt>
      <trkpt lat="62.636009438077" lon="17.979015824805">
        <ele>65</ele>
        <time>2018-02-15T18:19:39Z</time>
      </trkpt>
      <trkpt lat="62.636025615144" lon="17.979049855319">
        <ele>65.4</ele>
        <time>2018-02-15T18:19:40Z</time>
      </trkpt>
      <trkpt lat="62.636033410311" lon="17.979087406231">
        <ele>65.6</ele>
        <time>2018-02-15T18:19:41Z</time>
      </trkpt>
      <trkpt lat="62.636033326492" lon="17.97912185584">
        <ele>65.6</ele>
        <time>2018-02-15T18:19:42Z</time>
      </trkpt>
      <trkpt lat="62.63603097956" lon="17.979148007368">
        <ele>65.8</ele>
        <time>2018-02-15T18:19:43Z</time>
      </trkpt>
      <trkpt lat="62.636023938764" lon="17.979182959891">
        <ele>65.6</ele>
        <time>2018-02-15T18:19:45Z</time>
      </trkpt>
      <trkpt lat="62.636022932936" lon="17.979199388415">
        <ele>65.6</ele>
        <time>2018-02-15T18:19:46Z</time>
      </trkpt>
      <trkpt lat="62.636020166909" lon="17.979235598223">
        <ele>65.6</ele>
        <time>2018-02-15T18:19:47Z</time>
      </trkpt>
      <trkpt lat="62.636013712846" lon="17.979282620682">
        <ele>65.6</ele>
        <time>2018-02-15T18:19:48Z</time>
      </trkpt>
      <trkpt lat="62.636015975959" lon="17.979333414996">
        <ele>65.4</ele>
        <time>2018-02-15T18:19:49Z</time>
      </trkpt>
      <trkpt lat="62.636018574348" lon="17.979415641435">
        <ele>65.4</ele>
        <time>2018-02-15T18:19:50Z</time>
      </trkpt>
      <trkpt lat="62.636014467217" lon="17.979511698009">
        <ele>65.4</ele>
        <time>2018-02-15T18:19:51Z</time>
      </trkpt>
      <trkpt lat="62.636008516068" lon="17.97963398993">
        <ele>65.2</ele>
        <time>2018-02-15T18:19:52Z</time>
      </trkpt>
      <trkpt lat="62.636005917679" lon="17.979790144727">
        <ele>65.2</ele>
        <time>2018-02-15T18:19:53Z</time>
      </trkpt>
      <trkpt lat="62.63601170119" lon="17.979925009498">
        <ele>64.6</ele>
        <time>2018-02-15T18:19:54Z</time>
      </trkpt>
      <trkpt lat="62.636026285696" lon="17.980063227029">
        <ele>63.8</ele>
        <time>2018-02-15T18:19:55Z</time>
      </trkpt>
      <trkpt lat="62.636047156627" lon="17.980220890568">
        <ele>63.2</ele>
        <time>2018-02-15T18:19:56Z</time>
      </trkpt>
      <trkpt lat="62.636069452481" lon="17.980355839158">
        <ele>62.2</ele>
        <time>2018-02-15T18:19:57Z</time>
      </trkpt>
      <trkpt lat="62.636090658688" lon="17.98047217993">
        <ele>61.4</ele>
        <time>2018-02-15T18:19:58Z</time>
      </trkpt>
      <trkpt lat="62.636115552931" lon="17.980584413571">
        <ele>60.6</ele>
        <time>2018-02-15T18:19:59Z</time>
      </trkpt>
      <trkpt lat="62.63614162064" lon="17.980700335248">
        <ele>59.6</ele>
        <time>2018-02-15T18:20:00Z</time>
      </trkpt>
      <trkpt lat="62.636164503227" lon="17.980813742355">
        <ele>58.8</ele>
        <time>2018-02-15T18:20:01Z</time>
      </trkpt>
      <trkpt lat="62.636180009742" lon="17.980927484738">
        <ele>58.2</ele>
        <time>2018-02-15T18:20:02Z</time>
      </trkpt>
      <trkpt lat="62.63619442661" lon="17.981043490234">
        <ele>57.8</ele>
        <time>2018-02-15T18:20:03Z</time>
      </trkpt>
      <trkpt lat="62.636203227605" lon="17.981133428021">
        <ele>57.6</ele>
        <time>2018-02-15T18:20:04Z</time>
      </trkpt>
      <trkpt lat="62.636214459351" lon="17.981266867869">
        <ele>57.2</ele>
        <time>2018-02-15T18:20:05Z</time>
      </trkpt>
      <trkpt lat="62.6362204105" lon="17.981367702126">
        <ele>57.2</ele>
        <time>2018-02-15T18:20:06Z</time>
      </trkpt>
      <trkpt lat="62.636225607278" lon="17.981470212763">
        <ele>57</ele>
        <time>2018-02-15T18:20:07Z</time>
      </trkpt>
      <trkpt lat="62.636241784345" lon="17.981589319562">
        <ele>57.2</ele>
        <time>2018-02-15T18:20:08Z</time>
      </trkpt>
      <trkpt lat="62.636270785719" lon="17.981650758889">
        <ele>57.4</ele>
        <time>2018-02-15T18:20:09Z</time>
      </trkpt>
      <trkpt lat="62.636290231727" lon="17.981737260097">
        <ele>57.4</ele>
        <time>2018-02-15T18:20:10Z</time>
      </trkpt>
      <trkpt lat="62.636304061862" lon="17.981843710227">
        <ele>57.8</ele>
        <time>2018-02-15T18:20:11Z</time>
      </trkpt>
      <trkpt lat="62.636322753499" lon="17.98192643958">
        <ele>58</ele>
        <time>2018-02-15T18:20:12Z</time>
      </trkpt>
      <trkpt lat="62.636331470675" lon="17.982026854742">
        <ele>58.2</ele>
        <time>2018-02-15T18:20:13Z</time>
      </trkpt>
      <trkpt lat="62.636336751272" lon="17.982098603806">
        <ele>58.2</ele>
        <time>2018-02-15T18:20:14Z</time>
      </trkpt>
      <trkpt lat="62.636355442909" lon="17.982187535765">
        <ele>58.2</ele>
        <time>2018-02-15T18:20:15Z</time>
      </trkpt>
      <trkpt lat="62.636357203108" lon="17.982265738892">
        <ele>58.2</ele>
        <time>2018-02-15T18:20:16Z</time>
      </trkpt>
      <trkpt lat="62.636358041298" lon="17.982365902597">
        <ele>58.2</ele>
        <time>2018-02-15T18:20:17Z</time>
      </trkpt>
      <trkpt lat="62.636356448737" lon="17.982444441">
        <ele>58</ele>
        <time>2018-02-15T18:20:18Z</time>
      </trkpt>
      <trkpt lat="62.636360220592" lon="17.982506215603">
        <ele>58</ele>
        <time>2018-02-15T18:20:19Z</time>
      </trkpt>
      <trkpt lat="62.636361561696" lon="17.982616856683">
        <ele>57.8</ele>
        <time>2018-02-15T18:20:20Z</time>
      </trkpt>
      <trkpt lat="62.636352257787" lon="17.982701178597">
        <ele>57.8</ele>
        <time>2018-02-15T18:20:21Z</time>
      </trkpt>
      <trkpt lat="62.636350413769" lon="17.98276127682">
        <ele>57.8</ele>
        <time>2018-02-15T18:20:22Z</time>
      </trkpt>
      <trkpt lat="62.636343205335" lon="17.982850795512">
        <ele>58</ele>
        <time>2018-02-15T18:20:23Z</time>
      </trkpt>
      <trkpt lat="62.636335913082" lon="17.982919610911">
        <ele>58</ele>
        <time>2018-02-15T18:20:24Z</time>
      </trkpt>
      <trkpt lat="62.636339182023" lon="17.982982894256">
        <ele>58.2</ele>
        <time>2018-02-15T18:20:25Z</time>
      </trkpt>
      <trkpt lat="62.636334236702" lon="17.983060929745">
        <ele>58.2</ele>
        <time>2018-02-15T18:20:26Z</time>
      </trkpt>
      <trkpt lat="62.636328872286" lon="17.983138713777">
        <ele>58.4</ele>
        <time>2018-02-15T18:20:27Z</time>
      </trkpt>
      <trkpt lat="62.636332141227" lon="17.983187496435">
        <ele>58.4</ele>
        <time>2018-02-15T18:20:28Z</time>
      </trkpt>
      <trkpt lat="62.636326944449" lon="17.983257401481">
        <ele>58.4</ele>
        <time>2018-02-15T18:20:29Z</time>
      </trkpt>
      <trkpt lat="62.636322837318" lon="17.983352116951">
        <ele>58.4</ele>
        <time>2018-02-15T18:20:30Z</time>
      </trkpt>
      <trkpt lat="62.636316550893" lon="17.98341422683">
        <ele>58.4</ele>
        <time>2018-02-15T18:20:31Z</time>
      </trkpt>
      <trkpt lat="62.636308839545" lon="17.983480946754">
        <ele>58.4</ele>
        <time>2018-02-15T18:20:32Z</time>
      </trkpt>
      <trkpt lat="62.636296769609" lon="17.983541799348">
        <ele>58.6</ele>
        <time>2018-02-15T18:20:33Z</time>
      </trkpt>
      <trkpt lat="62.636290483184" lon="17.983597455164">
        <ele>58.6</ele>
        <time>2018-02-15T18:20:34Z</time>
      </trkpt>
      <trkpt lat="62.636282604198" lon="17.983683872553">
        <ele>58.8</ele>
        <time>2018-02-15T18:20:35Z</time>
      </trkpt>
      <trkpt lat="62.636274138479" lon="17.983739612188">
        <ele>59</ele>
        <time>2018-02-15T18:20:36Z</time>
      </trkpt>
      <trkpt lat="62.636263912561" lon="17.983816222754">
        <ele>59</ele>
        <time>2018-02-15T18:20:37Z</time>
      </trkpt>
      <trkpt lat="62.63625477629" lon="17.983884199963">
        <ele>59.2</ele>
        <time>2018-02-15T18:20:38Z</time>
      </trkpt>
      <trkpt lat="62.636251926444" lon="17.983934491363">
        <ele>59.4</ele>
        <time>2018-02-15T18:20:39Z</time>
      </trkpt>
      <trkpt lat="62.63624387982" lon="17.98400682716">
        <ele>59.4</ele>
        <time>2018-02-15T18:20:40Z</time>
      </trkpt>
      <trkpt lat="62.636233989178" lon="17.984074133817">
        <ele>59.4</ele>
        <time>2018-02-15T18:20:41Z</time>
      </trkpt>
      <trkpt lat="62.636233318626" lon="17.984132890936">
        <ele>59.4</ele>
        <time>2018-02-15T18:20:42Z</time>
      </trkpt>
      <trkpt lat="62.636228289486" lon="17.984201035783">
        <ele>59.6</ele>
        <time>2018-02-15T18:20:43Z</time>
      </trkpt>
      <trkpt lat="62.636223595622" lon="17.984257194513">
        <ele>59.6</ele>
        <time>2018-02-15T18:20:44Z</time>
      </trkpt>
      <trkpt lat="62.636221500147" lon="17.984326848102">
        <ele>59.6</ele>
        <time>2018-02-15T18:20:45Z</time>
      </trkpt>
      <trkpt lat="62.636211693324" lon="17.984396334053">
        <ele>59.8</ele>
        <time>2018-02-15T18:20:46Z</time>
      </trkpt>
      <trkpt lat="62.636207418555" lon="17.984461293778">
        <ele>60</ele>
        <time>2018-02-15T18:20:47Z</time>
      </trkpt>
      <trkpt lat="62.63619861756" lon="17.984523403657">
        <ele>60</ele>
        <time>2018-02-15T18:20:48Z</time>
      </trkpt>
      <trkpt lat="62.636199120474" lon="17.984577969826">
        <ele>60</ele>
        <time>2018-02-15T18:20:49Z</time>
      </trkpt>
      <trkpt lat="62.636195013343" lon="17.984647539596">
        <ele>60.2</ele>
        <time>2018-02-15T18:20:50Z</time>
      </trkpt>
      <trkpt lat="62.63618939747" lon="17.984699758833">
        <ele>60.4</ele>
        <time>2018-02-15T18:20:51Z</time>
      </trkpt>
      <trkpt lat="62.636184033054" lon="17.98475365445">
        <ele>60.4</ele>
        <time>2018-02-15T18:20:52Z</time>
      </trkpt>
      <trkpt lat="62.636179758285" lon="17.984812914483">
        <ele>60.6</ele>
        <time>2018-02-15T18:20:53Z</time>
      </trkpt>
      <trkpt lat="62.636173388041" lon="17.984861110408">
        <ele>60.6</ele>
        <time>2018-02-15T18:20:54Z</time>
      </trkpt>
      <trkpt lat="62.636169364729" lon="17.984917604414">
        <ele>60.6</ele>
        <time>2018-02-15T18:20:55Z</time>
      </trkpt>
      <trkpt lat="62.636167353073" lon="17.984972589678">
        <ele>60.6</ele>
        <time>2018-02-15T18:20:56Z</time>
      </trkpt>
      <trkpt lat="62.636162743028" lon="17.985033023177">
        <ele>60.6</ele>
        <time>2018-02-15T18:20:57Z</time>
      </trkpt>
      <trkpt lat="62.636157294793" lon="17.985080632369">
        <ele>60.8</ele>
        <time>2018-02-15T18:20:58Z</time>
      </trkpt>
      <trkpt lat="62.636157043336" lon="17.985118770014">
        <ele>60.8</ele>
        <time>2018-02-15T18:20:59Z</time>
      </trkpt>
      <trkpt lat="62.636157462431" lon="17.985182304816">
        <ele>60.8</ele>
        <time>2018-02-15T18:21:00Z</time>
      </trkpt>
      <trkpt lat="62.636157797707" lon="17.985243241229">
        <ele>61</ele>
        <time>2018-02-15T18:21:01Z</time>
      </trkpt>
      <trkpt lat="62.636155199318" lon="17.985292945896">
        <ele>61</ele>
        <time>2018-02-15T18:21:02Z</time>
      </trkpt>
      <trkpt lat="62.636152684748" lon="17.985356564517">
        <ele>61.4</ele>
        <time>2018-02-15T18:21:03Z</time>
      </trkpt>
      <trkpt lat="62.63614748797" lon="17.985404508985">
        <ele>61.4</ele>
        <time>2018-02-15T18:21:04Z</time>
      </trkpt>
      <trkpt lat="62.636148158522" lon="17.985465445398">
        <ele>61.6</ele>
        <time>2018-02-15T18:21:05Z</time>
      </trkpt>
      <trkpt lat="62.636146901237" lon="17.985518838101">
        <ele>61.6</ele>
        <time>2018-02-15T18:21:06Z</time>
      </trkpt>
      <trkpt lat="62.636141453002" lon="17.985578014315">
        <ele>61.8</ele>
        <time>2018-02-15T18:21:07Z</time>
      </trkpt>
      <trkpt lat="62.636133741654" lon="17.985646410619">
        <ele>61.8</ele>
        <time>2018-02-15T18:21:08Z</time>
      </trkpt>
      <trkpt lat="62.636118235139" lon="17.985702401711">
        <ele>61.8</ele>
        <time>2018-02-15T18:21:09Z</time>
      </trkpt>
      <trkpt lat="62.636100130235" lon="17.985755878233">
        <ele>61.8</ele>
        <time>2018-02-15T18:21:10Z</time>
      </trkpt>
      <trkpt lat="62.636075319811" lon="17.985806840185">
        <ele>62</ele>
        <time>2018-02-15T18:21:11Z</time>
      </trkpt>
      <trkpt lat="62.63605528707" lon="17.985856880128">
        <ele>62</ele>
        <time>2018-02-15T18:21:12Z</time>
      </trkpt>
      <trkpt lat="62.636024944592" lon="17.985889066624">
        <ele>62.2</ele>
        <time>2018-02-15T18:21:13Z</time>
      </trkpt>
      <trkpt lat="62.636009438077" lon="17.98591538579">
        <ele>62.4</ele>
        <time>2018-02-15T18:21:14Z</time>
      </trkpt>
      <trkpt lat="62.635980939617" lon="17.985960899507">
        <ele>62.4</ele>
        <time>2018-02-15T18:21:15Z</time>
      </trkpt>
      <trkpt lat="62.635953195528" lon="17.98598579375">
        <ele>62.6</ele>
        <time>2018-02-15T18:21:16Z</time>
      </trkpt>
      <trkpt lat="62.635923775059" lon="17.986021249187">
        <ele>62.6</ele>
        <time>2018-02-15T18:21:17Z</time>
      </trkpt>
      <trkpt lat="62.635896366246" lon="17.986039689367">
        <ele>62.6</ele>
        <time>2018-02-15T18:21:18Z</time>
      </trkpt>
      <trkpt lat="62.635873735116" lon="17.986065002705">
        <ele>62.8</ele>
        <time>2018-02-15T18:21:19Z</time>
      </trkpt>
      <trkpt lat="62.635842135353" lon="17.986085035446">
        <ele>62.8</ele>
        <time>2018-02-15T18:21:20Z</time>
      </trkpt>
      <trkpt lat="62.635811289961" lon="17.986116467571">
        <ele>63</ele>
        <time>2018-02-15T18:21:21Z</time>
      </trkpt>
      <trkpt lat="62.635781953311" lon="17.986163992944">
        <ele>63.2</ele>
        <time>2018-02-15T18:21:22Z</time>
      </trkpt>
      <trkpt lat="62.635757813439" lon="17.986208584652">
        <ele>63.2</ele>
        <time>2018-02-15T18:21:23Z</time>
      </trkpt>
      <trkpt lat="62.635739876173" lon="17.986243620994">
        <ele>63.4</ele>
        <time>2018-02-15T18:21:24Z</time>
      </trkpt>
      <trkpt lat="62.635716155396" lon="17.986285195218">
        <ele>63.4</ele>
        <time>2018-02-15T18:21:25Z</time>
      </trkpt>
      <trkpt lat="62.635696374112" lon="17.986322327035">
        <ele>63.8</ele>
        <time>2018-02-15T18:21:26Z</time>
      </trkpt>
      <trkpt lat="62.635680783778" lon="17.986359039757">
        <ele>64</ele>
        <time>2018-02-15T18:21:27Z</time>
      </trkpt>
      <trkpt lat="62.635660248123" lon="17.986392734995">
        <ele>64.2</ele>
        <time>2018-02-15T18:21:28Z</time>
      </trkpt>
      <trkpt lat="62.63564038302" lon="17.986437829617">
        <ele>64.4</ele>
        <time>2018-02-15T18:21:29Z</time>
      </trkpt>
      <trkpt lat="62.635618254804" lon="17.986485438809">
        <ele>64.6</ele>
        <time>2018-02-15T18:21:30Z</time>
      </trkpt>
      <trkpt lat="62.635602413013" lon="17.986544698842">
        <ele>64.8</ele>
        <time>2018-02-15T18:21:31Z</time>
      </trkpt>
      <trkpt lat="62.635587912326" lon="17.98658342322">
        <ele>64.8</ele>
        <time>2018-02-15T18:21:32Z</time>
      </trkpt>
      <trkpt lat="62.635568717775" lon="17.986632457335">
        <ele>64.8</ele>
        <time>2018-02-15T18:21:33Z</time>
      </trkpt>
      <trkpt lat="62.63555656402" lon="17.986674953568">
        <ele>65</ele>
        <time>2018-02-15T18:21:34Z</time>
      </trkpt>
      <trkpt lat="62.635539632582" lon="17.986726418434">
        <ele>65</ele>
        <time>2018-02-15T18:21:35Z</time>
      </trkpt>
      <trkpt lat="62.635523958429" lon="17.986771513056">
        <ele>65</ele>
        <time>2018-02-15T18:21:36Z</time>
      </trkpt>
      <trkpt lat="62.63551381633" lon="17.986811662357">
        <ele>65.2</ele>
        <time>2018-02-15T18:21:37Z</time>
      </trkpt>
      <trkpt lat="62.635494454141" lon="17.986848542717">
        <ele>65.2</ele>
        <time>2018-02-15T18:21:38Z</time>
      </trkpt>
      <trkpt lat="62.635474924314" lon="17.986888692018">
        <ele>65.4</ele>
        <time>2018-02-15T18:21:39Z</time>
      </trkpt>
      <trkpt lat="62.63545179027" lon="17.986943425825">
        <ele>65.4</ele>
        <time>2018-02-15T18:21:40Z</time>
      </trkpt>
      <trkpt lat="62.635432092805" lon="17.986992040845">
        <ele>65.6</ele>
        <time>2018-02-15T18:21:41Z</time>
      </trkpt>
      <trkpt lat="62.635407533838" lon="17.987039733856">
        <ele>65.6</ele>
        <time>2018-02-15T18:21:42Z</time>
      </trkpt>
      <trkpt lat="62.635394625712" lon="17.987082565365">
        <ele>65.6</ele>
        <time>2018-02-15T18:21:43Z</time>
      </trkpt>
      <trkpt lat="62.635376939903" lon="17.987126067426">
        <ele>65.8</ele>
        <time>2018-02-15T18:21:44Z</time>
      </trkpt>
      <trkpt lat="62.635357158619" lon="17.987177364654">
        <ele>65.8</ele>
        <time>2018-02-15T18:21:45Z</time>
      </trkpt>
      <trkpt lat="62.635338215525" lon="17.987212233358">
        <ele>66</ele>
        <time>2018-02-15T18:21:46Z</time>
      </trkpt>
      <trkpt lat="62.635311225807" lon="17.987243330207">
        <ele>66</ele>
        <time>2018-02-15T18:21:47Z</time>
      </trkpt>
      <trkpt lat="62.63529672512" lon="17.987281886947">
        <ele>66.2</ele>
        <time>2018-02-15T18:21:48Z</time>
      </trkpt>
      <trkpt lat="62.635277111474" lon="17.987315079271">
        <ele>66.4</ele>
        <time>2018-02-15T18:21:49Z</time>
      </trkpt>
      <trkpt lat="62.635258084561" lon="17.987376602417">
        <ele>66.6</ele>
        <time>2018-02-15T18:21:50Z</time>
      </trkpt>
      <trkpt lat="62.635240398752" lon="17.987408453637">
        <ele>66.6</ele>
        <time>2018-02-15T18:21:51Z</time>
      </trkpt>
      <trkpt lat="62.635225898065" lon="17.987440137219">
        <ele>66.8</ele>
        <time>2018-02-15T18:21:52Z</time>
      </trkpt>
      <trkpt lat="62.635213325215" lon="17.987491853542">
        <ele>67</ele>
        <time>2018-02-15T18:21:53Z</time>
      </trkpt>
      <trkpt lat="62.635186838411" lon="17.987522866572">
        <ele>66.8</ele>
        <time>2018-02-15T18:21:54Z</time>
      </trkpt>
      <trkpt lat="62.635171583353" lon="17.987589502677">
        <ele>67</ele>
        <time>2018-02-15T18:21:55Z</time>
      </trkpt>
      <trkpt lat="62.635144677454" lon="17.98762529339">
        <ele>67</ele>
        <time>2018-02-15T18:21:56Z</time>
      </trkpt>
      <trkpt lat="62.635128584206" lon="17.98766720289">
        <ele>67</ele>
        <time>2018-02-15T18:21:57Z</time>
      </trkpt>
      <trkpt lat="62.635104444334" lon="17.987689917839">
        <ele>67.4</ele>
        <time>2018-02-15T18:21:58Z</time>
      </trkpt>
      <trkpt lat="62.635084411593" lon="17.987725708552">
        <ele>67.4</ele>
        <time>2018-02-15T18:21:59Z</time>
      </trkpt>
      <trkpt lat="62.635061277549" lon="17.987747250035">
        <ele>67.6</ele>
        <time>2018-02-15T18:22:00Z</time>
      </trkpt>
      <trkpt lat="62.635040406618" lon="17.987780442359">
        <ele>67.6</ele>
        <time>2018-02-15T18:22:01Z</time>
      </trkpt>
      <trkpt lat="62.635016853479" lon="17.987801732385">
        <ele>67.8</ele>
        <time>2018-02-15T18:22:02Z</time>
      </trkpt>
      <trkpt lat="62.635004364448" lon="17.987837439279">
        <ele>68</ele>
        <time>2018-02-15T18:22:03Z</time>
      </trkpt>
      <trkpt lat="62.634989528485" lon="17.987852861975">
        <ele>68.4</ele>
        <time>2018-02-15T18:22:04Z</time>
      </trkpt>
      <trkpt lat="62.634966059165" lon="17.987894436199">
        <ele>68.6</ele>
        <time>2018-02-15T18:22:05Z</time>
      </trkpt>
      <trkpt lat="62.634940410551" lon="17.987915810044">
        <ele>68.4</ele>
        <time>2018-02-15T18:22:06Z</time>
      </trkpt>
      <trkpt lat="62.634923898208" lon="17.987944140866">
        <ele>68.8</ele>
        <time>2018-02-15T18:22:07Z</time>
      </trkpt>
      <trkpt lat="62.634895567386" lon="17.987970795308">
        <ele>68.8</ele>
        <time>2018-02-15T18:22:08Z</time>
      </trkpt>
      <trkpt lat="62.634876205197" lon="17.987986218004">
        <ele>68.8</ele>
        <time>2018-02-15T18:22:09Z</time>
      </trkpt>
      <trkpt lat="62.634857094465" lon="17.988008849134">
        <ele>69</ele>
        <time>2018-02-15T18:22:10Z</time>
      </trkpt>
      <trkpt lat="62.63482650053" lon="17.988047657331">
        <ele>69.2</ele>
        <time>2018-02-15T18:22:11Z</time>
      </trkpt>
      <trkpt lat="62.634802947391" lon="17.988075066144">
        <ele>69.2</ele>
        <time>2018-02-15T18:22:12Z</time>
      </trkpt>
      <trkpt lat="62.63477537094" lon="17.988080011465">
        <ele>69.4</ele>
        <time>2018-02-15T18:22:13Z</time>
      </trkpt>
      <trkpt lat="62.634752236896" lon="17.988098116369">
        <ele>69.4</ele>
        <time>2018-02-15T18:22:14Z</time>
      </trkpt>
      <trkpt lat="62.634720301857" lon="17.988101804405">
        <ele>69.6</ele>
        <time>2018-02-15T18:22:15Z</time>
      </trkpt>
      <trkpt lat="62.634699682383" lon="17.988111778866">
        <ele>69.6</ele>
        <time>2018-02-15T18:22:16Z</time>
      </trkpt>
      <trkpt lat="62.634673447036" lon="17.988126447191">
        <ele>69.8</ele>
        <time>2018-02-15T18:22:17Z</time>
      </trkpt>
      <trkpt lat="62.63465048063" lon="17.988155197108">
        <ele>70</ele>
        <time>2018-02-15T18:22:18Z</time>
      </trkpt>
      <trkpt lat="62.634627681862" lon="17.988159304239">
        <ele>70.2</ele>
        <time>2018-02-15T18:22:19Z</time>
      </trkpt>
      <trkpt lat="62.634602284705" lon="17.988166345035">
        <ele>70.2</ele>
        <time>2018-02-15T18:22:20Z</time>
      </trkpt>
      <trkpt lat="62.634574289159" lon="17.988185958681">
        <ele>70.2</ele>
        <time>2018-02-15T18:22:21Z</time>
      </trkpt>
      <trkpt lat="62.634551238934" lon="17.988179001704">
        <ele>70.2</ele>
        <time>2018-02-15T18:22:22Z</time>
      </trkpt>
      <trkpt lat="62.634526679967" lon="17.988187467423">
        <ele>70.2</ele>
        <time>2018-02-15T18:22:23Z</time>
      </trkpt>
      <trkpt lat="62.634500193163" lon="17.98818688069">
        <ele>70.4</ele>
        <time>2018-02-15T18:22:24Z</time>
      </trkpt>
      <trkpt lat="62.634474628368" lon="17.988207500164">
        <ele>70.4</ele>
        <time>2018-02-15T18:22:25Z</time>
      </trkpt>
      <trkpt lat="62.634452500152" lon="17.988217726082">
        <ele>70.6</ele>
        <time>2018-02-15T18:22:26Z</time>
      </trkpt>
      <trkpt lat="62.63442836028" lon="17.988229460742">
        <ele>70.6</ele>
        <time>2018-02-15T18:22:27Z</time>
      </trkpt>
      <trkpt lat="62.63440237639" lon="17.988239099927">
        <ele>70.8</ele>
        <time>2018-02-15T18:22:28Z</time>
      </trkpt>
      <trkpt lat="62.634384020029" lon="17.988234573701">
        <ele>71</ele>
        <time>2018-02-15T18:22:29Z</time>
      </trkpt>
      <trkpt lat="62.634360383071" lon="17.988233148778">
        <ele>71.2</ele>
        <time>2018-02-15T18:22:30Z</time>
      </trkpt>
      <trkpt lat="62.634338171036" lon="17.988242033592">
        <ele>71.2</ele>
        <time>2018-02-15T18:22:31Z</time>
      </trkpt>
      <trkpt lat="62.634312019508" lon="17.988241111583">
        <ele>71.4</ele>
        <time>2018-02-15T18:22:32Z</time>
      </trkpt>
      <trkpt lat="62.634279749193" lon="17.988215965883">
        <ele>71.6</ele>
        <time>2018-02-15T18:22:33Z</time>
      </trkpt>
      <trkpt lat="62.634263823583" lon="17.988226778534">
        <ele>71.6</ele>
        <time>2018-02-15T18:22:34Z</time>
      </trkpt>
      <trkpt lat="62.634231804725" lon="17.988219653919">
        <ele>71.6</ele>
        <time>2018-02-15T18:22:35Z</time>
      </trkpt>
      <trkpt lat="62.634206072292" lon="17.988227281448">
        <ele>71.8</ele>
        <time>2018-02-15T18:22:36Z</time>
      </trkpt>
      <trkpt lat="62.634177490013" lon="17.98821286458">
        <ele>71.8</ele>
        <time>2018-02-15T18:22:37Z</time>
      </trkpt>
      <trkpt lat="62.634148488639" lon="17.988208757449">
        <ele>71.8</ele>
        <time>2018-02-15T18:22:38Z</time>
      </trkpt>
      <trkpt lat="62.634127785346" lon="17.988207751621">
        <ele>71.8</ele>
        <time>2018-02-15T18:22:39Z</time>
      </trkpt>
      <trkpt lat="62.634094593022" lon="17.98820532087">
        <ele>71.8</ele>
        <time>2018-02-15T18:22:40Z</time>
      </trkpt>
      <trkpt lat="62.634073219177" lon="17.988197274246">
        <ele>71.8</ele>
        <time>2018-02-15T18:22:41Z</time>
      </trkpt>
      <trkpt lat="62.634043882527" lon="17.988176403315">
        <ele>71.8</ele>
        <time>2018-02-15T18:22:42Z</time>
      </trkpt>
      <trkpt lat="62.634016054619" lon="17.98815670585">
        <ele>71.8</ele>
        <time>2018-02-15T18:22:43Z</time>
      </trkpt>
      <trkpt lat="62.633996524792" lon="17.988144384457">
        <ele>71.8</ele>
        <time>2018-02-15T18:22:44Z</time>
      </trkpt>
      <trkpt lat="62.633974815671" lon="17.988128458847">
        <ele>72</ele>
        <time>2018-02-15T18:22:45Z</time>
      </trkpt>
      <trkpt lat="62.633955118206" lon="17.98811814911">
        <ele>72</ele>
        <time>2018-02-15T18:22:46Z</time>
      </trkpt>
      <trkpt lat="62.633929385773" lon="17.988088561003">
        <ele>72</ele>
        <time>2018-02-15T18:22:47Z</time>
      </trkpt>
      <trkpt lat="62.633901222589" lon="17.988073222126">
        <ele>72.2</ele>
        <time>2018-02-15T18:22:48Z</time>
      </trkpt>
      <trkpt lat="62.633880854572" lon="17.988050758634">
        <ele>72.2</ele>
        <time>2018-02-15T18:22:49Z</time>
      </trkpt>
      <trkpt lat="62.633855457415" lon="17.988029720065">
        <ele>72.4</ele>
        <time>2018-02-15T18:22:50Z</time>
      </trkpt>
      <trkpt lat="62.633825869308" lon="17.988000131958">
        <ele>72.6</ele>
        <time>2018-02-15T18:22:51Z</time>
      </trkpt>
      <trkpt lat="62.633800807427" lon="17.987988397298">
        <ele>72.8</ele>
        <time>2018-02-15T18:22:52Z</time>
      </trkpt>
      <trkpt lat="62.633766441637" lon="17.987954869698">
        <ele>73</ele>
        <time>2018-02-15T18:22:53Z</time>
      </trkpt>
      <trkpt lat="62.633739200462" lon="17.987943051219">
        <ele>73.2</ele>
        <time>2018-02-15T18:22:54Z</time>
      </trkpt>
      <trkpt lat="62.633708857984" lon="17.987914636578">
        <ele>73.2</ele>
        <time>2018-02-15T18:22:55Z</time>
      </trkpt>
      <trkpt lat="62.633682957913" lon="17.987894268561">
        <ele>73</ele>
        <time>2018-02-15T18:22:56Z</time>
      </trkpt>
      <trkpt lat="62.633654207996" lon="17.987859399857">
        <ele>73</ele>
        <time>2018-02-15T18:22:57Z</time>
      </trkpt>
      <trkpt lat="62.6336304034" lon="17.987828889741">
        <ele>73</ele>
        <time>2018-02-15T18:22:58Z</time>
      </trkpt>
      <trkpt lat="62.633630571038" lon="17.9878340027">
        <ele>73</ele>
        <time>2018-02-15T18:22:59Z</time>
      </trkpt>
      <trkpt lat="62.633599641827" lon="17.987787986069">
        <ele>73</ele>
        <time>2018-02-15T18:23:00Z</time>
      </trkpt>
      <trkpt lat="62.633577932706" lon="17.987756470125">
        <ele>73.2</ele>
        <time>2018-02-15T18:23:01Z</time>
      </trkpt>
      <trkpt lat="62.63355664268" lon="17.987750099881">
        <ele>73.4</ele>
        <time>2018-02-15T18:23:02Z</time>
      </trkpt>
      <trkpt lat="62.63353987888" lon="17.987715985548">
        <ele>73.4</ele>
        <time>2018-02-15T18:23:03Z</time>
      </trkpt>
      <trkpt lat="62.633519259406" lon="17.987711040227">
        <ele>73.6</ele>
        <time>2018-02-15T18:23:04Z</time>
      </trkpt>
      <trkpt lat="62.633493694611" lon="17.987674159867">
        <ele>73.8</ele>
        <time>2018-02-15T18:23:05Z</time>
      </trkpt>
      <trkpt lat="62.633466537255" lon="17.987647337787">
        <ele>74</ele>
        <time>2018-02-15T18:23:06Z</time>
      </trkpt>
      <trkpt lat="62.633449521998" lon="17.987622108268">
        <ele>74</ele>
        <time>2018-02-15T18:23:07Z</time>
      </trkpt>
      <trkpt lat="62.633427896696" lon="17.987585982279">
        <ele>74</ele>
        <time>2018-02-15T18:23:08Z</time>
      </trkpt>
      <trkpt lat="62.633412725457" lon="17.987570224307">
        <ele>74</ele>
        <time>2018-02-15T18:23:09Z</time>
      </trkpt>
      <trkpt lat="62.633395039648" lon="17.987539714191">
        <ele>74.2</ele>
        <time>2018-02-15T18:23:10Z</time>
      </trkpt>
      <trkpt lat="62.633381041875" lon="17.987500067804">
        <ele>74.4</ele>
        <time>2018-02-15T18:23:11Z</time>
      </trkpt>
      <trkpt lat="62.633361679686" lon="17.987457403933">
        <ele>74.6</ele>
        <time>2018-02-15T18:23:12Z</time>
      </trkpt>
      <trkpt lat="62.63334374242" lon="17.98742077503">
        <ele>74.6</ele>
        <time>2018-02-15T18:23:13Z</time>
      </trkpt>
      <trkpt lat="62.633328738819" lon="17.987384984317">
        <ele>74.8</ele>
        <time>2018-02-15T18:23:14Z</time>
      </trkpt>
      <trkpt lat="62.633303257843" lon="17.987321700972">
        <ele>75</ele>
        <time>2018-02-15T18:23:15Z</time>
      </trkpt>
      <trkpt lat="62.633278615057" lon="17.987283647146">
        <ele>75.2</ele>
        <time>2018-02-15T18:23:16Z</time>
      </trkpt>
      <trkpt lat="62.633248607855" lon="17.987201672164">
        <ele>75.2</ele>
        <time>2018-02-15T18:23:17Z</time>
      </trkpt>
      <trkpt lat="62.633220612309" lon="17.987106369961">
        <ele>75</ele>
        <time>2018-02-15T18:23:18Z</time>
      </trkpt>
      <trkpt lat="62.633196640075" lon="17.987003859324">
        <ele>74.6</ele>
        <time>2018-02-15T18:23:19Z</time>
      </trkpt>
      <trkpt lat="62.633179624818" lon="17.986881399765">
        <ele>73.8</ele>
        <time>2018-02-15T18:23:20Z</time>
      </trkpt>
      <trkpt lat="62.633166465235" lon="17.98678123606">
        <ele>73</ele>
        <time>2018-02-15T18:23:21Z</time>
      </trkpt>
      <trkpt lat="62.633156993688" lon="17.986694231938">
        <ele>72.6</ele>
        <time>2018-02-15T18:23:22Z</time>
      </trkpt>
      <trkpt lat="62.633145594304" lon="17.986606808721">
        <ele>72</ele>
        <time>2018-02-15T18:23:23Z</time>
      </trkpt>
      <trkpt lat="62.633128159952" lon="17.986548051602">
        <ele>71.6</ele>
        <time>2018-02-15T18:23:24Z</time>
      </trkpt>
      <trkpt lat="62.633111479971" lon="17.986454593417">
        <ele>71.6</ele>
        <time>2018-02-15T18:23:25Z</time>
      </trkpt>
      <trkpt lat="62.633110809419" lon="17.986376222652">
        <ele>71.6</ele>
        <time>2018-02-15T18:23:26Z</time>
      </trkpt>
      <trkpt lat="62.633111060876" lon="17.986249153048">
        <ele>71.6</ele>
        <time>2018-02-15T18:23:27Z</time>
      </trkpt>
      <trkpt lat="62.633110557962" lon="17.98614421166">
        <ele>71.6</ele>
        <time>2018-02-15T18:23:28Z</time>
      </trkpt>
      <trkpt lat="62.633113575446" lon="17.986036755702">
        <ele>71.4</ele>
        <time>2018-02-15T18:23:29Z</time>
      </trkpt>
      <trkpt lat="62.63311491655" lon="17.985913122677">
        <ele>71.2</ele>
        <time>2018-02-15T18:23:30Z</time>
      </trkpt>
      <trkpt lat="62.633118185491" lon="17.985806085814">
        <ele>71</ele>
        <time>2018-02-15T18:23:31Z</time>
      </trkpt>
      <trkpt lat="62.633127321762" lon="17.98570667648">
        <ele>70.8</ele>
        <time>2018-02-15T18:23:32Z</time>
      </trkpt>
      <trkpt lat="62.633129668694" lon="17.98560860825">
        <ele>70</ele>
        <time>2018-02-15T18:23:33Z</time>
      </trkpt>
      <trkpt lat="62.633126399753" lon="17.985532835874">
        <ele>69.6</ele>
        <time>2018-02-15T18:23:34Z</time>
      </trkpt>
      <trkpt lat="62.633127740857" lon="17.985406436822">
        <ele>69.6</ele>
        <time>2018-02-15T18:23:35Z</time>
      </trkpt>
      <trkpt lat="62.633123717545" lon="17.985297220665">
        <ele>69.4</ele>
        <time>2018-02-15T18:23:36Z</time>
      </trkpt>
      <trkpt lat="62.633133859644" lon="17.985131342864">
        <ele>69.6</ele>
        <time>2018-02-15T18:23:37Z</time>
      </trkpt>
      <trkpt lat="62.633155233489" lon="17.985000417586">
        <ele>69.6</ele>
        <time>2018-02-15T18:23:38Z</time>
      </trkpt>
      <trkpt lat="62.633172164927" lon="17.984886507565">
        <ele>69.2</ele>
        <time>2018-02-15T18:23:39Z</time>
      </trkpt>
      <trkpt lat="62.633193874048" lon="17.984757593943">
        <ele>68.6</ele>
        <time>2018-02-15T18:23:40Z</time>
      </trkpt>
      <trkpt lat="62.633219103567" lon="17.984657765514">
        <ele>67.8</ele>
        <time>2018-02-15T18:23:41Z</time>
      </trkpt>
      <trkpt lat="62.633243494896" lon="17.984553997592">
        <ele>67</ele>
        <time>2018-02-15T18:23:42Z</time>
      </trkpt>
      <trkpt lat="62.633266545121" lon="17.98446783166">
        <ele>66.2</ele>
        <time>2018-02-15T18:23:43Z</time>
      </trkpt>
      <trkpt lat="62.633277693048" lon="17.984400944098">
        <ele>66</ele>
        <time>2018-02-15T18:23:44Z</time>
      </trkpt>
      <trkpt lat="62.633291690821" lon="17.984307402094">
        <ele>65.8</ele>
        <time>2018-02-15T18:23:45Z</time>
      </trkpt>
      <trkpt lat="62.63330099473" lon="17.984252919744">
        <ele>66</ele>
        <time>2018-02-15T18:23:46Z</time>
      </trkpt>
      <trkpt lat="62.633299653626" lon="17.984145715243">
        <ele>66.4</ele>
        <time>2018-02-15T18:23:47Z</time>
      </trkpt>
      <trkpt lat="62.633311639743" lon="17.984067428297">
        <ele>66.6</ele>
        <time>2018-02-15T18:23:48Z</time>
      </trkpt>
      <trkpt lat="62.633324380231" lon="17.984004396409">
        <ele>66.8</ele>
        <time>2018-02-15T18:23:49Z</time>
      </trkpt>
      <trkpt lat="62.633328990276" lon="17.983904735618">
        <ele>67</ele>
        <time>2018-02-15T18:23:50Z</time>
      </trkpt>
      <trkpt lat="62.633339132375" lon="17.983839692074">
        <ele>67.2</ele>
        <time>2018-02-15T18:23:51Z</time>
      </trkpt>
      <trkpt lat="62.633348603922" lon="17.983760818395">
        <ele>67.4</ele>
        <time>2018-02-15T18:23:52Z</time>
      </trkpt>
      <trkpt lat="62.633371989423" lon="17.983680519793">
        <ele>67.4</ele>
        <time>2018-02-15T18:23:53Z</time>
      </trkpt>
      <trkpt lat="62.633391938345" lon="17.98363299442">
        <ele>67.4</ele>
        <time>2018-02-15T18:23:54Z</time>
      </trkpt>
      <trkpt lat="62.633421777909" lon="17.983557138225">
        <ele>67.4</ele>
        <time>2018-02-15T18:23:55Z</time>
      </trkpt>
      <trkpt lat="62.633430997999" lon="17.983500728038">
        <ele>67.4</ele>
        <time>2018-02-15T18:23:56Z</time>
      </trkpt>
      <trkpt lat="62.633442062107" lon="17.983419591246">
        <ele>67.6</ele>
        <time>2018-02-15T18:23:57Z</time>
      </trkpt>
      <trkpt lat="62.633460753744" lon="17.983346501078">
        <ele>67.6</ele>
        <time>2018-02-15T18:23:58Z</time>
      </trkpt>
      <trkpt lat="62.633480702666" lon="17.98327341091">
        <ele>67.6</ele>
        <time>2018-02-15T18:23:59Z</time>
      </trkpt>
      <trkpt lat="62.633492437326" lon="17.983197470896">
        <ele>67.6</ele>
        <time>2018-02-15T18:24:00Z</time>
      </trkpt>
      <trkpt lat="62.633508195298" lon="17.983124883642">
        <ele>67.8</ele>
        <time>2018-02-15T18:24:01Z</time>
      </trkpt>
      <trkpt lat="62.633530910247" lon="17.983052631664">
        <ele>67.6</ele>
        <time>2018-02-15T18:24:02Z</time>
      </trkpt>
      <trkpt lat="62.633534346826" lon="17.982973757985">
        <ele>67.6</ele>
        <time>2018-02-15T18:24:03Z</time>
      </trkpt>
      <trkpt lat="62.633548176961" lon="17.982917012522">
        <ele>67.6</ele>
        <time>2018-02-15T18:24:04Z</time>
      </trkpt>
      <trkpt lat="62.633563934933" lon="17.98283419935">
        <ele>67.6</ele>
        <time>2018-02-15T18:24:05Z</time>
      </trkpt>
      <trkpt lat="62.633573741756" lon="17.98276798234">
        <ele>67.8</ele>
        <time>2018-02-15T18:24:06Z</time>
      </trkpt>
      <trkpt lat="62.633591679022" lon="17.982699837493">
        <ele>67.8</ele>
        <time>2018-02-15T18:24:07Z</time>
      </trkpt>
      <trkpt lat="62.633602407854" lon="17.982631022094">
        <ele>67.8</ele>
        <time>2018-02-15T18:24:08Z</time>
      </trkpt>
      <trkpt lat="62.63360944865" lon="17.982571594423">
        <ele>67.8</ele>
        <time>2018-02-15T18:24:09Z</time>
      </trkpt>
      <trkpt lat="62.633615064523" lon="17.982493475115">
        <ele>67.6</ele>
        <time>2018-02-15T18:24:10Z</time>
      </trkpt>
      <trkpt lat="62.633631828323" lon="17.982412841237">
        <ele>67.6</ele>
        <time>2018-02-15T18:24:11Z</time>
      </trkpt>
      <trkpt lat="62.633636103092" lon="17.982324244554">
        <ele>67.6</ele>
        <time>2018-02-15T18:24:12Z</time>
      </trkpt>
      <trkpt lat="62.633640126404" lon="17.982255512974">
        <ele>67.6</ele>
        <time>2018-02-15T18:24:13Z</time>
      </trkpt>
      <trkpt lat="62.63365303453" lon="17.982184266824">
        <ele>67.6</ele>
        <time>2018-02-15T18:24:14Z</time>
      </trkpt>
      <trkpt lat="62.63366309281" lon="17.982095586322">
        <ele>67.6</ele>
        <time>2018-02-15T18:24:15Z</time>
      </trkpt>
      <trkpt lat="62.633667199941" lon="17.982032219158">
        <ele>67.6</ele>
        <time>2018-02-15T18:24:16Z</time>
      </trkpt>
      <trkpt lat="62.633672480538" lon="17.981958374619">
        <ele>67.6</ele>
        <time>2018-02-15T18:24:17Z</time>
      </trkpt>
      <trkpt lat="62.633677425859" lon="17.981874304162">
        <ele>67.6</ele>
        <time>2018-02-15T18:24:18Z</time>
      </trkpt>
      <trkpt lat="62.633678599325" lon="17.981825772961">
        <ele>67.6</ele>
        <time>2018-02-15T18:24:19Z</time>
      </trkpt>
      <trkpt lat="62.633680778619" lon="17.981735835174">
        <ele>67.8</ele>
        <time>2018-02-15T18:24:20Z</time>
      </trkpt>
      <trkpt lat="62.633693100012" lon="17.98165318964">
        <ele>67.8</ele>
        <time>2018-02-15T18:24:21Z</time>
      </trkpt>
      <trkpt lat="62.633685891578" lon="17.981600048394">
        <ele>68</ele>
        <time>2018-02-15T18:24:22Z</time>
      </trkpt>
      <trkpt lat="62.633695195487" lon="17.981537687058">
        <ele>68</ele>
        <time>2018-02-15T18:24:23Z</time>
      </trkpt>
      <trkpt lat="62.633709277079" lon="17.981465015985">
        <ele>68</ele>
        <time>2018-02-15T18:24:24Z</time>
      </trkpt>
      <trkpt lat="62.63372092792" lon="17.98139251255">
        <ele>68</ele>
        <time>2018-02-15T18:24:25Z</time>
      </trkpt>
      <trkpt lat="62.63372930982" lon="17.981318500373">
        <ele>68</ele>
        <time>2018-02-15T18:24:26Z</time>
      </trkpt>
      <trkpt lat="62.633750683665" lon="17.981233927002">
        <ele>68</ele>
        <time>2018-02-15T18:24:27Z</time>
      </trkpt>
      <trkpt lat="62.63376535199" lon="17.981161591205">
        <ele>68</ele>
        <time>2018-02-15T18:24:28Z</time>
      </trkpt>
      <trkpt lat="62.633781864333" lon="17.981101325344">
        <ele>68</ele>
        <time>2018-02-15T18:24:29Z</time>
      </trkpt>
      <trkpt lat="62.633798544314" lon="17.981020523828">
        <ele>68.2</ele>
        <time>2018-02-15T18:24:30Z</time>
      </trkpt>
      <trkpt lat="62.633815894847" lon="17.980971238256">
        <ele>68.2</ele>
        <time>2018-02-15T18:24:31Z</time>
      </trkpt>
      <trkpt lat="62.633827797145" lon="17.980911894404">
        <ele>68.2</ele>
        <time>2018-02-15T18:24:32Z</time>
      </trkpt>
      <trkpt lat="62.633844812402" lon="17.980856992959">
        <ele>68.4</ele>
        <time>2018-02-15T18:24:33Z</time>
      </trkpt>
      <trkpt lat="62.633876663622" lon="17.980829584146">
        <ele>68.4</ele>
        <time>2018-02-15T18:24:34Z</time>
      </trkpt>
      <trkpt lat="62.633890912852" lon="17.980766971353">
        <ele>68.4</ele>
        <time>2018-02-15T18:24:35Z</time>
      </trkpt>
      <trkpt lat="62.633911364688" lon="17.980699748515">
        <ele>68.6</ele>
        <time>2018-02-15T18:24:36Z</time>
      </trkpt>
      <trkpt lat="62.633922680253" lon="17.980646020536">
        <ele>68.6</ele>
        <time>2018-02-15T18:24:37Z</time>
      </trkpt>
      <trkpt lat="62.633941455709" lon="17.980598243706">
        <ele>69</ele>
        <time>2018-02-15T18:24:38Z</time>
      </trkpt>
      <trkpt lat="62.633964422115" lon="17.980534708904">
        <ele>69</ele>
        <time>2018-02-15T18:24:39Z</time>
      </trkpt>
      <trkpt lat="62.6339740613" lon="17.980482322029">
        <ele>69.2</ele>
        <time>2018-02-15T18:24:40Z</time>
      </trkpt>
      <trkpt lat="62.63399333967" lon="17.980427001489">
        <ele>69.4</ele>
        <time>2018-02-15T18:24:41Z</time>
      </trkpt>
      <trkpt lat="62.634017311904" lon="17.980365394524">
        <ele>69.4</ele>
        <time>2018-02-15T18:24:42Z</time>
      </trkpt>
      <trkpt lat="62.63403608736" lon="17.980314684029">
        <ele>69.2</ele>
        <time>2018-02-15T18:24:43Z</time>
      </trkpt>
      <trkpt lat="62.634051090961" lon="17.980271265787">
        <ele>69.2</ele>
        <time>2018-02-15T18:24:44Z</time>
      </trkpt>
      <trkpt lat="62.634076069023" lon="17.980216867256">
        <ele>69.2</ele>
        <time>2018-02-15T18:24:45Z</time>
      </trkpt>
      <trkpt lat="62.634101382361" lon="17.98016204963">
        <ele>69.2</ele>
        <time>2018-02-15T18:24:46Z</time>
      </trkpt>
      <trkpt lat="62.634120493093" lon="17.980096754629">
        <ele>69.4</ele>
        <time>2018-02-15T18:24:47Z</time>
      </trkpt>
      <trkpt lat="62.634149829743" lon="17.980046714686">
        <ele>69.4</ele>
        <time>2018-02-15T18:24:48Z</time>
      </trkpt>
      <trkpt lat="62.634177909108" lon="17.979999524589">
        <ele>69.4</ele>
        <time>2018-02-15T18:24:49Z</time>
      </trkpt>
      <trkpt lat="62.634200037324" lon="17.979952921225">
        <ele>69.4</ele>
        <time>2018-02-15T18:24:50Z</time>
      </trkpt>
      <trkpt lat="62.634225769757" lon="17.979899277065">
        <ele>69.4</ele>
        <time>2018-02-15T18:24:51Z</time>
      </trkpt>
      <trkpt lat="62.63424731124" lon="17.979844878534">
        <ele>69.4</ele>
        <time>2018-02-15T18:24:52Z</time>
      </trkpt>
      <trkpt lat="62.634280084469" lon="17.979778493886">
        <ele>69.4</ele>
        <time>2018-02-15T18:24:53Z</time>
      </trkpt>
      <trkpt lat="62.634291902948" lon="17.979720742595">
        <ele>69.4</ele>
        <time>2018-02-15T18:24:54Z</time>
      </trkpt>
      <trkpt lat="62.634317383924" lon="17.97964153364">
        <ele>69.4</ele>
        <time>2018-02-15T18:24:55Z</time>
      </trkpt>
      <trkpt lat="62.634319647037" lon="17.979589314403">
        <ele>69.4</ele>
        <time>2018-02-15T18:24:56Z</time>
      </trkpt>
      <trkpt lat="62.634342445805" lon="17.97951831971">
        <ele>69.4</ele>
        <time>2018-02-15T18:24:57Z</time>
      </trkpt>
      <trkpt lat="62.634365579849" lon="17.979480517341">
        <ele>69.4</ele>
        <time>2018-02-15T18:24:58Z</time>
      </trkpt>
      <trkpt lat="62.634374464663" lon="17.979427124638">
        <ele>69.4</ele>
        <time>2018-02-15T18:24:59Z</time>
      </trkpt>
      <trkpt lat="62.634384271486" lon="17.979354202108">
        <ele>69.6</ele>
        <time>2018-02-15T18:25:00Z</time>
      </trkpt>
      <trkpt lat="62.634403885132" lon="17.979274741696">
        <ele>69.4</ele>
        <time>2018-02-15T18:25:01Z</time>
      </trkpt>
      <trkpt lat="62.634409584824" lon="17.97922076226">
        <ele>69.4</ele>
        <time>2018-02-15T18:25:02Z</time>
      </trkpt>
      <trkpt lat="62.634416374163" lon="17.979140631296">
        <ele>69.4</ele>
        <time>2018-02-15T18:25:03Z</time>
      </trkpt>
      <trkpt lat="62.634428947013" lon="17.979079694883">
        <ele>69.4</ele>
        <time>2018-02-15T18:25:04Z</time>
      </trkpt>
      <trkpt lat="62.634445291718" lon="17.979004928335">
        <ele>69.2</ele>
        <time>2018-02-15T18:25:05Z</time>
      </trkpt>
      <trkpt lat="62.6344685934" lon="17.978865285881">
        <ele>69.4</ele>
        <time>2018-02-15T18:25:07Z</time>
      </trkpt>
      <trkpt lat="62.634483010268" lon="17.978788507677">
        <ele>69.4</ele>
        <time>2018-02-15T18:25:08Z</time>
      </trkpt>
      <trkpt lat="62.634493990557" lon="17.978716758613">
        <ele>69.4</ele>
        <time>2018-02-15T18:25:09Z</time>
      </trkpt>
      <trkpt lat="62.634513436565" lon="17.978650541603">
        <ele>69.4</ele>
        <time>2018-02-15T18:25:10Z</time>
      </trkpt>
      <trkpt lat="62.634532379659" lon="17.978573511942">
        <ele>69.4</ele>
        <time>2018-02-15T18:25:11Z</time>
      </trkpt>
      <trkpt lat="62.634546461251" lon="17.978490112037">
        <ele>69.4</ele>
        <time>2018-02-15T18:25:12Z</time>
      </trkpt>
      <trkpt lat="62.634548389088" lon="17.978425236131">
        <ele>69.4</ele>
        <time>2018-02-15T18:25:13Z</time>
      </trkpt>
      <trkpt lat="62.634558950282" lon="17.978342171502">
        <ele>69.4</ele>
        <time>2018-02-15T18:25:14Z</time>
      </trkpt>
      <trkpt lat="62.634559704653" lon="17.978275200121">
        <ele>69.4</ele>
        <time>2018-02-15T18:25:15Z</time>
      </trkpt>
      <trkpt lat="62.634570182028" lon="17.978191800216">
        <ele>69.4</ele>
        <time>2018-02-15T18:25:16Z</time>
      </trkpt>
      <trkpt lat="62.634589376579" lon="17.978079650394">
        <ele>69.2</ele>
        <time>2018-02-15T18:25:17Z</time>
      </trkpt>
      <trkpt lat="62.634600524506" lon="17.977998848878">
        <ele>69</ele>
        <time>2018-02-15T18:25:18Z</time>
      </trkpt>
      <trkpt lat="62.634610666605" lon="17.977931961316">
        <ele>68.8</ele>
        <time>2018-02-15T18:25:19Z</time>
      </trkpt>
      <trkpt lat="62.634623323274" lon="17.977831546154">
        <ele>68.4</ele>
        <time>2018-02-15T18:25:20Z</time>
      </trkpt>
      <trkpt lat="62.634631453717" lon="17.977751582828">
        <ele>68.2</ele>
        <time>2018-02-15T18:25:21Z</time>
      </trkpt>
      <trkpt lat="62.634641763454" lon="17.977675223719">
        <ele>68</ele>
        <time>2018-02-15T18:25:22Z</time>
      </trkpt>
      <trkpt lat="62.634663472575" lon="17.977568941227">
        <ele>68</ele>
        <time>2018-02-15T18:25:23Z</time>
      </trkpt>
      <trkpt lat="62.634665735688" lon="17.9774907381">
        <ele>67.8</ele>
        <time>2018-02-15T18:25:24Z</time>
      </trkpt>
      <trkpt lat="62.63467730271" lon="17.97741278643">
        <ele>68</ele>
        <time>2018-02-15T18:25:25Z</time>
      </trkpt>
      <trkpt lat="62.634694569424" lon="17.977327961602">
        <ele>68</ele>
        <time>2018-02-15T18:25:26Z</time>
      </trkpt>
      <trkpt lat="62.63470580117" lon="17.977241879489">
        <ele>67.8</ele>
        <time>2018-02-15T18:25:27Z</time>
      </trkpt>
      <trkpt lat="62.634720469495" lon="17.97717138771">
        <ele>67.8</ele>
        <time>2018-02-15T18:25:28Z</time>
      </trkpt>
      <trkpt lat="62.634738825856" lon="17.977064602304">
        <ele>68</ele>
        <time>2018-02-15T18:25:29Z</time>
      </trkpt>
      <trkpt lat="62.634749135593" lon="17.976973658689">
        <ele>68</ele>
        <time>2018-02-15T18:25:30Z</time>
      </trkpt>
      <trkpt lat="62.634765899393" lon="17.97689897596">
        <ele>67.8</ele>
        <time>2018-02-15T18:25:31Z</time>
      </trkpt>
      <trkpt lat="62.634783501383" lon="17.976813061485">
        <ele>67.8</ele>
        <time>2018-02-15T18:25:32Z</time>
      </trkpt>
      <trkpt lat="62.634791045093" lon="17.976726811734">
        <ele>67.8</ele>
        <time>2018-02-15T18:25:33Z</time>
      </trkpt>
      <trkpt lat="62.634804875228" lon="17.976636287214">
        <ele>67.6</ele>
        <time>2018-02-15T18:25:34Z</time>
      </trkpt>
      <trkpt lat="62.634827673996" lon="17.976527490152">
        <ele>67.6</ele>
        <time>2018-02-15T18:25:35Z</time>
      </trkpt>
      <trkpt lat="62.634855166628" lon="17.976456327821">
        <ele>67.6</ele>
        <time>2018-02-15T18:25:36Z</time>
      </trkpt>
      <trkpt lat="62.634873690627" lon="17.976368988423">
        <ele>67.6</ele>
        <time>2018-02-15T18:25:37Z</time>
      </trkpt>
      <trkpt lat="62.634898920146" lon="17.97628039174">
        <ele>67.4</ele>
        <time>2018-02-15T18:25:38Z</time>
      </trkpt>
      <trkpt lat="62.634918785249" lon="17.976188358478">
        <ele>67.4</ele>
        <time>2018-02-15T18:25:39Z</time>
      </trkpt>
      <trkpt lat="62.634941835474" lon="17.976106467315">
        <ele>67.2</ele>
        <time>2018-02-15T18:25:40Z</time>
      </trkpt>
      <trkpt lat="62.634970082477" lon="17.976010829836">
        <ele>67.2</ele>
        <time>2018-02-15T18:25:41Z</time>
      </trkpt>
      <trkpt lat="62.634992210693" lon="17.975916282004">
        <ele>67.2</ele>
        <time>2018-02-15T18:25:42Z</time>
      </trkpt>
      <trkpt lat="62.635007633389" lon="17.975820393068">
        <ele>67</ele>
        <time>2018-02-15T18:25:43Z</time>
      </trkpt>
      <trkpt lat="62.635021547343" lon="17.975726599607">
        <ele>66.6</ele>
        <time>2018-02-15T18:25:44Z</time>
      </trkpt>
      <trkpt lat="62.635041831541" lon="17.975640601313">
        <ele>66.4</ele>
        <time>2018-02-15T18:25:45Z</time>
      </trkpt>
      <trkpt lat="62.63504359174" lon="17.975562984919">
        <ele>66</ele>
        <time>2018-02-15T18:25:46Z</time>
      </trkpt>
      <trkpt lat="62.635067563974" lon="17.975486206715">
        <ele>65.8</ele>
        <time>2018-02-15T18:25:47Z</time>
      </trkpt>
      <trkpt lat="62.635080136824" lon="17.975411607805">
        <ele>65.6</ele>
        <time>2018-02-15T18:25:48Z</time>
      </trkpt>
      <trkpt lat="62.635085752697" lon="17.975323094941">
        <ele>65.6</ele>
        <time>2018-02-15T18:25:49Z</time>
      </trkpt>
      <trkpt lat="62.635093296407" lon="17.975219913752">
        <ele>65.6</ele>
        <time>2018-02-15T18:25:50Z</time>
      </trkpt>
      <trkpt lat="62.635097319719" lon="17.975128634861">
        <ele>65.8</ele>
        <time>2018-02-15T18:25:51Z</time>
      </trkpt>
      <trkpt lat="62.635089943647" lon="17.975037439789">
        <ele>65.8</ele>
        <time>2018-02-15T18:25:52Z</time>
      </trkpt>
      <trkpt lat="62.635068905078" lon="17.974949262201">
        <ele>65.8</ele>
        <time>2018-02-15T18:25:53Z</time>
      </trkpt>
      <trkpt lat="62.635045603396" lon="17.97489151091">
        <ele>65.4</ele>
        <time>2018-02-15T18:25:54Z</time>
      </trkpt>
      <trkpt lat="62.635011321425" lon="17.974793861775">
        <ele>65.2</ele>
        <time>2018-02-15T18:25:55Z</time>
      </trkpt>
      <trkpt lat="62.634985253716" lon="17.974689423301">
        <ele>64.8</ele>
        <time>2018-02-15T18:25:56Z</time>
      </trkpt>
      <trkpt lat="62.634956922894" lon="17.974591941804">
        <ele>64.6</ele>
        <time>2018-02-15T18:25:57Z</time>
      </trkpt>
      <trkpt lat="62.634938398895" lon="17.974534525789">
        <ele>64.2</ele>
        <time>2018-02-15T18:25:58Z</time>
      </trkpt>
      <trkpt lat="62.634903446372" lon="17.974437295749">
        <ele>63.8</ele>
        <time>2018-02-15T18:25:59Z</time>
      </trkpt>
      <trkpt lat="62.634894477739" lon="17.974368228893">
        <ele>63.6</ele>
        <time>2018-02-15T18:26:00Z</time>
      </trkpt>
      <trkpt lat="62.634881318156" lon="17.974293378526">
        <ele>63.4</ele>
        <time>2018-02-15T18:26:01Z</time>
      </trkpt>
      <trkpt lat="62.634869583496" lon="17.974204530386">
        <ele>63.4</ele>
        <time>2018-02-15T18:26:02Z</time>
      </trkpt>
      <trkpt lat="62.634859776673" lon="17.974130853485">
        <ele>63.2</ele>
        <time>2018-02-15T18:26:03Z</time>
      </trkpt>
      <trkpt lat="62.634851981506" lon="17.974059942611">
        <ele>62.8</ele>
        <time>2018-02-15T18:26:04Z</time>
      </trkpt>
      <trkpt lat="62.634838738104" lon="17.97399045666">
        <ele>63</ele>
        <time>2018-02-15T18:26:05Z</time>
      </trkpt>
      <trkpt lat="62.634815184965" lon="17.973912253533">
        <ele>62.6</ele>
        <time>2018-02-15T18:26:06Z</time>
      </trkpt>
      <trkpt lat="62.634798924079" lon="17.973828937447">
        <ele>62.2</ele>
        <time>2018-02-15T18:26:07Z</time>
      </trkpt>
      <trkpt lat="62.634780064804" lon="17.973737826194">
        <ele>62.2</ele>
        <time>2018-02-15T18:26:08Z</time>
      </trkpt>
      <trkpt lat="62.634759026235" lon="17.973643278362">
        <ele>62</ele>
        <time>2018-02-15T18:26:09Z</time>
      </trkpt>
      <trkpt lat="62.634749889964" lon="17.973556525697">
        <ele>62</ele>
        <time>2018-02-15T18:26:10Z</time>
      </trkpt>
      <trkpt lat="62.634736562743" lon="17.973451081395">
        <ele>62</ele>
        <time>2018-02-15T18:26:11Z</time>
      </trkpt>
      <trkpt lat="62.63472927049" lon="17.973374051734">
        <ele>62.2</ele>
        <time>2018-02-15T18:26:12Z</time>
      </trkpt>
      <trkpt lat="62.634737400933" lon="17.973258213876">
        <ele>62</ele>
        <time>2018-02-15T18:26:13Z</time>
      </trkpt>
      <trkpt lat="62.634762462814" lon="17.97317070684">
        <ele>61.8</ele>
        <time>2018-02-15T18:26:14Z</time>
      </trkpt>
      <trkpt lat="62.634766821402" lon="17.973068196203">
        <ele>61.6</ele>
        <time>2018-02-15T18:26:15Z</time>
      </trkpt>
      <trkpt lat="62.634785345401" lon="17.972984209565">
        <ele>61.6</ele>
        <time>2018-02-15T18:26:16Z</time>
      </trkpt>
      <trkpt lat="62.634836139715" lon="17.972907934275">
        <ele>61.4</ele>
        <time>2018-02-15T18:26:17Z</time>
      </trkpt>
      <trkpt lat="62.6348457789" lon="17.972812548253">
        <ele>61.2</ele>
        <time>2018-02-15T18:26:18Z</time>
      </trkpt>
      <trkpt lat="62.634870673143" lon="17.972716240222">
        <ele>61.2</ele>
        <time>2018-02-15T18:26:19Z</time>
      </trkpt>
      <trkpt lat="62.634894142463" lon="17.972625464245">
        <ele>61</ele>
        <time>2018-02-15T18:26:20Z</time>
      </trkpt>
      <trkpt lat="62.634917947059" lon="17.972544411272">
        <ele>61</ele>
        <time>2018-02-15T18:26:21Z</time>
      </trkpt>
      <trkpt lat="62.634946194062" lon="17.972458412978">
        <ele>61</ele>
        <time>2018-02-15T18:26:22Z</time>
      </trkpt>
      <trkpt lat="62.634967232631" lon="17.972358668368">
        <ele>61</ele>
        <time>2018-02-15T18:26:23Z</time>
      </trkpt>
      <trkpt lat="62.634995144358" lon="17.972276106653">
        <ele>60.8</ele>
        <time>2018-02-15T18:26:24Z</time>
      </trkpt>
      <trkpt lat="62.635025067741" lon="17.972185498314">
        <ele>60.6</ele>
        <time>2018-02-15T18:26:25Z</time>
      </trkpt>
      <trkpt lat="62.635050129622" lon="17.972107546644">
        <ele>60.6</ele>
        <time>2018-02-15T18:26:26Z</time>
      </trkpt>
      <trkpt lat="62.635074101856" lon="17.972017441219">
        <ele>60.4</ele>
        <time>2018-02-15T18:26:27Z</time>
      </trkpt>
      <trkpt lat="62.635089105457" lon="17.971910404356">
        <ele>59.6</ele>
        <time>2018-02-15T18:26:28Z</time>
      </trkpt>
      <trkpt lat="62.635106539809" lon="17.971763972563">
        <ele>59</ele>
        <time>2018-02-15T18:26:29Z</time>
      </trkpt>
      <trkpt lat="62.635121375772" lon="17.971618295141">
        <ele>58</ele>
        <time>2018-02-15T18:26:30Z</time>
      </trkpt>
      <trkpt lat="62.635134702993" lon="17.971490471166">
        <ele>57.2</ele>
        <time>2018-02-15T18:26:31Z</time>
      </trkpt>
      <trkpt lat="62.635146270015" lon="17.97135602549">
        <ele>56.4</ele>
        <time>2018-02-15T18:26:32Z</time>
      </trkpt>
      <trkpt lat="62.635161525073" lon="17.971232308646">
        <ele>56</ele>
        <time>2018-02-15T18:26:33Z</time>
      </trkpt>
      <trkpt lat="62.63517183481" lon="17.971107418336">
        <ele>56</ele>
        <time>2018-02-15T18:26:34Z</time>
      </trkpt>
      <trkpt lat="62.635188011877" lon="17.970969284624">
        <ele>56.2</ele>
        <time>2018-02-15T18:26:35Z</time>
      </trkpt>
      <trkpt lat="62.635199662718" lon="17.970848585264">
        <ele>56.2</ele>
        <time>2018-02-15T18:26:36Z</time>
      </trkpt>
      <trkpt lat="62.635210978283" lon="17.970729646103">
        <ele>56.4</ele>
        <time>2018-02-15T18:26:37Z</time>
      </trkpt>
      <trkpt lat="62.635224305504" lon="17.970611209856">
        <ele>56.2</ele>
        <time>2018-02-15T18:26:38Z</time>
      </trkpt>
      <trkpt lat="62.635236207802" lon="17.970507525753">
        <ele>56</ele>
        <time>2018-02-15T18:26:39Z</time>
      </trkpt>
      <trkpt lat="62.635248780652" lon="17.970396130302">
        <ele>55.8</ele>
        <time>2018-02-15T18:26:40Z</time>
      </trkpt>
      <trkpt lat="62.635263448977" lon="17.97028649505">
        <ele>55.6</ele>
        <time>2018-02-15T18:26:41Z</time>
      </trkpt>
      <trkpt lat="62.635279793682" lon="17.970176189246">
        <ele>55.4</ele>
        <time>2018-02-15T18:26:42Z</time>
      </trkpt>
      <trkpt lat="62.635298988233" lon="17.970063368872">
        <ele>55.2</ele>
        <time>2018-02-15T18:26:43Z</time>
      </trkpt>
      <trkpt lat="62.635321367906" lon="17.969961780244">
        <ele>54.8</ele>
        <time>2018-02-15T18:26:44Z</time>
      </trkpt>
      <trkpt lat="62.635348609081" lon="17.969850720069">
        <ele>54</ele>
        <time>2018-02-15T18:26:45Z</time>
      </trkpt>
      <trkpt lat="62.635371072573" lon="17.96974921526">
        <ele>53.4</ele>
        <time>2018-02-15T18:26:46Z</time>
      </trkpt>
      <trkpt lat="62.635396218273" lon="17.969637316895">
        <ele>52.4</ele>
        <time>2018-02-15T18:26:47Z</time>
      </trkpt>
      <trkpt lat="62.635421531611" lon="17.969538578113">
        <ele>51.6</ele>
        <time>2018-02-15T18:26:48Z</time>
      </trkpt>
      <trkpt lat="62.635447264044" lon="17.969443695005">
        <ele>51</ele>
        <time>2018-02-15T18:26:49Z</time>
      </trkpt>
      <trkpt lat="62.635474756676" lon="17.96933012026">
        <ele>50.6</ele>
        <time>2018-02-15T18:26:50Z</time>
      </trkpt>
      <trkpt lat="62.635504428602" lon="17.96922534651">
        <ele>50.2</ele>
        <time>2018-02-15T18:26:51Z</time>
      </trkpt>
      <trkpt lat="62.635533178519" lon="17.969127529737">
        <ele>49.8</ele>
        <time>2018-02-15T18:26:52Z</time>
      </trkpt>
      <trkpt lat="62.635566203205" lon="17.969010602232">
        <ele>49.6</ele>
        <time>2018-02-15T18:26:53Z</time>
      </trkpt>
      <trkpt lat="62.635595623674" lon="17.968916808771">
        <ele>49</ele>
        <time>2018-02-15T18:26:54Z</time>
      </trkpt>
      <trkpt lat="62.635630240921" lon="17.968809688089">
        <ele>48.4</ele>
        <time>2018-02-15T18:26:55Z</time>
      </trkpt>
      <trkpt lat="62.635666115453" lon="17.968713547696">
        <ele>48</ele>
        <time>2018-02-15T18:26:56Z</time>
      </trkpt>
      <trkpt lat="62.635710539523" lon="17.968620257149">
        <ele>47.4</ele>
        <time>2018-02-15T18:26:57Z</time>
      </trkpt>
      <trkpt lat="62.635752365204" lon="17.968542389298">
        <ele>47</ele>
        <time>2018-02-15T18:26:58Z</time>
      </trkpt>
      <trkpt lat="62.63580718283" lon="17.968481285247">
        <ele>46.6</ele>
        <time>2018-02-15T18:26:59Z</time>
      </trkpt>
      <trkpt lat="62.635868957433" lon="17.968437783186">
        <ele>46.4</ele>
        <time>2018-02-15T18:27:00Z</time>
      </trkpt>
      <trkpt lat="62.635929726208" lon="17.968408697993">
        <ele>46.2</ele>
        <time>2018-02-15T18:27:01Z</time>
      </trkpt>
      <trkpt lat="62.635985884938" lon="17.968403165939">
        <ele>46</ele>
        <time>2018-02-15T18:27:02Z</time>
      </trkpt>
      <trkpt lat="62.636036930709" lon="17.968403165939">
        <ele>45.8</ele>
        <time>2018-02-15T18:27:03Z</time>
      </trkpt>
      <trkpt lat="62.636082779702" lon="17.968412134572">
        <ele>45.8</ele>
        <time>2018-02-15T18:27:04Z</time>
      </trkpt>
      <trkpt lat="62.636132819645" lon="17.968427976363">
        <ele>45.8</ele>
        <time>2018-02-15T18:27:05Z</time>
      </trkpt>
      <trkpt lat="62.636176237887" lon="17.968445913629">
        <ele>45.6</ele>
        <time>2018-02-15T18:27:06Z</time>
      </trkpt>
      <trkpt lat="62.636220661957" lon="17.968472568071">
        <ele>45.6</ele>
        <time>2018-02-15T18:27:07Z</time>
      </trkpt>
      <trkpt lat="62.636262822914" lon="17.968504670748">
        <ele>45.4</ele>
        <time>2018-02-15T18:27:08Z</time>
      </trkpt>
      <trkpt lat="62.63629668579" lon="17.968559153098">
        <ele>45.2</ele>
        <time>2018-02-15T18:27:09Z</time>
      </trkpt>
      <trkpt lat="62.636329542838" lon="17.968602236064">
        <ele>45</ele>
        <time>2018-02-15T18:27:10Z</time>
      </trkpt>
      <trkpt lat="62.636358628031" lon="17.968661579916">
        <ele>45</ele>
        <time>2018-02-15T18:27:11Z</time>
      </trkpt>
      <trkpt lat="62.636383354636" lon="17.968715894628">
        <ele>45</ele>
        <time>2018-02-15T18:27:12Z</time>
      </trkpt>
      <trkpt lat="62.636404644662" lon="17.96875596011">
        <ele>45</ele>
        <time>2018-02-15T18:27:13Z</time>
      </trkpt>
      <trkpt lat="62.636425850869" lon="17.96880625151">
        <ele>45</ele>
        <time>2018-02-15T18:27:14Z</time>
      </trkpt>
      <trkpt lat="62.636447727628" lon="17.968863583706">
        <ele>45.2</ele>
        <time>2018-02-15T18:27:15Z</time>
      </trkpt>
      <trkpt lat="62.636468682378" lon="17.968904822654">
        <ele>45.2</ele>
        <time>2018-02-15T18:27:16Z</time>
      </trkpt>
      <trkpt lat="62.636494330992" lon="17.968964837058">
        <ele>45.2</ele>
        <time>2018-02-15T18:27:17Z</time>
      </trkpt>
      <trkpt lat="62.636510675697" lon="17.96899484426">
        <ele>45.2</ele>
        <time>2018-02-15T18:27:18Z</time>
      </trkpt>
      <trkpt lat="62.636534983207" lon="17.969038346321">
        <ele>45.2</ele>
        <time>2018-02-15T18:27:19Z</time>
      </trkpt>
      <trkpt lat="62.636551830826" lon="17.969076232509">
        <ele>45.2</ele>
        <time>2018-02-15T18:27:20Z</time>
      </trkpt>
    </trkseg>
  </trk>
</gpx>